<?xml version='1.0' encoding='UTF-8'?><gpx version="1.1" creator="JPX - https://github.com/jenetics/jpx" xmlns="http://www.topografix.com/GPX/1/1"><trk><trkseg><trkpt lat="44.16297" lon="11.3302152"><ele>864.9999999999999</ele><time>2026-05-03T10:07:34.921Z</time></trkpt><trkpt lat="44.1629314" lon="11.3301253"><ele>865.0</ele><time>2026-05-03T10:07:36.922Z</time></trkpt><trkpt lat="44.1628562" lon="11.3300844"><ele>865.0</ele><time>2026-05-03T10:07:38.924Z</time></trkpt><trkpt lat="44.1627889" lon="11.3299609"><ele>865.0</ele><time>2026-05-03T10:07:40.917Z</time></trkpt><trkpt lat="44.1627424" lon="11.329867"><ele>864.9999999999999</ele><time>2026-05-03T10:07:41.906Z</time></trkpt><trkpt lat="44.162678" lon="11.3297722"><ele>865.0</ele><time>2026-05-03T10:07:42.923Z</time></trkpt><trkpt lat="44.1625776" lon="11.3296822"><ele>870.3333333333333</ele><time>2026-05-03T10:07:43.921Z</time></trkpt><trkpt lat="44.1624412" lon="11.3296106"><ele>875.6666666666667</ele><time>2026-05-03T10:07:44.922Z</time></trkpt><trkpt lat="44.1622803" lon="11.3295728"><ele>881.0</ele><time>2026-05-03T10:07:45.915Z</time></trkpt><trkpt lat="44.1621029" lon="11.3295551"><ele>881.0</ele><time>2026-05-03T10:07:46.922Z</time></trkpt><trkpt lat="44.1619207" lon="11.3295171"><ele>881.0</ele><time>2026-05-03T10:07:47.928Z</time></trkpt><trkpt lat="44.1617376" lon="11.3294688"><ele>881.0</ele><time>2026-05-03T10:07:48.921Z</time></trkpt><trkpt lat="44.1615741" lon="11.329418"><ele>881.25</ele><time>2026-05-03T10:07:49.929Z</time></trkpt><trkpt lat="44.1614486" lon="11.329305"><ele>881.5</ele><time>2026-05-03T10:07:50.923Z</time></trkpt><trkpt lat="44.1613399" lon="11.3291982"><ele>881.75</ele><time>2026-05-03T10:07:51.916Z</time></trkpt><trkpt lat="44.1612704" lon="11.329033"><ele>882.0</ele><time>2026-05-03T10:07:52.922Z</time></trkpt><trkpt lat="44.161229" lon="11.3288326"><ele>882.0</ele><time>2026-05-03T10:07:53.923Z</time></trkpt><trkpt lat="44.1612175" lon="11.3285847"><ele>882.0</ele><time>2026-05-03T10:07:54.929Z</time></trkpt><trkpt lat="44.161203" lon="11.3283111"><ele>882.0</ele><time>2026-05-03T10:07:55.919Z</time></trkpt><trkpt lat="44.1611809" lon="11.3280318"><ele>882.3333333333333</ele><time>2026-05-03T10:07:56.923Z</time></trkpt><trkpt lat="44.161136" lon="11.3277448"><ele>882.6666666666666</ele><time>2026-05-03T10:07:57.913Z</time></trkpt><trkpt lat="44.1610635" lon="11.3274567"><ele>883.0</ele><time>2026-05-03T10:07:58.93Z</time></trkpt><trkpt lat="44.1609653" lon="11.3271876"><ele>885.5</ele><time>2026-05-03T10:07:59.927Z</time></trkpt><trkpt lat="44.1608532" lon="11.3269195"><ele>888.0</ele><time>2026-05-03T10:08:00.926Z</time></trkpt><trkpt lat="44.1607246" lon="11.3266531"><ele>885.0</ele><time>2026-05-03T10:08:01.925Z</time></trkpt><trkpt lat="44.1606002" lon="11.3263786"><ele>882.0</ele><time>2026-05-03T10:08:02.924Z</time></trkpt><trkpt lat="44.1604852" lon="11.3260754"><ele>882.0</ele><time>2026-05-03T10:08:03.922Z</time></trkpt><trkpt lat="44.1603895" lon="11.3257724"><ele>882.0</ele><time>2026-05-03T10:08:04.929Z</time></trkpt><trkpt lat="44.1602867" lon="11.3254728"><ele>886.0</ele><time>2026-05-03T10:08:05.924Z</time></trkpt><trkpt lat="44.1601928" lon="11.3251746"><ele>890.0</ele><time>2026-05-03T10:08:06.924Z</time></trkpt><trkpt lat="44.1601144" lon="11.3248835"><ele>893.0</ele><time>2026-05-03T10:08:07.924Z</time></trkpt><trkpt lat="44.1600471" lon="11.3246318"><ele>896.0</ele><time>2026-05-03T10:08:08.924Z</time></trkpt><trkpt lat="44.1599927" lon="11.3244004"><ele>899.0</ele><time>2026-05-03T10:08:09.918Z</time></trkpt><trkpt lat="44.159943" lon="11.3241729"><ele>899.0</ele><time>2026-05-03T10:08:10.931Z</time></trkpt><trkpt lat="44.1598776" lon="11.3239926"><ele>899.0</ele><time>2026-05-03T10:08:11.915Z</time></trkpt><trkpt lat="44.1597935" lon="11.3238345"><ele>899.0</ele><time>2026-05-03T10:08:12.932Z</time></trkpt><trkpt lat="44.1596725" lon="11.3236927"><ele>899.0</ele><time>2026-05-03T10:08:13.93Z</time></trkpt><trkpt lat="44.159523" lon="11.3235966"><ele>899.0</ele><time>2026-05-03T10:08:14.923Z</time></trkpt><trkpt lat="44.159379" lon="11.3235028"><ele>899.0</ele><time>2026-05-03T10:08:15.925Z</time></trkpt><trkpt lat="44.1592446" lon="11.3234286"><ele>899.0</ele><time>2026-05-03T10:08:16.926Z</time></trkpt><trkpt lat="44.1591228" lon="11.3233634"><ele>899.0</ele><time>2026-05-03T10:08:17.924Z</time></trkpt><trkpt lat="44.1590086" lon="11.3232852"><ele>898.25</ele><time>2026-05-03T10:08:18.946Z</time></trkpt><trkpt lat="44.1589022" lon="11.3231886"><ele>897.5</ele><time>2026-05-03T10:08:19.929Z</time></trkpt><trkpt lat="44.158809" lon="11.3230425"><ele>896.75</ele><time>2026-05-03T10:08:20.925Z</time></trkpt><trkpt lat="44.1587063" lon="11.3228965"><ele>896.0</ele><time>2026-05-03T10:08:21.921Z</time></trkpt><trkpt lat="44.1585704" lon="11.3227779"><ele>899.0</ele><time>2026-05-03T10:08:22.922Z</time></trkpt><trkpt lat="44.1584123" lon="11.3226851"><ele>902.0</ele><time>2026-05-03T10:08:23.92Z</time></trkpt><trkpt lat="44.1582528" lon="11.3226116"><ele>905.0</ele><time>2026-05-03T10:08:24.921Z</time></trkpt><trkpt lat="44.1580932" lon="11.3225743"><ele>905.3333333333334</ele><time>2026-05-03T10:08:25.919Z</time></trkpt><trkpt lat="44.1579292" lon="11.322594"><ele>905.6666666666667</ele><time>2026-05-03T10:08:26.916Z</time></trkpt><trkpt lat="44.1577788" lon="11.322668"><ele>906.0</ele><time>2026-05-03T10:08:27.916Z</time></trkpt><trkpt lat="44.1576627" lon="11.3228154"><ele>906.0</ele><time>2026-05-03T10:08:28.917Z</time></trkpt><trkpt lat="44.1575664" lon="11.3229668"><ele>906.0</ele><time>2026-05-03T10:08:29.923Z</time></trkpt><trkpt lat="44.157473" lon="11.3230857"><ele>906.0</ele><time>2026-05-03T10:08:30.918Z</time></trkpt><trkpt lat="44.1573867" lon="11.3231958"><ele>906.0</ele><time>2026-05-03T10:08:31.92Z</time></trkpt><trkpt lat="44.157278" lon="11.3232863"><ele>904.75</ele><time>2026-05-03T10:08:32.923Z</time></trkpt><trkpt lat="44.1571488" lon="11.3233556"><ele>903.5</ele><time>2026-05-03T10:08:33.925Z</time></trkpt><trkpt lat="44.1570237" lon="11.3234"><ele>902.25</ele><time>2026-05-03T10:08:34.923Z</time></trkpt><trkpt lat="44.1568913" lon="11.323423"><ele>901.0</ele><time>2026-05-03T10:08:35.922Z</time></trkpt><trkpt lat="44.156743" lon="11.3233999"><ele>901.0</ele><time>2026-05-03T10:08:36.928Z</time></trkpt><trkpt lat="44.1566156" lon="11.323351"><ele>901.0</ele><time>2026-05-03T10:08:37.918Z</time></trkpt><trkpt lat="44.1564844" lon="11.3232823"><ele>901.0</ele><time>2026-05-03T10:08:38.914Z</time></trkpt><trkpt lat="44.15635" lon="11.323215"><ele>901.0</ele><time>2026-05-03T10:08:39.916Z</time></trkpt><trkpt lat="44.1562118" lon="11.3231605"><ele>900.5</ele><time>2026-05-03T10:08:40.929Z</time></trkpt><trkpt lat="44.156074" lon="11.3231425"><ele>900.0</ele><time>2026-05-03T10:08:41.929Z</time></trkpt><trkpt lat="44.1559377" lon="11.3231988"><ele>899.5</ele><time>2026-05-03T10:08:42.918Z</time></trkpt><trkpt lat="44.1558088" lon="11.3232809"><ele>899.0</ele><time>2026-05-03T10:08:43.922Z</time></trkpt><trkpt lat="44.1556857" lon="11.3234175"><ele>898.0</ele><time>2026-05-03T10:08:44.919Z</time></trkpt><trkpt lat="44.1555692" lon="11.3235565"><ele>897.0</ele><time>2026-05-03T10:08:45.916Z</time></trkpt><trkpt lat="44.1554762" lon="11.3237201"><ele>896.0</ele><time>2026-05-03T10:08:46.921Z</time></trkpt><trkpt lat="44.1553997" lon="11.3238915"><ele>895.0</ele><time>2026-05-03T10:08:47.923Z</time></trkpt><trkpt lat="44.1553109" lon="11.3240521"><ele>895.0</ele><time>2026-05-03T10:08:48.919Z</time></trkpt><trkpt lat="44.1552185" lon="11.3241996"><ele>895.0</ele><time>2026-05-03T10:08:49.936Z</time></trkpt><trkpt lat="44.1550929" lon="11.3243165"><ele>895.0</ele><time>2026-05-03T10:08:50.918Z</time></trkpt><trkpt lat="44.1549679" lon="11.32443"><ele>895.0</ele><time>2026-05-03T10:08:51.917Z</time></trkpt><trkpt lat="44.1548493" lon="11.3245491"><ele>894.0</ele><time>2026-05-03T10:08:52.918Z</time></trkpt><trkpt lat="44.1547595" lon="11.3246817"><ele>893.0</ele><time>2026-05-03T10:08:53.92Z</time></trkpt><trkpt lat="44.1546962" lon="11.3248365"><ele>892.0</ele><time>2026-05-03T10:08:54.922Z</time></trkpt><trkpt lat="44.1546457" lon="11.3249962"><ele>891.0</ele><time>2026-05-03T10:08:55.924Z</time></trkpt><trkpt lat="44.1545662" lon="11.3251293"><ele>891.0</ele><time>2026-05-03T10:08:56.92Z</time></trkpt><trkpt lat="44.1544794" lon="11.3252172"><ele>891.0</ele><time>2026-05-03T10:08:57.925Z</time></trkpt><trkpt lat="44.1543523" lon="11.3252487"><ele>891.0</ele><time>2026-05-03T10:08:58.92Z</time></trkpt><trkpt lat="44.1542327" lon="11.3252536"><ele>891.0</ele><time>2026-05-03T10:08:59.914Z</time></trkpt><trkpt lat="44.1541104" lon="11.3252257"><ele>889.5</ele><time>2026-05-03T10:09:00.91Z</time></trkpt><trkpt lat="44.1539886" lon="11.3251779"><ele>888.0</ele><time>2026-05-03T10:09:01.912Z</time></trkpt><trkpt lat="44.1538679" lon="11.3251133"><ele>886.5</ele><time>2026-05-03T10:09:02.914Z</time></trkpt><trkpt lat="44.1537541" lon="11.3250356"><ele>885.0</ele><time>2026-05-03T10:09:03.915Z</time></trkpt><trkpt lat="44.1536423" lon="11.3249327"><ele>885.0</ele><time>2026-05-03T10:09:04.913Z</time></trkpt><trkpt lat="44.1535298" lon="11.3248128"><ele>885.0</ele><time>2026-05-03T10:09:05.917Z</time></trkpt><trkpt lat="44.1534035" lon="11.3246937"><ele>885.0</ele><time>2026-05-03T10:09:06.917Z</time></trkpt><trkpt lat="44.1532842" lon="11.3245864"><ele>885.0</ele><time>2026-05-03T10:09:07.914Z</time></trkpt><trkpt lat="44.1531617" lon="11.3244895"><ele>891.3333333333333</ele><time>2026-05-03T10:09:08.918Z</time></trkpt><trkpt lat="44.1530304" lon="11.3244135"><ele>897.6666666666666</ele><time>2026-05-03T10:09:09.916Z</time></trkpt><trkpt lat="44.1528733" lon="11.3243674"><ele>904.0</ele><time>2026-05-03T10:09:10.919Z</time></trkpt><trkpt lat="44.1527293" lon="11.3244079"><ele>904.0</ele><time>2026-05-03T10:09:11.915Z</time></trkpt><trkpt lat="44.1525935" lon="11.3245019"><ele>904.0</ele><time>2026-05-03T10:09:12.919Z</time></trkpt><trkpt lat="44.1524716" lon="11.32461"><ele>904.0</ele><time>2026-05-03T10:09:13.909Z</time></trkpt><trkpt lat="44.1523666" lon="11.3247389"><ele>904.0</ele><time>2026-05-03T10:09:14.92Z</time></trkpt><trkpt lat="44.152264" lon="11.3248557"><ele>902.75</ele><time>2026-05-03T10:09:15.914Z</time></trkpt><trkpt lat="44.1521479" lon="11.3249589"><ele>901.5</ele><time>2026-05-03T10:09:16.927Z</time></trkpt><trkpt lat="44.1520246" lon="11.3250721"><ele>900.25</ele><time>2026-05-03T10:09:17.931Z</time></trkpt><trkpt lat="44.151899" lon="11.3251713"><ele>899.0</ele><time>2026-05-03T10:09:18.929Z</time></trkpt><trkpt lat="44.151774" lon="11.3252676"><ele>899.0</ele><time>2026-05-03T10:09:19.932Z</time></trkpt><trkpt lat="44.151643" lon="11.325373"><ele>899.0</ele><time>2026-05-03T10:09:20.94Z</time></trkpt><trkpt lat="44.1515192" lon="11.3254882"><ele>899.0</ele><time>2026-05-03T10:09:21.927Z</time></trkpt><trkpt lat="44.1513903" lon="11.3256001"><ele>895.0</ele><time>2026-05-03T10:09:22.923Z</time></trkpt><trkpt lat="44.1512595" lon="11.3257059"><ele>891.0</ele><time>2026-05-03T10:09:23.925Z</time></trkpt><trkpt lat="44.151122" lon="11.3257864"><ele>887.0</ele><time>2026-05-03T10:09:24.913Z</time></trkpt><trkpt lat="44.1509796" lon="11.3258542"><ele>887.0</ele><time>2026-05-03T10:09:25.921Z</time></trkpt><trkpt lat="44.1508338" lon="11.3258651"><ele>887.0</ele><time>2026-05-03T10:09:26.924Z</time></trkpt><trkpt lat="44.1506742" lon="11.3258557"><ele>887.0</ele><time>2026-05-03T10:09:27.916Z</time></trkpt><trkpt lat="44.1505232" lon="11.325858"><ele>890.0</ele><time>2026-05-03T10:09:28.932Z</time></trkpt><trkpt lat="44.1503672" lon="11.3258453"><ele>893.0</ele><time>2026-05-03T10:09:29.92Z</time></trkpt><trkpt lat="44.1502145" lon="11.3258378"><ele>896.0</ele><time>2026-05-03T10:09:30.922Z</time></trkpt><trkpt lat="44.1500621" lon="11.325832"><ele>896.0</ele><time>2026-05-03T10:09:31.917Z</time></trkpt><trkpt lat="44.149904" lon="11.3258228"><ele>896.0</ele><time>2026-05-03T10:09:32.919Z</time></trkpt><trkpt lat="44.1497606" lon="11.3258083"><ele>896.0</ele><time>2026-05-03T10:09:33.913Z</time></trkpt><trkpt lat="44.1496288" lon="11.3258117"><ele>896.0</ele><time>2026-05-03T10:09:34.917Z</time></trkpt><trkpt lat="44.1494824" lon="11.3258634"><ele>899.0</ele><time>2026-05-03T10:09:35.921Z</time></trkpt><trkpt lat="44.149352" lon="11.3259516"><ele>902.0</ele><time>2026-05-03T10:09:36.91Z</time></trkpt><trkpt lat="44.1492469" lon="11.3260761"><ele>905.0</ele><time>2026-05-03T10:09:37.914Z</time></trkpt><trkpt lat="44.1491326" lon="11.3261875"><ele>908.0</ele><time>2026-05-03T10:09:38.907Z</time></trkpt><trkpt lat="44.149028" lon="11.3263049"><ele>907.0</ele><time>2026-05-03T10:09:39.904Z</time></trkpt><trkpt lat="44.1489171" lon="11.3264435"><ele>906.0</ele><time>2026-05-03T10:09:40.906Z</time></trkpt><trkpt lat="44.1487997" lon="11.3265949"><ele>905.0</ele><time>2026-05-03T10:09:41.902Z</time></trkpt><trkpt lat="44.1486923" lon="11.3267537"><ele>905.0</ele><time>2026-05-03T10:09:42.919Z</time></trkpt><trkpt lat="44.1485853" lon="11.3269236"><ele>905.0</ele><time>2026-05-03T10:09:43.913Z</time></trkpt><trkpt lat="44.1484872" lon="11.3271031"><ele>905.0</ele><time>2026-05-03T10:09:44.921Z</time></trkpt><trkpt lat="44.1483727" lon="11.3272549"><ele>900.25</ele><time>2026-05-03T10:09:45.917Z</time></trkpt><trkpt lat="44.1482675" lon="11.3274003"><ele>895.5</ele><time>2026-05-03T10:09:46.92Z</time></trkpt><trkpt lat="44.1481528" lon="11.3274893"><ele>890.75</ele><time>2026-05-03T10:09:47.922Z</time></trkpt><trkpt lat="44.1480365" lon="11.3275339"><ele>886.0</ele><time>2026-05-03T10:09:48.911Z</time></trkpt><trkpt lat="44.1479232" lon="11.3274937"><ele>886.0</ele><time>2026-05-03T10:09:49.906Z</time></trkpt><trkpt lat="44.1477998" lon="11.3273833"><ele>886.0</ele><time>2026-05-03T10:09:50.912Z</time></trkpt><trkpt lat="44.1476524" lon="11.3272647"><ele>886.0</ele><time>2026-05-03T10:09:51.937Z</time></trkpt><trkpt lat="44.147501" lon="11.3271759"><ele>887.6666666666666</ele><time>2026-05-03T10:09:52.905Z</time></trkpt><trkpt lat="44.1473433" lon="11.3271165"><ele>889.3333333333333</ele><time>2026-05-03T10:09:53.908Z</time></trkpt><trkpt lat="44.1471939" lon="11.3270967"><ele>891.0</ele><time>2026-05-03T10:09:54.907Z</time></trkpt><trkpt lat="44.1470532" lon="11.3271144"><ele>891.0</ele><time>2026-05-03T10:09:55.911Z</time></trkpt><trkpt lat="44.1469198" lon="11.3271475"><ele>891.0</ele><time>2026-05-03T10:09:56.913Z</time></trkpt><trkpt lat="44.1467832" lon="11.3271643"><ele>891.0</ele><time>2026-05-03T10:09:57.923Z</time></trkpt><trkpt lat="44.1466547" lon="11.3271288"><ele>891.0</ele><time>2026-05-03T10:09:58.922Z</time></trkpt><trkpt lat="44.1465147" lon="11.3270576"><ele>888.0</ele><time>2026-05-03T10:09:59.927Z</time></trkpt><trkpt lat="44.1463851" lon="11.3269714"><ele>885.0</ele><time>2026-05-03T10:10:00.919Z</time></trkpt><trkpt lat="44.1462568" lon="11.3268679"><ele>882.0</ele><time>2026-05-03T10:10:01.925Z</time></trkpt><trkpt lat="44.1461285" lon="11.3267684"><ele>879.0</ele><time>2026-05-03T10:10:02.923Z</time></trkpt><trkpt lat="44.1459986" lon="11.3266854"><ele>879.0</ele><time>2026-05-03T10:10:03.928Z</time></trkpt><trkpt lat="44.1458668" lon="11.3266122"><ele>879.0</ele><time>2026-05-03T10:10:04.924Z</time></trkpt><trkpt lat="44.1457311" lon="11.326548"><ele>879.0</ele><time>2026-05-03T10:10:05.925Z</time></trkpt><trkpt lat="44.1455892" lon="11.3265248"><ele>879.0</ele><time>2026-05-03T10:10:06.924Z</time></trkpt><trkpt lat="44.1454478" lon="11.3265244"><ele>879.5</ele><time>2026-05-03T10:10:07.924Z</time></trkpt><trkpt lat="44.1453151" lon="11.326554"><ele>880.0</ele><time>2026-05-03T10:10:08.925Z</time></trkpt><trkpt lat="44.1451888" lon="11.3265968"><ele>880.5</ele><time>2026-05-03T10:10:09.924Z</time></trkpt><trkpt lat="44.1450914" lon="11.3266506"><ele>881.0</ele><time>2026-05-03T10:10:10.919Z</time></trkpt><trkpt lat="44.1449928" lon="11.326713"><ele>881.0</ele><time>2026-05-03T10:10:11.92Z</time></trkpt><trkpt lat="44.1448967" lon="11.3267946"><ele>881.0</ele><time>2026-05-03T10:10:12.935Z</time></trkpt><trkpt lat="44.1448104" lon="11.3269242"><ele>881.0</ele><time>2026-05-03T10:10:13.93Z</time></trkpt><trkpt lat="44.1447466" lon="11.3270688"><ele>881.0</ele><time>2026-05-03T10:10:14.927Z</time></trkpt><trkpt lat="44.1446862" lon="11.3272164"><ele>879.0</ele><time>2026-05-03T10:10:15.927Z</time></trkpt><trkpt lat="44.1446268" lon="11.3273555"><ele>876.9999999999999</ele><time>2026-05-03T10:10:16.944Z</time></trkpt><trkpt lat="44.1445625" lon="11.3274832"><ele>874.9999999999999</ele><time>2026-05-03T10:10:17.936Z</time></trkpt><trkpt lat="44.1444832" lon="11.3275824"><ele>873.0</ele><time>2026-05-03T10:10:18.935Z</time></trkpt><trkpt lat="44.1443891" lon="11.3276378"><ele>871.0</ele><time>2026-05-03T10:10:19.942Z</time></trkpt><trkpt lat="44.1442714" lon="11.3276249"><ele>871.0</ele><time>2026-05-03T10:10:20.931Z</time></trkpt><trkpt lat="44.144131" lon="11.327542"><ele>871.0</ele><time>2026-05-03T10:10:21.945Z</time></trkpt><trkpt lat="44.1439797" lon="11.3274403"><ele>871.0</ele><time>2026-05-03T10:10:22.923Z</time></trkpt><trkpt lat="44.1438114" lon="11.327319"><ele>874.3333333333333</ele><time>2026-05-03T10:10:23.933Z</time></trkpt><trkpt lat="44.1436533" lon="11.3272136"><ele>877.6666666666667</ele><time>2026-05-03T10:10:24.935Z</time></trkpt><trkpt lat="44.1434988" lon="11.3271404"><ele>881.0</ele><time>2026-05-03T10:10:25.931Z</time></trkpt><trkpt lat="44.1433448" lon="11.3270993"><ele>878.75</ele><time>2026-05-03T10:10:26.947Z</time></trkpt><trkpt lat="44.1431984" lon="11.3271016"><ele>876.5</ele><time>2026-05-03T10:10:27.935Z</time></trkpt><trkpt lat="44.1430554" lon="11.3271138"><ele>874.25</ele><time>2026-05-03T10:10:28.95Z</time></trkpt><trkpt lat="44.1429161" lon="11.3271271"><ele>872.0</ele><time>2026-05-03T10:10:29.935Z</time></trkpt><trkpt lat="44.142769" lon="11.3271595"><ele>872.0</ele><time>2026-05-03T10:10:30.933Z</time></trkpt><trkpt lat="44.1426218" lon="11.327199"><ele>872.0</ele><time>2026-05-03T10:10:31.935Z</time></trkpt><trkpt lat="44.1424631" lon="11.3272607"><ele>872.0</ele><time>2026-05-03T10:10:32.938Z</time></trkpt><trkpt lat="44.1423019" lon="11.3273453"><ele>869.6666666666667</ele><time>2026-05-03T10:10:33.927Z</time></trkpt><trkpt lat="44.1421424" lon="11.3274358"><ele>867.3333333333333</ele><time>2026-05-03T10:10:34.935Z</time></trkpt><trkpt lat="44.1420047" lon="11.3275537"><ele>865.0</ele><time>2026-05-03T10:10:35.934Z</time></trkpt><trkpt lat="44.1418699" lon="11.3276848"><ele>865.0</ele><time>2026-05-03T10:10:36.934Z</time></trkpt><trkpt lat="44.1417373" lon="11.3278148"><ele>865.0</ele><time>2026-05-03T10:10:37.942Z</time></trkpt><trkpt lat="44.1416032" lon="11.3279262"><ele>865.0</ele><time>2026-05-03T10:10:38.943Z</time></trkpt><trkpt lat="44.1414741" lon="11.3280267"><ele>863.5</ele><time>2026-05-03T10:10:39.94Z</time></trkpt><trkpt lat="44.1413564" lon="11.3281201"><ele>862.0</ele><time>2026-05-03T10:10:40.94Z</time></trkpt><trkpt lat="44.141256" lon="11.3282106"><ele>860.5</ele><time>2026-05-03T10:10:41.944Z</time></trkpt><trkpt lat="44.141162" lon="11.3282993"><ele>859.0</ele><time>2026-05-03T10:10:42.938Z</time></trkpt><trkpt lat="44.1410678" lon="11.3283718"><ele>859.0</ele><time>2026-05-03T10:10:43.943Z</time></trkpt><trkpt lat="44.1409733" lon="11.3284453"><ele>859.0000000000001</ele><time>2026-05-03T10:10:44.94Z</time></trkpt><trkpt lat="44.1408842" lon="11.3285177"><ele>859.0000000000001</ele><time>2026-05-03T10:10:45.945Z</time></trkpt><trkpt lat="44.1408009" lon="11.3285706"><ele>859.0</ele><time>2026-05-03T10:10:46.941Z</time></trkpt><trkpt lat="44.1407176" lon="11.3286055"><ele>859.0</ele><time>2026-05-03T10:10:47.946Z</time></trkpt><trkpt lat="44.1406334" lon="11.3286194"><ele>856.0</ele><time>2026-05-03T10:10:48.927Z</time></trkpt><trkpt lat="44.140553" lon="11.3285817"><ele>853.0000000000001</ele><time>2026-05-03T10:10:49.933Z</time></trkpt><trkpt lat="44.1404875" lon="11.3284763"><ele>850.0</ele><time>2026-05-03T10:10:50.936Z</time></trkpt><trkpt lat="44.1404428" lon="11.32832"><ele>847.0</ele><time>2026-05-03T10:10:51.929Z</time></trkpt><trkpt lat="44.1404239" lon="11.3281314"><ele>844.0</ele><time>2026-05-03T10:10:52.941Z</time></trkpt><trkpt lat="44.1404227" lon="11.3279537"><ele>844.0</ele><time>2026-05-03T10:10:53.914Z</time></trkpt><trkpt lat="44.1404351" lon="11.3277847"><ele>844.0</ele><time>2026-05-03T10:10:54.912Z</time></trkpt><trkpt lat="44.1404708" lon="11.3276315"><ele>844.0</ele><time>2026-05-03T10:10:55.922Z</time></trkpt><trkpt lat="44.1405374" lon="11.3274969"><ele>844.0</ele><time>2026-05-03T10:10:56.921Z</time></trkpt><trkpt lat="44.1406465" lon="11.3273726"><ele>844.6666666666666</ele><time>2026-05-03T10:10:57.922Z</time></trkpt><trkpt lat="44.1407842" lon="11.3272708"><ele>845.3333333333333</ele><time>2026-05-03T10:10:58.92Z</time></trkpt><trkpt lat="44.1409188" lon="11.3271741"><ele>846.0</ele><time>2026-05-03T10:10:59.922Z</time></trkpt><trkpt lat="44.1410472" lon="11.3270784"><ele>846.0</ele><time>2026-05-03T10:11:00.928Z</time></trkpt><trkpt lat="44.141167" lon="11.3269942"><ele>846.0</ele><time>2026-05-03T10:11:01.921Z</time></trkpt><trkpt lat="44.1412658" lon="11.3269015"><ele>846.0</ele><time>2026-05-03T10:11:02.918Z</time></trkpt><trkpt lat="44.141354" lon="11.3267952"><ele>846.0</ele><time>2026-05-03T10:11:03.916Z</time></trkpt><trkpt lat="44.1414108" lon="11.3266609"><ele>846.0</ele><time>2026-05-03T10:11:04.917Z</time></trkpt><trkpt lat="44.1414262" lon="11.3264954"><ele>846.0</ele><time>2026-05-03T10:11:05.917Z</time></trkpt><trkpt lat="44.1414102" lon="11.3263091"><ele>846.0</ele><time>2026-05-03T10:11:06.915Z</time></trkpt><trkpt lat="44.1413552" lon="11.3261172"><ele>846.0</ele><time>2026-05-03T10:11:07.91Z</time></trkpt><trkpt lat="44.1412872" lon="11.3259347"><ele>846.0</ele><time>2026-05-03T10:11:08.912Z</time></trkpt><trkpt lat="44.1412126" lon="11.3257631"><ele>846.0</ele><time>2026-05-03T10:11:09.905Z</time></trkpt><trkpt lat="44.1411474" lon="11.3256028"><ele>846.0</ele><time>2026-05-03T10:11:10.915Z</time></trkpt><trkpt lat="44.141093" lon="11.3254536"><ele>846.0</ele><time>2026-05-03T10:11:11.916Z</time></trkpt><trkpt lat="44.141056" lon="11.3253117"><ele>845.5</ele><time>2026-05-03T10:11:12.918Z</time></trkpt><trkpt lat="44.1410439" lon="11.3251604"><ele>845.0</ele><time>2026-05-03T10:11:13.919Z</time></trkpt><trkpt lat="44.1410528" lon="11.325009"><ele>844.5</ele><time>2026-05-03T10:11:14.909Z</time></trkpt><trkpt lat="44.1410901" lon="11.3248502"><ele>844.0</ele><time>2026-05-03T10:11:15.917Z</time></trkpt><trkpt lat="44.1411296" lon="11.3246788"><ele>843.25</ele><time>2026-05-03T10:11:16.909Z</time></trkpt><trkpt lat="44.1411727" lon="11.3244989"><ele>842.5</ele><time>2026-05-03T10:11:17.923Z</time></trkpt><trkpt lat="44.1412119" lon="11.3243117"><ele>841.75</ele><time>2026-05-03T10:11:18.908Z</time></trkpt><trkpt lat="44.1412433" lon="11.3241207"><ele>841.0</ele><time>2026-05-03T10:11:19.917Z</time></trkpt><trkpt lat="44.1412636" lon="11.3239271"><ele>841.0</ele><time>2026-05-03T10:11:20.918Z</time></trkpt><trkpt lat="44.1412723" lon="11.3237284"><ele>841.0</ele><time>2026-05-03T10:11:21.91Z</time></trkpt><trkpt lat="44.1412491" lon="11.3235401"><ele>841.0</ele><time>2026-05-03T10:11:22.915Z</time></trkpt><trkpt lat="44.1412024" lon="11.3233633"><ele>841.0</ele><time>2026-05-03T10:11:23.926Z</time></trkpt><trkpt lat="44.1411269" lon="11.3231845"><ele>842.3333333333333</ele><time>2026-05-03T10:11:24.919Z</time></trkpt><trkpt lat="44.1410418" lon="11.3230068"><ele>843.6666666666667</ele><time>2026-05-03T10:11:25.914Z</time></trkpt><trkpt lat="44.1409691" lon="11.3228285"><ele>845.0</ele><time>2026-05-03T10:11:26.922Z</time></trkpt><trkpt lat="44.1408996" lon="11.3226413"><ele>845.0</ele><time>2026-05-03T10:11:27.919Z</time></trkpt><trkpt lat="44.1408355" lon="11.3224744"><ele>845.0</ele><time>2026-05-03T10:11:28.925Z</time></trkpt><trkpt lat="44.1407761" lon="11.322316"><ele>845.0</ele><time>2026-05-03T10:11:29.919Z</time></trkpt><trkpt lat="44.1407187" lon="11.3221677"><ele>845.0</ele><time>2026-05-03T10:11:30.928Z</time></trkpt><trkpt lat="44.1406645" lon="11.3220292"><ele>843.6</ele><time>2026-05-03T10:11:31.928Z</time></trkpt><trkpt lat="44.1406166" lon="11.3218967"><ele>842.2</ele><time>2026-05-03T10:11:32.922Z</time></trkpt><trkpt lat="44.1405664" lon="11.3217799"><ele>840.8</ele><time>2026-05-03T10:11:33.916Z</time></trkpt><trkpt lat="44.1404961" lon="11.3216848"><ele>839.4</ele><time>2026-05-03T10:11:34.922Z</time></trkpt><trkpt lat="44.1404119" lon="11.3216153"><ele>838.0</ele><time>2026-05-03T10:11:35.925Z</time></trkpt><trkpt lat="44.1403038" lon="11.3215792"><ele>838.0</ele><time>2026-05-03T10:11:36.927Z</time></trkpt><trkpt lat="44.1401813" lon="11.3215617"><ele>838.0</ele><time>2026-05-03T10:11:37.927Z</time></trkpt><trkpt lat="44.1400571" lon="11.3215556"><ele>838.0</ele><time>2026-05-03T10:11:38.924Z</time></trkpt><trkpt lat="44.1399314" lon="11.3215431"><ele>838.0</ele><time>2026-05-03T10:11:39.921Z</time></trkpt><trkpt lat="44.1398128" lon="11.3215105"><ele>836.0</ele><time>2026-05-03T10:11:40.926Z</time></trkpt><trkpt lat="44.1397058" lon="11.321437"><ele>834.0</ele><time>2026-05-03T10:11:41.927Z</time></trkpt><trkpt lat="44.1396097" lon="11.3213036"><ele>832.0</ele><time>2026-05-03T10:11:42.926Z</time></trkpt><trkpt lat="44.1395123" lon="11.3211533"><ele>830.0</ele><time>2026-05-03T10:11:43.923Z</time></trkpt><trkpt lat="44.1394118" lon="11.3210158"><ele>830.0</ele><time>2026-05-03T10:11:44.919Z</time></trkpt><trkpt lat="44.1393179" lon="11.3208806"><ele>830.0</ele><time>2026-05-03T10:11:45.922Z</time></trkpt><trkpt lat="44.1392272" lon="11.3207549"><ele>830.0</ele><time>2026-05-03T10:11:46.928Z</time></trkpt><trkpt lat="44.1391305" lon="11.3206359"><ele>830.0</ele><time>2026-05-03T10:11:47.926Z</time></trkpt><trkpt lat="44.1390281" lon="11.3205318"><ele>828.6</ele><time>2026-05-03T10:11:48.92Z</time></trkpt><trkpt lat="44.1389262" lon="11.3204517"><ele>827.2</ele><time>2026-05-03T10:11:49.929Z</time></trkpt><trkpt lat="44.1388307" lon="11.320378"><ele>825.8</ele><time>2026-05-03T10:11:50.925Z</time></trkpt><trkpt lat="44.1387431" lon="11.3202992"><ele>824.4</ele><time>2026-05-03T10:11:51.928Z</time></trkpt><trkpt lat="44.1386772" lon="11.3202074"><ele>823.0</ele><time>2026-05-03T10:11:52.931Z</time></trkpt><trkpt lat="44.1386508" lon="11.3200907"><ele>823.0</ele><time>2026-05-03T10:11:53.919Z</time></trkpt><trkpt lat="44.1386502" lon="11.319954"><ele>823.0</ele><time>2026-05-03T10:11:54.933Z</time></trkpt><trkpt lat="44.1386702" lon="11.3198118"><ele>823.0</ele><time>2026-05-03T10:11:55.92Z</time></trkpt><trkpt lat="44.1386949" lon="11.3196654"><ele>823.0</ele><time>2026-05-03T10:11:56.924Z</time></trkpt><trkpt lat="44.1387288" lon="11.3195137"><ele>823.0</ele><time>2026-05-03T10:11:57.916Z</time></trkpt><trkpt lat="44.1387574" lon="11.31936"><ele>821.75</ele><time>2026-05-03T10:11:58.929Z</time></trkpt><trkpt lat="44.1387825" lon="11.3192058"><ele>820.5</ele><time>2026-05-03T10:11:59.91Z</time></trkpt><trkpt lat="44.1388022" lon="11.319048"><ele>819.25</ele><time>2026-05-03T10:12:00.916Z</time></trkpt><trkpt lat="44.1388218" lon="11.3188828"><ele>818.0</ele><time>2026-05-03T10:12:01.917Z</time></trkpt><trkpt lat="44.1388369" lon="11.3187112"><ele>818.0</ele><time>2026-05-03T10:12:02.922Z</time></trkpt><trkpt lat="44.1388422" lon="11.3185373"><ele>818.0</ele><time>2026-05-03T10:12:03.93Z</time></trkpt><trkpt lat="44.1388463" lon="11.3183589"><ele>818.0</ele><time>2026-05-03T10:12:04.928Z</time></trkpt><trkpt lat="44.1388489" lon="11.3181873"><ele>818.0</ele><time>2026-05-03T10:12:05.925Z</time></trkpt><trkpt lat="44.1388583" lon="11.3180132"><ele>819.0</ele><time>2026-05-03T10:12:06.925Z</time></trkpt><trkpt lat="44.1388719" lon="11.3178377"><ele>820.0</ele><time>2026-05-03T10:12:07.926Z</time></trkpt><trkpt lat="44.1388833" lon="11.3176594"><ele>821.0</ele><time>2026-05-03T10:12:08.929Z</time></trkpt><trkpt lat="44.1388777" lon="11.3174823"><ele>822.0</ele><time>2026-05-03T10:12:09.921Z</time></trkpt><trkpt lat="44.1388525" lon="11.3173097"><ele>824.5</ele><time>2026-05-03T10:12:10.927Z</time></trkpt><trkpt lat="44.1387999" lon="11.3171515"><ele>827.0</ele><time>2026-05-03T10:12:11.918Z</time></trkpt><trkpt lat="44.1387415" lon="11.3169983"><ele>829.5</ele><time>2026-05-03T10:12:12.926Z</time></trkpt><trkpt lat="44.1386816" lon="11.3168415"><ele>832.0</ele><time>2026-05-03T10:12:13.922Z</time></trkpt><trkpt lat="44.1386222" lon="11.3166806"><ele>832.0</ele><time>2026-05-03T10:12:14.929Z</time></trkpt><trkpt lat="44.1385673" lon="11.316518"><ele>832.0</ele><time>2026-05-03T10:12:15.925Z</time></trkpt><trkpt lat="44.1385158" lon="11.3163524"><ele>832.0</ele><time>2026-05-03T10:12:16.927Z</time></trkpt><trkpt lat="44.1384775" lon="11.3161806"><ele>832.0</ele><time>2026-05-03T10:12:17.925Z</time></trkpt><trkpt lat="44.1384446" lon="11.3160006"><ele>832.6666666666666</ele><time>2026-05-03T10:12:18.925Z</time></trkpt><trkpt lat="44.1384232" lon="11.3158084"><ele>833.3333333333333</ele><time>2026-05-03T10:12:19.928Z</time></trkpt><trkpt lat="44.1384241" lon="11.3155961"><ele>834.0</ele><time>2026-05-03T10:12:20.925Z</time></trkpt><trkpt lat="44.1384129" lon="11.3153745"><ele>834.6666666666667</ele><time>2026-05-03T10:12:21.925Z</time></trkpt><trkpt lat="44.1384126" lon="11.3151453"><ele>835.3333333333334</ele><time>2026-05-03T10:12:22.924Z</time></trkpt><trkpt lat="44.1384075" lon="11.3149177"><ele>836.0</ele><time>2026-05-03T10:12:23.918Z</time></trkpt><trkpt lat="44.138402" lon="11.3146921"><ele>836.0</ele><time>2026-05-03T10:12:24.913Z</time></trkpt><trkpt lat="44.1383987" lon="11.3144754"><ele>836.0</ele><time>2026-05-03T10:12:25.932Z</time></trkpt><trkpt lat="44.1383942" lon="11.3142789"><ele>836.0</ele><time>2026-05-03T10:12:26.917Z</time></trkpt><trkpt lat="44.138404" lon="11.3140848"><ele>836.0</ele><time>2026-05-03T10:12:27.913Z</time></trkpt><trkpt lat="44.1384161" lon="11.3139018"><ele>836.0</ele><time>2026-05-03T10:12:28.917Z</time></trkpt><trkpt lat="44.1384302" lon="11.313729"><ele>836.0</ele><time>2026-05-03T10:12:29.916Z</time></trkpt><trkpt lat="44.1384484" lon="11.3135602"><ele>836.0</ele><time>2026-05-03T10:12:30.909Z</time></trkpt><trkpt lat="44.1384683" lon="11.3134023"><ele>836.0</ele><time>2026-05-03T10:12:31.917Z</time></trkpt><trkpt lat="44.1384908" lon="11.3132438"><ele>836.0</ele><time>2026-05-03T10:12:32.917Z</time></trkpt><trkpt lat="44.1385055" lon="11.3130858"><ele>836.0</ele><time>2026-05-03T10:12:33.919Z</time></trkpt><trkpt lat="44.1385173" lon="11.3129255"><ele>836.0</ele><time>2026-05-03T10:12:34.915Z</time></trkpt><trkpt lat="44.1385247" lon="11.3127619"><ele>836.0</ele><time>2026-05-03T10:12:35.915Z</time></trkpt><trkpt lat="44.1385064" lon="11.312601"><ele>837.0</ele><time>2026-05-03T10:12:36.92Z</time></trkpt><trkpt lat="44.1384505" lon="11.3124547"><ele>838.0</ele><time>2026-05-03T10:12:37.919Z</time></trkpt><trkpt lat="44.1383665" lon="11.3123322"><ele>839.0</ele><time>2026-05-03T10:12:38.92Z</time></trkpt><trkpt lat="44.1382828" lon="11.3122196"><ele>840.0</ele><time>2026-05-03T10:12:39.913Z</time></trkpt><trkpt lat="44.1382113" lon="11.3121141"><ele>841.8</ele><time>2026-05-03T10:12:40.922Z</time></trkpt><trkpt lat="44.1381749" lon="11.3119951"><ele>843.6</ele><time>2026-05-03T10:12:41.919Z</time></trkpt><trkpt lat="44.138166" lon="11.3118618"><ele>845.4000000000001</ele><time>2026-05-03T10:12:42.918Z</time></trkpt><trkpt lat="44.1381845" lon="11.3117162"><ele>847.2</ele><time>2026-05-03T10:12:43.911Z</time></trkpt><trkpt lat="44.1382262" lon="11.3115609"><ele>849.0</ele><time>2026-05-03T10:12:44.924Z</time></trkpt><trkpt lat="44.1382717" lon="11.3114045"><ele>850.6</ele><time>2026-05-03T10:12:45.925Z</time></trkpt><trkpt lat="44.1383144" lon="11.3112546"><ele>852.2</ele><time>2026-05-03T10:12:46.921Z</time></trkpt><trkpt lat="44.1383383" lon="11.3111057"><ele>853.8000000000001</ele><time>2026-05-03T10:12:47.919Z</time></trkpt><trkpt lat="44.138339" lon="11.3109577"><ele>855.4000000000001</ele><time>2026-05-03T10:12:48.927Z</time></trkpt><trkpt lat="44.1383004" lon="11.3108105"><ele>857.0</ele><time>2026-05-03T10:12:49.925Z</time></trkpt><trkpt lat="44.1382366" lon="11.3106563"><ele>855.5</ele><time>2026-05-03T10:12:50.925Z</time></trkpt><trkpt lat="44.1381752" lon="11.3104926"><ele>854.0</ele><time>2026-05-03T10:12:51.912Z</time></trkpt><trkpt lat="44.1381128" lon="11.3103181"><ele>852.5</ele><time>2026-05-03T10:12:52.928Z</time></trkpt><trkpt lat="44.138047" lon="11.3101333"><ele>851.0</ele><time>2026-05-03T10:12:53.914Z</time></trkpt><trkpt lat="44.1379885" lon="11.3099367"><ele>852.0</ele><time>2026-05-03T10:12:54.922Z</time></trkpt><trkpt lat="44.1379451" lon="11.3097329"><ele>853.0</ele><time>2026-05-03T10:12:55.916Z</time></trkpt><trkpt lat="44.1379122" lon="11.309542"><ele>854.0</ele><time>2026-05-03T10:12:56.93Z</time></trkpt><trkpt lat="44.1378804" lon="11.3093551"><ele>855.0</ele><time>2026-05-03T10:12:57.918Z</time></trkpt><trkpt lat="44.1378276" lon="11.3091913"><ele>855.0</ele><time>2026-05-03T10:12:58.923Z</time></trkpt><trkpt lat="44.1377549" lon="11.3090683"><ele>855.0</ele><time>2026-05-03T10:12:59.922Z</time></trkpt><trkpt lat="44.137645" lon="11.3089851"><ele>855.0</ele><time>2026-05-03T10:13:00.92Z</time></trkpt><trkpt lat="44.1375101" lon="11.308913"><ele>855.0</ele><time>2026-05-03T10:13:01.917Z</time></trkpt><trkpt lat="44.1373746" lon="11.3088387"><ele>856.0</ele><time>2026-05-03T10:13:02.913Z</time></trkpt><trkpt lat="44.1372453" lon="11.3087558"><ele>857.0</ele><time>2026-05-03T10:13:03.913Z</time></trkpt><trkpt lat="44.1371381" lon="11.3086688"><ele>858.0</ele><time>2026-05-03T10:13:04.913Z</time></trkpt><trkpt lat="44.1370296" lon="11.308595"><ele>859.0</ele><time>2026-05-03T10:13:05.916Z</time></trkpt><trkpt lat="44.1369349" lon="11.3085409"><ele>858.9999999999999</ele><time>2026-05-03T10:13:06.915Z</time></trkpt><trkpt lat="44.1368533" lon="11.3084794"><ele>859.0</ele><time>2026-05-03T10:13:07.92Z</time></trkpt><trkpt lat="44.1368008" lon="11.3084162"><ele>859.0</ele><time>2026-05-03T10:13:08.913Z</time></trkpt><trkpt lat="44.1367439" lon="11.3083524"><ele>859.0</ele><time>2026-05-03T10:13:10.923Z</time></trkpt><trkpt lat="44.1366558" lon="11.3082674"><ele>858.9999999999999</ele><time>2026-05-03T10:13:12.923Z</time></trkpt><trkpt lat="44.1366055" lon="11.3082084"><ele>859.0</ele><time>2026-05-03T10:13:13.923Z</time></trkpt><trkpt lat="44.1365509" lon="11.3081301"><ele>858.25</ele><time>2026-05-03T10:13:14.917Z</time></trkpt><trkpt lat="44.1364925" lon="11.3080302"><ele>857.5</ele><time>2026-05-03T10:13:15.924Z</time></trkpt><trkpt lat="44.1364312" lon="11.307897"><ele>856.75</ele><time>2026-05-03T10:13:16.92Z</time></trkpt><trkpt lat="44.1363646" lon="11.3077524"><ele>856.0</ele><time>2026-05-03T10:13:17.92Z</time></trkpt><trkpt lat="44.1363008" lon="11.3075981"><ele>856.0</ele><time>2026-05-03T10:13:18.918Z</time></trkpt><trkpt lat="44.1362386" lon="11.3074411"><ele>856.0</ele><time>2026-05-03T10:13:19.918Z</time></trkpt><trkpt lat="44.1361849" lon="11.3072759"><ele>856.0</ele><time>2026-05-03T10:13:20.92Z</time></trkpt><trkpt lat="44.1361368" lon="11.3070918"><ele>856.0</ele><time>2026-05-03T10:13:21.918Z</time></trkpt><trkpt lat="44.1360899" lon="11.3069064"><ele>857.75</ele><time>2026-05-03T10:13:22.923Z</time></trkpt><trkpt lat="44.1360331" lon="11.3067246"><ele>859.5</ele><time>2026-05-03T10:13:23.913Z</time></trkpt><trkpt lat="44.135961" lon="11.306554"><ele>861.25</ele><time>2026-05-03T10:13:24.91Z</time></trkpt><trkpt lat="44.1358743" lon="11.3063969"><ele>863.0</ele><time>2026-05-03T10:13:25.907Z</time></trkpt><trkpt lat="44.1357828" lon="11.306257"><ele>868.0</ele><time>2026-05-03T10:13:26.913Z</time></trkpt><trkpt lat="44.1356788" lon="11.3061436"><ele>873.0</ele><time>2026-05-03T10:13:27.929Z</time></trkpt><trkpt lat="44.1355622" lon="11.3060716"><ele>878.0</ele><time>2026-05-03T10:13:28.918Z</time></trkpt><trkpt lat="44.1354399" lon="11.3060359"><ele>883.0</ele><time>2026-05-03T10:13:29.904Z</time></trkpt><trkpt lat="44.1353076" lon="11.3060196"><ele>883.0</ele><time>2026-05-03T10:13:30.909Z</time></trkpt><trkpt lat="44.1351718" lon="11.3060106"><ele>883.0</ele><time>2026-05-03T10:13:31.907Z</time></trkpt><trkpt lat="44.1350312" lon="11.3059986"><ele>883.0</ele><time>2026-05-03T10:13:32.904Z</time></trkpt><trkpt lat="44.1348909" lon="11.3059695"><ele>883.0</ele><time>2026-05-03T10:13:33.916Z</time></trkpt><trkpt lat="44.1347494" lon="11.3059378"><ele>880.0</ele><time>2026-05-03T10:13:34.909Z</time></trkpt><trkpt lat="44.1346007" lon="11.3059102"><ele>877.0</ele><time>2026-05-03T10:13:35.916Z</time></trkpt><trkpt lat="44.1344635" lon="11.3058692"><ele>874.0</ele><time>2026-05-03T10:13:36.91Z</time></trkpt><trkpt lat="44.1343387" lon="11.3057986"><ele>871.0</ele><time>2026-05-03T10:13:37.911Z</time></trkpt><trkpt lat="44.1342235" lon="11.3056889"><ele>874.4</ele><time>2026-05-03T10:13:38.909Z</time></trkpt><trkpt lat="44.1341148" lon="11.3055769"><ele>877.8</ele><time>2026-05-03T10:13:39.914Z</time></trkpt><trkpt lat="44.1340201" lon="11.305484"><ele>881.1999999999999</ele><time>2026-05-03T10:13:40.912Z</time></trkpt><trkpt lat="44.1339435" lon="11.3054056"><ele>884.5999999999999</ele><time>2026-05-03T10:13:41.92Z</time></trkpt><trkpt lat="44.1338792" lon="11.3053067"><ele>888.0</ele><time>2026-05-03T10:13:42.915Z</time></trkpt><trkpt lat="44.1338331" lon="11.3051875"><ele>888.0</ele><time>2026-05-03T10:13:43.924Z</time></trkpt><trkpt lat="44.1338097" lon="11.3050401"><ele>888.0</ele><time>2026-05-03T10:13:44.911Z</time></trkpt><trkpt lat="44.1338001" lon="11.3048796"><ele>888.0</ele><time>2026-05-03T10:13:45.914Z</time></trkpt><trkpt lat="44.1337719" lon="11.304727"><ele>888.0</ele><time>2026-05-03T10:13:46.911Z</time></trkpt><trkpt lat="44.133717" lon="11.3045969"><ele>888.0</ele><time>2026-05-03T10:13:47.927Z</time></trkpt><trkpt lat="44.133641" lon="11.3045048"><ele>895.75</ele><time>2026-05-03T10:13:48.915Z</time></trkpt><trkpt lat="44.1335465" lon="11.304479"><ele>903.5</ele><time>2026-05-03T10:13:49.915Z</time></trkpt><trkpt lat="44.1334369" lon="11.3045264"><ele>911.25</ele><time>2026-05-03T10:13:50.914Z</time></trkpt><trkpt lat="44.1333097" lon="11.3046243"><ele>919.0</ele><time>2026-05-03T10:13:51.907Z</time></trkpt><trkpt lat="44.1331675" lon="11.3047163"><ele>911.0</ele><time>2026-05-03T10:13:52.914Z</time></trkpt><trkpt lat="44.1330197" lon="11.304806"><ele>903.0</ele><time>2026-05-03T10:13:53.912Z</time></trkpt><trkpt lat="44.1328542" lon="11.3048906"><ele>895.0</ele><time>2026-05-03T10:13:54.912Z</time></trkpt><trkpt lat="44.1326781" lon="11.3049334"><ele>895.0</ele><time>2026-05-03T10:13:55.91Z</time></trkpt><trkpt lat="44.1325136" lon="11.3049821"><ele>895.0</ele><time>2026-05-03T10:13:56.915Z</time></trkpt><trkpt lat="44.1323737" lon="11.3049781"><ele>895.0</ele><time>2026-05-03T10:13:57.907Z</time></trkpt><trkpt lat="44.1322292" lon="11.3049615"><ele>893.0</ele><time>2026-05-03T10:13:58.933Z</time></trkpt><trkpt lat="44.1320954" lon="11.3049043"><ele>891.0</ele><time>2026-05-03T10:13:59.905Z</time></trkpt><trkpt lat="44.1319683" lon="11.3047977"><ele>889.0</ele><time>2026-05-03T10:14:00.911Z</time></trkpt><trkpt lat="44.1318449" lon="11.3047013"><ele>887.0</ele><time>2026-05-03T10:14:01.913Z</time></trkpt><trkpt lat="44.1317114" lon="11.3045771"><ele>892.0</ele><time>2026-05-03T10:14:02.906Z</time></trkpt><trkpt lat="44.1315942" lon="11.304453"><ele>897.0</ele><time>2026-05-03T10:14:03.914Z</time></trkpt><trkpt lat="44.131456" lon="11.3043498"><ele>902.0</ele><time>2026-05-03T10:14:04.91Z</time></trkpt><trkpt lat="44.1312913" lon="11.304275"><ele>902.0</ele><time>2026-05-03T10:14:05.911Z</time></trkpt><trkpt lat="44.1311005" lon="11.3042373"><ele>902.0</ele><time>2026-05-03T10:14:06.905Z</time></trkpt><trkpt lat="44.1309132" lon="11.3041929"><ele>902.0</ele><time>2026-05-03T10:14:07.924Z</time></trkpt><trkpt lat="44.1307213" lon="11.3041298"><ele>900.0</ele><time>2026-05-03T10:14:08.91Z</time></trkpt><trkpt lat="44.1305366" lon="11.3040624"><ele>898.0</ele><time>2026-05-03T10:14:09.911Z</time></trkpt><trkpt lat="44.1303613" lon="11.3040073"><ele>896.0</ele><time>2026-05-03T10:14:10.916Z</time></trkpt><trkpt lat="44.1301939" lon="11.3039261"><ele>903.3333333333334</ele><time>2026-05-03T10:14:11.913Z</time></trkpt><trkpt lat="44.1300324" lon="11.3038474"><ele>910.6666666666667</ele><time>2026-05-03T10:14:12.92Z</time></trkpt><trkpt lat="44.1298676" lon="11.3037707"><ele>918.0</ele><time>2026-05-03T10:14:13.916Z</time></trkpt><trkpt lat="44.1297052" lon="11.3036907"><ele>918.0</ele><time>2026-05-03T10:14:14.914Z</time></trkpt><trkpt lat="44.1295594" lon="11.3036186"><ele>918.0</ele><time>2026-05-03T10:14:15.911Z</time></trkpt><trkpt lat="44.1294379" lon="11.3035795"><ele>918.0</ele><time>2026-05-03T10:14:16.921Z</time></trkpt><trkpt lat="44.1293314" lon="11.3035689"><ele>918.0</ele><time>2026-05-03T10:14:17.914Z</time></trkpt><trkpt lat="44.1292111" lon="11.3036126"><ele>918.0</ele><time>2026-05-03T10:14:18.908Z</time></trkpt><trkpt lat="44.1290923" lon="11.3036226"><ele>918.0</ele><time>2026-05-03T10:14:19.91Z</time></trkpt><trkpt lat="44.1289958" lon="11.3035796"><ele>918.0</ele><time>2026-05-03T10:14:20.917Z</time></trkpt><trkpt lat="44.1289668" lon="11.3034347"><ele>918.0</ele><time>2026-05-03T10:14:21.912Z</time></trkpt><trkpt lat="44.1289576" lon="11.3031977"><ele>920.3333333333333</ele><time>2026-05-03T10:14:22.911Z</time></trkpt><trkpt lat="44.1288935" lon="11.3029861"><ele>922.6666666666666</ele><time>2026-05-03T10:14:23.894Z</time></trkpt><trkpt lat="44.1288102" lon="11.3027972"><ele>925.0</ele><time>2026-05-03T10:14:24.905Z</time></trkpt><trkpt lat="44.1287058" lon="11.302641"><ele>925.0</ele><time>2026-05-03T10:14:25.911Z</time></trkpt><trkpt lat="44.1285685" lon="11.3025211"><ele>925.0</ele><time>2026-05-03T10:14:26.906Z</time></trkpt><trkpt lat="44.1284268" lon="11.3024016"><ele>925.0</ele><time>2026-05-03T10:14:27.908Z</time></trkpt><trkpt lat="44.128281" lon="11.3023174"><ele>926.6666666666666</ele><time>2026-05-03T10:14:28.914Z</time></trkpt><trkpt lat="44.1281283" lon="11.3022499"><ele>928.3333333333333</ele><time>2026-05-03T10:14:29.925Z</time></trkpt><trkpt lat="44.1279797" lon="11.302176"><ele>930.0</ele><time>2026-05-03T10:14:30.911Z</time></trkpt><trkpt lat="44.1278354" lon="11.3020953"><ele>930.0</ele><time>2026-05-03T10:14:31.915Z</time></trkpt><trkpt lat="44.1276963" lon="11.3020074"><ele>930.0</ele><time>2026-05-03T10:14:32.916Z</time></trkpt><trkpt lat="44.1275581" lon="11.3018984"><ele>930.0</ele><time>2026-05-03T10:14:33.912Z</time></trkpt><trkpt lat="44.127424" lon="11.3017585"><ele>930.6666666666667</ele><time>2026-05-03T10:14:34.907Z</time></trkpt><trkpt lat="44.1272918" lon="11.3015867"><ele>931.3333333333334</ele><time>2026-05-03T10:14:35.915Z</time></trkpt><trkpt lat="44.1271605" lon="11.3014375"><ele>932.0</ele><time>2026-05-03T10:14:36.924Z</time></trkpt><trkpt lat="44.1270414" lon="11.301299"><ele>932.0</ele><time>2026-05-03T10:14:37.92Z</time></trkpt><trkpt lat="44.1269164" lon="11.3011613"><ele>932.0</ele><time>2026-05-03T10:14:38.92Z</time></trkpt><trkpt lat="44.126783" lon="11.3010417"><ele>932.0</ele><time>2026-05-03T10:14:39.919Z</time></trkpt><trkpt lat="44.1266429" lon="11.3009259"><ele>928.0</ele><time>2026-05-03T10:14:40.922Z</time></trkpt><trkpt lat="44.1264903" lon="11.3008277"><ele>924.0</ele><time>2026-05-03T10:14:41.913Z</time></trkpt><trkpt lat="44.1263355" lon="11.3007502"><ele>920.0</ele><time>2026-05-03T10:14:42.916Z</time></trkpt><trkpt lat="44.126182" lon="11.3006869"><ele>920.0</ele><time>2026-05-03T10:14:43.912Z</time></trkpt><trkpt lat="44.1260124" lon="11.3006481"><ele>920.0</ele><time>2026-05-03T10:14:44.912Z</time></trkpt><trkpt lat="44.125821" lon="11.3006133"><ele>920.0</ele><time>2026-05-03T10:14:45.907Z</time></trkpt><trkpt lat="44.1256178" lon="11.3006027"><ele>928.5</ele><time>2026-05-03T10:14:46.918Z</time></trkpt><trkpt lat="44.1254126" lon="11.3005785"><ele>937.0</ele><time>2026-05-03T10:14:48.08Z</time></trkpt><trkpt lat="44.1250531" lon="11.3005307"><ele>935.6666666666666</ele><time>2026-05-03T10:14:49.917Z</time></trkpt><trkpt lat="44.1248842" lon="11.3005116"><ele>934.3333333333333</ele><time>2026-05-03T10:14:50.914Z</time></trkpt><trkpt lat="44.1247237" lon="11.3005003"><ele>933.0</ele><time>2026-05-03T10:14:51.916Z</time></trkpt><trkpt lat="44.1245661" lon="11.3005339"><ele>926.3333333333333</ele><time>2026-05-03T10:14:52.919Z</time></trkpt><trkpt lat="44.1244027" lon="11.3005936"><ele>919.6666666666666</ele><time>2026-05-03T10:14:53.908Z</time></trkpt><trkpt lat="44.1242528" lon="11.3006713"><ele>913.0</ele><time>2026-05-03T10:14:54.915Z</time></trkpt><trkpt lat="44.1241147" lon="11.3007318"><ele>913.25</ele><time>2026-05-03T10:14:55.907Z</time></trkpt><trkpt lat="44.1239818" lon="11.3007759"><ele>913.5</ele><time>2026-05-03T10:14:56.914Z</time></trkpt><trkpt lat="44.1238351" lon="11.3008169"><ele>913.75</ele><time>2026-05-03T10:14:57.911Z</time></trkpt><trkpt lat="44.1236798" lon="11.3008208"><ele>914.0</ele><time>2026-05-03T10:14:58.908Z</time></trkpt><trkpt lat="44.1235329" lon="11.3007992"><ele>914.0</ele><time>2026-05-03T10:14:59.916Z</time></trkpt><trkpt lat="44.123394" lon="11.3007608"><ele>914.0</ele><time>2026-05-03T10:15:00.922Z</time></trkpt><trkpt lat="44.1232432" lon="11.300728"><ele>914.0</ele><time>2026-05-03T10:15:01.906Z</time></trkpt><trkpt lat="44.1231062" lon="11.3006857"><ele>914.0</ele><time>2026-05-03T10:15:02.903Z</time></trkpt><trkpt lat="44.1229866" lon="11.3006246"><ele>910.25</ele><time>2026-05-03T10:15:03.907Z</time></trkpt><trkpt lat="44.1228788" lon="11.3005651"><ele>906.5</ele><time>2026-05-03T10:15:04.901Z</time></trkpt><trkpt lat="44.122776" lon="11.3004616"><ele>902.75</ele><time>2026-05-03T10:15:05.905Z</time></trkpt><trkpt lat="44.122687" lon="11.3002899"><ele>899.0</ele><time>2026-05-03T10:15:06.904Z</time></trkpt><trkpt lat="44.1226181" lon="11.3000655"><ele>899.0</ele><time>2026-05-03T10:15:07.906Z</time></trkpt><trkpt lat="44.1225549" lon="11.2998371"><ele>899.0</ele><time>2026-05-03T10:15:08.911Z</time></trkpt><trkpt lat="44.1224708" lon="11.2996303"><ele>899.0</ele><time>2026-05-03T10:15:09.909Z</time></trkpt><trkpt lat="44.1223798" lon="11.299421"><ele>894.3333333333334</ele><time>2026-05-03T10:15:10.912Z</time></trkpt><trkpt lat="44.1222862" lon="11.2992125"><ele>889.6666666666667</ele><time>2026-05-03T10:15:11.913Z</time></trkpt><trkpt lat="44.1221919" lon="11.2989989"><ele>885.0</ele><time>2026-05-03T10:15:12.911Z</time></trkpt><trkpt lat="44.1221127" lon="11.2987877"><ele>885.0</ele><time>2026-05-03T10:15:13.915Z</time></trkpt><trkpt lat="44.1220447" lon="11.2985827"><ele>885.0</ele><time>2026-05-03T10:15:14.919Z</time></trkpt><trkpt lat="44.1220003" lon="11.2983608"><ele>885.0</ele><time>2026-05-03T10:15:15.903Z</time></trkpt><trkpt lat="44.1219789" lon="11.2981461"><ele>885.3333333333333</ele><time>2026-05-03T10:15:16.901Z</time></trkpt><trkpt lat="44.1219834" lon="11.2978999"><ele>885.6666666666666</ele><time>2026-05-03T10:15:17.906Z</time></trkpt><trkpt lat="44.1220021" lon="11.2976449"><ele>886.0</ele><time>2026-05-03T10:15:18.908Z</time></trkpt><trkpt lat="44.1220217" lon="11.2973754"><ele>885.0</ele><time>2026-05-03T10:15:19.913Z</time></trkpt><trkpt lat="44.1220319" lon="11.2971253"><ele>884.0</ele><time>2026-05-03T10:15:20.906Z</time></trkpt><trkpt lat="44.1220403" lon="11.2969001"><ele>883.0</ele><time>2026-05-03T10:15:21.899Z</time></trkpt><trkpt lat="44.1220494" lon="11.2966795"><ele>883.0</ele><time>2026-05-03T10:15:22.903Z</time></trkpt><trkpt lat="44.122063" lon="11.2964714"><ele>883.0</ele><time>2026-05-03T10:15:23.907Z</time></trkpt><trkpt lat="44.1220716" lon="11.2962826"><ele>883.0</ele><time>2026-05-03T10:15:24.897Z</time></trkpt><trkpt lat="44.1220508" lon="11.296107"><ele>883.0</ele><time>2026-05-03T10:15:25.892Z</time></trkpt><trkpt lat="44.1220094" lon="11.2959412"><ele>883.75</ele><time>2026-05-03T10:15:26.893Z</time></trkpt><trkpt lat="44.1219135" lon="11.2958102"><ele>884.5</ele><time>2026-05-03T10:15:27.891Z</time></trkpt><trkpt lat="44.1217932" lon="11.2956971"><ele>885.25</ele><time>2026-05-03T10:15:28.894Z</time></trkpt><trkpt lat="44.1216453" lon="11.2956279"><ele>886.0</ele><time>2026-05-03T10:15:29.892Z</time></trkpt><trkpt lat="44.1215078" lon="11.2955528"><ele>879.3333333333333</ele><time>2026-05-03T10:15:30.892Z</time></trkpt><trkpt lat="44.1213897" lon="11.2954275"><ele>872.6666666666667</ele><time>2026-05-03T10:15:31.909Z</time></trkpt><trkpt lat="44.1212644" lon="11.2952376"><ele>866.0</ele><time>2026-05-03T10:15:32.894Z</time></trkpt><trkpt lat="44.1211502" lon="11.2950616"><ele>866.0</ele><time>2026-05-03T10:15:33.889Z</time></trkpt><trkpt lat="44.1210379" lon="11.2948633"><ele>866.0</ele><time>2026-05-03T10:15:34.892Z</time></trkpt><trkpt lat="44.1209183" lon="11.294659"><ele>866.0</ele><time>2026-05-03T10:15:35.897Z</time></trkpt><trkpt lat="44.1208108" lon="11.2944318"><ele>864.3333333333334</ele><time>2026-05-03T10:15:36.893Z</time></trkpt><trkpt lat="44.1207319" lon="11.2941858"><ele>862.6666666666667</ele><time>2026-05-03T10:15:37.904Z</time></trkpt><trkpt lat="44.12064" lon="11.2939451"><ele>861.0</ele><time>2026-05-03T10:15:38.896Z</time></trkpt><trkpt lat="44.1205358" lon="11.2937327"><ele>861.0</ele><time>2026-05-03T10:15:39.888Z</time></trkpt><trkpt lat="44.1204267" lon="11.2935346"><ele>861.0</ele><time>2026-05-03T10:15:40.898Z</time></trkpt><trkpt lat="44.1202793" lon="11.29337"><ele>861.0</ele><time>2026-05-03T10:15:41.898Z</time></trkpt><trkpt lat="44.1201204" lon="11.2932037"><ele>860.6666666666667</ele><time>2026-05-03T10:15:42.902Z</time></trkpt><trkpt lat="44.1199573" lon="11.2930281"><ele>860.3333333333334</ele><time>2026-05-03T10:15:43.897Z</time></trkpt><trkpt lat="44.1198057" lon="11.292861"><ele>860.0</ele><time>2026-05-03T10:15:44.895Z</time></trkpt><trkpt lat="44.119665" lon="11.292703"><ele>860.0</ele><time>2026-05-03T10:15:45.895Z</time></trkpt><trkpt lat="44.1195438" lon="11.292572"><ele>860.0</ele><time>2026-05-03T10:15:46.891Z</time></trkpt><trkpt lat="44.1194391" lon="11.2924244"><ele>860.0</ele><time>2026-05-03T10:15:47.908Z</time></trkpt><trkpt lat="44.1193412" lon="11.2922672"><ele>860.6666666666667</ele><time>2026-05-03T10:15:48.896Z</time></trkpt><trkpt lat="44.1192522" lon="11.2920787"><ele>861.3333333333333</ele><time>2026-05-03T10:15:49.899Z</time></trkpt><trkpt lat="44.1191855" lon="11.2918453"><ele>862.0</ele><time>2026-05-03T10:15:50.907Z</time></trkpt><trkpt lat="44.1191522" lon="11.2915927"><ele>862.6666666666666</ele><time>2026-05-03T10:15:51.906Z</time></trkpt><trkpt lat="44.1191637" lon="11.291313"><ele>863.3333333333333</ele><time>2026-05-03T10:15:52.901Z</time></trkpt><trkpt lat="44.1191844" lon="11.2910335"><ele>864.0</ele><time>2026-05-03T10:15:53.896Z</time></trkpt><trkpt lat="44.1191914" lon="11.2907467"><ele>866.0</ele><time>2026-05-03T10:15:54.905Z</time></trkpt><trkpt lat="44.1192027" lon="11.2904778"><ele>868.0</ele><time>2026-05-03T10:15:55.896Z</time></trkpt><trkpt lat="44.1192139" lon="11.2902117"><ele>870.0</ele><time>2026-05-03T10:15:56.898Z</time></trkpt><trkpt lat="44.1192204" lon="11.2899681"><ele>869.75</ele><time>2026-05-03T10:15:57.902Z</time></trkpt><trkpt lat="44.119206" lon="11.2897502"><ele>869.5</ele><time>2026-05-03T10:15:58.908Z</time></trkpt><trkpt lat="44.1191789" lon="11.2895591"><ele>869.25</ele><time>2026-05-03T10:15:59.9Z</time></trkpt><trkpt lat="44.1191214" lon="11.2893731"><ele>869.0</ele><time>2026-05-03T10:16:00.899Z</time></trkpt><trkpt lat="44.1190144" lon="11.2892198"><ele>869.0</ele><time>2026-05-03T10:16:01.898Z</time></trkpt><trkpt lat="44.1188648" lon="11.2891032"><ele>869.0</ele><time>2026-05-03T10:16:02.918Z</time></trkpt><trkpt lat="44.1186775" lon="11.2889818"><ele>869.0</ele><time>2026-05-03T10:16:03.894Z</time></trkpt><trkpt lat="44.1185039" lon="11.2888598"><ele>871.0</ele><time>2026-05-03T10:16:04.893Z</time></trkpt><trkpt lat="44.1183431" lon="11.2887252"><ele>873.0</ele><time>2026-05-03T10:16:05.899Z</time></trkpt><trkpt lat="44.1181966" lon="11.288602"><ele>875.0</ele><time>2026-05-03T10:16:06.905Z</time></trkpt><trkpt lat="44.1180561" lon="11.2884793"><ele>870.0</ele><time>2026-05-03T10:16:07.901Z</time></trkpt><trkpt lat="44.1179177" lon="11.2883551"><ele>865.0</ele><time>2026-05-03T10:16:08.904Z</time></trkpt><trkpt lat="44.1177909" lon="11.2882274"><ele>860.0</ele><time>2026-05-03T10:16:09.908Z</time></trkpt><trkpt lat="44.1176718" lon="11.2880473"><ele>860.0</ele><time>2026-05-03T10:16:10.91Z</time></trkpt><trkpt lat="44.1176176" lon="11.287814"><ele>860.0</ele><time>2026-05-03T10:16:11.901Z</time></trkpt><trkpt lat="44.1175778" lon="11.2875672"><ele>860.0</ele><time>2026-05-03T10:16:12.901Z</time></trkpt><trkpt lat="44.1175749" lon="11.2873396"><ele>861.25</ele><time>2026-05-03T10:16:13.91Z</time></trkpt><trkpt lat="44.1175618" lon="11.2871296"><ele>862.5</ele><time>2026-05-03T10:16:14.912Z</time></trkpt><trkpt lat="44.1175294" lon="11.2869472"><ele>863.75</ele><time>2026-05-03T10:16:15.904Z</time></trkpt><trkpt lat="44.1174875" lon="11.2867791"><ele>865.0</ele><time>2026-05-03T10:16:16.907Z</time></trkpt><trkpt lat="44.1174079" lon="11.286644"><ele>868.25</ele><time>2026-05-03T10:16:17.91Z</time></trkpt><trkpt lat="44.1172924" lon="11.28658"><ele>871.5</ele><time>2026-05-03T10:16:18.907Z</time></trkpt><trkpt lat="44.1171637" lon="11.2865798"><ele>874.75</ele><time>2026-05-03T10:16:19.902Z</time></trkpt><trkpt lat="44.1170223" lon="11.286639"><ele>878.0</ele><time>2026-05-03T10:16:20.905Z</time></trkpt><trkpt lat="44.11688" lon="11.286762"><ele>878.0</ele><time>2026-05-03T10:16:21.9Z</time></trkpt><trkpt lat="44.1167671" lon="11.2869288"><ele>878.0</ele><time>2026-05-03T10:16:22.901Z</time></trkpt><trkpt lat="44.116679" lon="11.287122"><ele>878.0</ele><time>2026-05-03T10:16:23.903Z</time></trkpt><trkpt lat="44.116601" lon="11.2873801"><ele>874.3333333333334</ele><time>2026-05-03T10:16:24.899Z</time></trkpt><trkpt lat="44.1165263" lon="11.2876025"><ele>870.6666666666667</ele><time>2026-05-03T10:16:25.899Z</time></trkpt><trkpt lat="44.1164554" lon="11.2878151"><ele>867.0</ele><time>2026-05-03T10:16:26.892Z</time></trkpt><trkpt lat="44.1163912" lon="11.2880216"><ele>865.75</ele><time>2026-05-03T10:16:27.903Z</time></trkpt><trkpt lat="44.1163246" lon="11.2881838"><ele>864.5</ele><time>2026-05-03T10:16:28.906Z</time></trkpt><trkpt lat="44.1162456" lon="11.2883137"><ele>863.25</ele><time>2026-05-03T10:16:29.91Z</time></trkpt><trkpt lat="44.1161227" lon="11.2883832"><ele>862.0</ele><time>2026-05-03T10:16:30.918Z</time></trkpt><trkpt lat="44.1159768" lon="11.2884031"><ele>862.0</ele><time>2026-05-03T10:16:31.909Z</time></trkpt><trkpt lat="44.115837" lon="11.2883613"><ele>862.0</ele><time>2026-05-03T10:16:32.908Z</time></trkpt><trkpt lat="44.115726" lon="11.2882505"><ele>862.0</ele><time>2026-05-03T10:16:33.92Z</time></trkpt><trkpt lat="44.1156123" lon="11.2881229"><ele>862.0</ele><time>2026-05-03T10:16:34.908Z</time></trkpt><trkpt lat="44.1155434" lon="11.2879285"><ele>862.0</ele><time>2026-05-03T10:16:35.892Z</time></trkpt><trkpt lat="44.1154871" lon="11.2877299"><ele>862.0</ele><time>2026-05-03T10:16:36.894Z</time></trkpt><trkpt lat="44.1154418" lon="11.2875326"><ele>862.0</ele><time>2026-05-03T10:16:37.9Z</time></trkpt><trkpt lat="44.115412" lon="11.2873343"><ele>862.0</ele><time>2026-05-03T10:16:38.895Z</time></trkpt><trkpt lat="44.1153464" lon="11.2871194"><ele>862.0</ele><time>2026-05-03T10:16:39.896Z</time></trkpt><trkpt lat="44.1152808" lon="11.2869186"><ele>862.0</ele><time>2026-05-03T10:16:40.904Z</time></trkpt><trkpt lat="44.1152082" lon="11.2867185"><ele>862.0</ele><time>2026-05-03T10:16:41.908Z</time></trkpt><trkpt lat="44.1150775" lon="11.2865869"><ele>862.0</ele><time>2026-05-03T10:16:42.898Z</time></trkpt><trkpt lat="44.1149429" lon="11.2864925"><ele>862.0</ele><time>2026-05-03T10:16:43.897Z</time></trkpt><trkpt lat="44.1147843" lon="11.2864214"><ele>862.0</ele><time>2026-05-03T10:16:44.901Z</time></trkpt><trkpt lat="44.1146031" lon="11.2863616"><ele>862.0</ele><time>2026-05-03T10:16:45.895Z</time></trkpt><trkpt lat="44.1144241" lon="11.2863065"><ele>862.0</ele><time>2026-05-03T10:16:46.899Z</time></trkpt><trkpt lat="44.1142428" lon="11.2862569"><ele>862.0</ele><time>2026-05-03T10:16:47.894Z</time></trkpt><trkpt lat="44.1140611" lon="11.2862119"><ele>858.3333333333333</ele><time>2026-05-03T10:16:48.89Z</time></trkpt><trkpt lat="44.1138737" lon="11.2861269"><ele>854.6666666666667</ele><time>2026-05-03T10:16:49.895Z</time></trkpt><trkpt lat="44.1137023" lon="11.286024"><ele>851.0</ele><time>2026-05-03T10:16:50.896Z</time></trkpt><trkpt lat="44.1135257" lon="11.285893"><ele>851.0</ele><time>2026-05-03T10:16:51.895Z</time></trkpt><trkpt lat="44.1133457" lon="11.285761"><ele>851.0</ele><time>2026-05-03T10:16:52.897Z</time></trkpt><trkpt lat="44.1131793" lon="11.2856375"><ele>851.0</ele><time>2026-05-03T10:16:53.893Z</time></trkpt><trkpt lat="44.1130201" lon="11.2855184"><ele>852.3333333333334</ele><time>2026-05-03T10:16:54.904Z</time></trkpt><trkpt lat="44.1128597" lon="11.2854064"><ele>853.6666666666667</ele><time>2026-05-03T10:16:55.902Z</time></trkpt><trkpt lat="44.1126958" lon="11.2852939"><ele>855.0</ele><time>2026-05-03T10:16:56.916Z</time></trkpt><trkpt lat="44.1125387" lon="11.2851851"><ele>854.0</ele><time>2026-05-03T10:16:57.9Z</time></trkpt><trkpt lat="44.1124004" lon="11.2850907"><ele>853.0</ele><time>2026-05-03T10:16:58.912Z</time></trkpt><trkpt lat="44.1122467" lon="11.2850413"><ele>852.0</ele><time>2026-05-03T10:16:59.903Z</time></trkpt><trkpt lat="44.1120874" lon="11.2850368"><ele>852.0</ele><time>2026-05-03T10:17:00.904Z</time></trkpt><trkpt lat="44.1119293" lon="11.285041"><ele>852.0</ele><time>2026-05-03T10:17:01.905Z</time></trkpt><trkpt lat="44.1117658" lon="11.2850273"><ele>852.0</ele><time>2026-05-03T10:17:02.902Z</time></trkpt><trkpt lat="44.1116152" lon="11.2850031"><ele>852.25</ele><time>2026-05-03T10:17:03.907Z</time></trkpt><trkpt lat="44.1114707" lon="11.284981"><ele>852.5</ele><time>2026-05-03T10:17:04.923Z</time></trkpt><trkpt lat="44.1113316" lon="11.2849344"><ele>852.75</ele><time>2026-05-03T10:17:05.904Z</time></trkpt><trkpt lat="44.1111995" lon="11.284849"><ele>853.0</ele><time>2026-05-03T10:17:06.908Z</time></trkpt><trkpt lat="44.1110564" lon="11.2847111"><ele>853.0</ele><time>2026-05-03T10:17:07.899Z</time></trkpt><trkpt lat="44.1109137" lon="11.2845835"><ele>853.0</ele><time>2026-05-03T10:17:08.91Z</time></trkpt><trkpt lat="44.1107671" lon="11.2844525"><ele>853.0</ele><time>2026-05-03T10:17:09.908Z</time></trkpt><trkpt lat="44.1106055" lon="11.2843235"><ele>852.3333333333333</ele><time>2026-05-03T10:17:10.906Z</time></trkpt><trkpt lat="44.1104442" lon="11.284198"><ele>851.6666666666667</ele><time>2026-05-03T10:17:11.91Z</time></trkpt><trkpt lat="44.1102875" lon="11.284067"><ele>851.0</ele><time>2026-05-03T10:17:12.908Z</time></trkpt><trkpt lat="44.1101353" lon="11.2839456"><ele>854.0</ele><time>2026-05-03T10:17:13.909Z</time></trkpt><trkpt lat="44.1099843" lon="11.2838267"><ele>857.0</ele><time>2026-05-03T10:17:14.92Z</time></trkpt><trkpt lat="44.1098424" lon="11.2837108"><ele>860.0</ele><time>2026-05-03T10:17:15.913Z</time></trkpt><trkpt lat="44.1097067" lon="11.2836221"><ele>860.0</ele><time>2026-05-03T10:17:16.907Z</time></trkpt><trkpt lat="44.1095773" lon="11.2835569"><ele>860.0</ele><time>2026-05-03T10:17:17.913Z</time></trkpt><trkpt lat="44.1094478" lon="11.2835188"><ele>860.0</ele><time>2026-05-03T10:17:18.905Z</time></trkpt><trkpt lat="44.1093181" lon="11.2834886"><ele>860.0</ele><time>2026-05-03T10:17:19.913Z</time></trkpt><trkpt lat="44.1091822" lon="11.2834659"><ele>861.0</ele><time>2026-05-03T10:17:20.919Z</time></trkpt><trkpt lat="44.1090351" lon="11.2834434"><ele>862.0</ele><time>2026-05-03T10:17:21.907Z</time></trkpt><trkpt lat="44.1088921" lon="11.2834245"><ele>863.0</ele><time>2026-05-03T10:17:22.909Z</time></trkpt><trkpt lat="44.1087532" lon="11.2834217"><ele>864.0</ele><time>2026-05-03T10:17:23.906Z</time></trkpt><trkpt lat="44.1086053" lon="11.2834374"><ele>864.0</ele><time>2026-05-03T10:17:24.909Z</time></trkpt><trkpt lat="44.1084588" lon="11.2834929"><ele>864.0</ele><time>2026-05-03T10:17:25.908Z</time></trkpt><trkpt lat="44.108314" lon="11.2835612"><ele>864.0</ele><time>2026-05-03T10:17:26.912Z</time></trkpt><trkpt lat="44.1081851" lon="11.2836647"><ele>866.75</ele><time>2026-05-03T10:17:27.92Z</time></trkpt><trkpt lat="44.1080521" lon="11.2837464"><ele>869.5</ele><time>2026-05-03T10:17:28.914Z</time></trkpt><trkpt lat="44.1079059" lon="11.2837969"><ele>872.25</ele><time>2026-05-03T10:17:29.909Z</time></trkpt><trkpt lat="44.1077605" lon="11.2838028"><ele>875.0</ele><time>2026-05-03T10:17:30.905Z</time></trkpt><trkpt lat="44.1076172" lon="11.2838106"><ele>875.0</ele><time>2026-05-03T10:17:31.909Z</time></trkpt><trkpt lat="44.1074782" lon="11.2838048"><ele>875.0</ele><time>2026-05-03T10:17:32.917Z</time></trkpt><trkpt lat="44.1073346" lon="11.2838022"><ele>875.0</ele><time>2026-05-03T10:17:33.911Z</time></trkpt><trkpt lat="44.1071844" lon="11.2838042"><ele>875.0</ele><time>2026-05-03T10:17:34.906Z</time></trkpt><trkpt lat="44.1070328" lon="11.2837971"><ele>875.0</ele><time>2026-05-03T10:17:35.931Z</time></trkpt><trkpt lat="44.1068763" lon="11.283782"><ele>875.0</ele><time>2026-05-03T10:17:36.912Z</time></trkpt><trkpt lat="44.106719" lon="11.2837372"><ele>875.0</ele><time>2026-05-03T10:17:37.911Z</time></trkpt><trkpt lat="44.1065691" lon="11.2836642"><ele>873.0</ele><time>2026-05-03T10:17:38.911Z</time></trkpt><trkpt lat="44.1064174" lon="11.2835526"><ele>871.0</ele><time>2026-05-03T10:17:39.913Z</time></trkpt><trkpt lat="44.1062901" lon="11.2834048"><ele>869.0</ele><time>2026-05-03T10:17:40.921Z</time></trkpt><trkpt lat="44.1061877" lon="11.2832175"><ele>872.3333333333334</ele><time>2026-05-03T10:17:41.917Z</time></trkpt><trkpt lat="44.1060877" lon="11.2830038"><ele>875.6666666666667</ele><time>2026-05-03T10:17:42.916Z</time></trkpt><trkpt lat="44.1059661" lon="11.2828034"><ele>879.0</ele><time>2026-05-03T10:17:43.921Z</time></trkpt><trkpt lat="44.1058546" lon="11.2825715"><ele>879.3333333333333</ele><time>2026-05-03T10:17:44.917Z</time></trkpt><trkpt lat="44.1057312" lon="11.2823461"><ele>879.6666666666666</ele><time>2026-05-03T10:17:45.911Z</time></trkpt><trkpt lat="44.105586" lon="11.2821479"><ele>880.0</ele><time>2026-05-03T10:17:46.919Z</time></trkpt><trkpt lat="44.1054443" lon="11.2819479"><ele>880.0</ele><time>2026-05-03T10:17:47.921Z</time></trkpt><trkpt lat="44.1053065" lon="11.2817529"><ele>880.0</ele><time>2026-05-03T10:17:48.915Z</time></trkpt><trkpt lat="44.1051736" lon="11.2815627"><ele>880.0</ele><time>2026-05-03T10:17:49.92Z</time></trkpt><trkpt lat="44.1050442" lon="11.2813752"><ele>879.3333333333333</ele><time>2026-05-03T10:17:50.923Z</time></trkpt><trkpt lat="44.1049062" lon="11.2811957"><ele>878.6666666666667</ele><time>2026-05-03T10:17:51.919Z</time></trkpt><trkpt lat="44.1047713" lon="11.2810174"><ele>878.0</ele><time>2026-05-03T10:17:52.931Z</time></trkpt><trkpt lat="44.1046435" lon="11.2808451"><ele>878.0</ele><time>2026-05-03T10:17:53.921Z</time></trkpt><trkpt lat="44.1045007" lon="11.2806621"><ele>878.0</ele><time>2026-05-03T10:17:54.919Z</time></trkpt><trkpt lat="44.104338" lon="11.2804688"><ele>878.0</ele><time>2026-05-03T10:17:55.924Z</time></trkpt><trkpt lat="44.1041581" lon="11.2802401"><ele>880.0</ele><time>2026-05-03T10:17:56.922Z</time></trkpt><trkpt lat="44.1039829" lon="11.2800054"><ele>882.0</ele><time>2026-05-03T10:17:57.913Z</time></trkpt><trkpt lat="44.1038113" lon="11.2797582"><ele>882.0</ele><time>2026-05-03T10:17:58.929Z</time></trkpt><trkpt lat="44.1036423" lon="11.2795252"><ele>882.0</ele><time>2026-05-03T10:17:59.92Z</time></trkpt><trkpt lat="44.1035007" lon="11.2792773"><ele>882.0</ele><time>2026-05-03T10:18:00.918Z</time></trkpt><trkpt lat="44.1033736" lon="11.2790417"><ele>882.0</ele><time>2026-05-03T10:18:01.921Z</time></trkpt><trkpt lat="44.1032391" lon="11.2788232"><ele>882.0</ele><time>2026-05-03T10:18:02.921Z</time></trkpt><trkpt lat="44.1030925" lon="11.2786637"><ele>882.3333333333333</ele><time>2026-05-03T10:18:03.919Z</time></trkpt><trkpt lat="44.1029217" lon="11.2785364"><ele>882.6666666666666</ele><time>2026-05-03T10:18:04.915Z</time></trkpt><trkpt lat="44.1027681" lon="11.2784051"><ele>883.0</ele><time>2026-05-03T10:18:05.909Z</time></trkpt><trkpt lat="44.1026121" lon="11.2782714"><ele>883.0</ele><time>2026-05-03T10:18:06.932Z</time></trkpt><trkpt lat="44.102477" lon="11.2781489"><ele>883.0</ele><time>2026-05-03T10:18:07.921Z</time></trkpt><trkpt lat="44.1023551" lon="11.278038"><ele>883.0</ele><time>2026-05-03T10:18:08.919Z</time></trkpt><trkpt lat="44.1022788" lon="11.2779037"><ele>883.0</ele><time>2026-05-03T10:18:09.915Z</time></trkpt><trkpt lat="44.1022246" lon="11.2777434"><ele>884.3333333333333</ele><time>2026-05-03T10:18:10.91Z</time></trkpt><trkpt lat="44.1022192" lon="11.2775356"><ele>885.6666666666667</ele><time>2026-05-03T10:18:11.904Z</time></trkpt><trkpt lat="44.1022212" lon="11.2773151"><ele>887.0</ele><time>2026-05-03T10:18:12.913Z</time></trkpt><trkpt lat="44.1022216" lon="11.2770708"><ele>887.0</ele><time>2026-05-03T10:18:13.912Z</time></trkpt><trkpt lat="44.1022043" lon="11.2768243"><ele>887.0</ele><time>2026-05-03T10:18:14.905Z</time></trkpt><trkpt lat="44.1021517" lon="11.2765766"><ele>887.0</ele><time>2026-05-03T10:18:15.909Z</time></trkpt><trkpt lat="44.1020787" lon="11.2763632"><ele>889.5</ele><time>2026-05-03T10:18:16.909Z</time></trkpt><trkpt lat="44.101992" lon="11.2761819"><ele>892.0</ele><time>2026-05-03T10:18:17.914Z</time></trkpt><trkpt lat="44.1018822" lon="11.2760481"><ele>894.5</ele><time>2026-05-03T10:18:18.909Z</time></trkpt><trkpt lat="44.10177" lon="11.2759378"><ele>897.0</ele><time>2026-05-03T10:18:19.921Z</time></trkpt><trkpt lat="44.1016373" lon="11.2758682"><ele>896.5</ele><time>2026-05-03T10:18:20.913Z</time></trkpt><trkpt lat="44.1014868" lon="11.2758532"><ele>896.0</ele><time>2026-05-03T10:18:21.905Z</time></trkpt><trkpt lat="44.1013424" lon="11.2759086"><ele>895.5</ele><time>2026-05-03T10:18:22.897Z</time></trkpt><trkpt lat="44.1012074" lon="11.2759898"><ele>895.0</ele><time>2026-05-03T10:18:23.9Z</time></trkpt><trkpt lat="44.1010911" lon="11.2760252"><ele>895.0</ele><time>2026-05-03T10:18:24.903Z</time></trkpt><trkpt lat="44.1009748" lon="11.2760105"><ele>895.0</ele><time>2026-05-03T10:18:25.898Z</time></trkpt><trkpt lat="44.1008369" lon="11.2759645"><ele>895.0</ele><time>2026-05-03T10:18:26.9Z</time></trkpt><trkpt lat="44.1007194" lon="11.2758776"><ele>895.0</ele><time>2026-05-03T10:18:27.905Z</time></trkpt><trkpt lat="44.1005996" lon="11.2757531"><ele>896.6666666666666</ele><time>2026-05-03T10:18:28.909Z</time></trkpt><trkpt lat="44.1004931" lon="11.275583"><ele>898.3333333333333</ele><time>2026-05-03T10:18:29.903Z</time></trkpt><trkpt lat="44.100403" lon="11.2753933"><ele>900.0</ele><time>2026-05-03T10:18:30.905Z</time></trkpt><trkpt lat="44.1002931" lon="11.2752193"><ele>900.0</ele><time>2026-05-03T10:18:31.899Z</time></trkpt><trkpt lat="44.1001847" lon="11.2750679"><ele>900.0</ele><time>2026-05-03T10:18:32.896Z</time></trkpt><trkpt lat="44.1000425" lon="11.2749797"><ele>900.0</ele><time>2026-05-03T10:18:33.911Z</time></trkpt><trkpt lat="44.0998693" lon="11.274961"><ele>901.3333333333333</ele><time>2026-05-03T10:18:34.905Z</time></trkpt><trkpt lat="44.0997044" lon="11.2749853"><ele>902.6666666666666</ele><time>2026-05-03T10:18:35.9Z</time></trkpt><trkpt lat="44.0995236" lon="11.2750118"><ele>904.0</ele><time>2026-05-03T10:18:36.903Z</time></trkpt><trkpt lat="44.0993502" lon="11.2750088"><ele>904.0</ele><time>2026-05-03T10:18:37.924Z</time></trkpt><trkpt lat="44.0991668" lon="11.2750095"><ele>904.0</ele><time>2026-05-03T10:18:38.907Z</time></trkpt><trkpt lat="44.0990039" lon="11.2749995"><ele>904.0</ele><time>2026-05-03T10:18:39.904Z</time></trkpt><trkpt lat="44.0988384" lon="11.275016"><ele>906.6666666666666</ele><time>2026-05-03T10:18:40.908Z</time></trkpt><trkpt lat="44.0986763" lon="11.2750835"><ele>909.3333333333333</ele><time>2026-05-03T10:18:41.905Z</time></trkpt><trkpt lat="44.0985391" lon="11.2751866"><ele>912.0</ele><time>2026-05-03T10:18:42.913Z</time></trkpt><trkpt lat="44.0984125" lon="11.2752519"><ele>912.0</ele><time>2026-05-03T10:18:43.913Z</time></trkpt><trkpt lat="44.0982932" lon="11.2752896"><ele>912.0</ele><time>2026-05-03T10:18:44.91Z</time></trkpt><trkpt lat="44.0981639" lon="11.2752694"><ele>912.0</ele><time>2026-05-03T10:18:45.916Z</time></trkpt><trkpt lat="44.0979979" lon="11.275192"><ele>912.0</ele><time>2026-05-03T10:18:46.91Z</time></trkpt><trkpt lat="44.0978232" lon="11.2751015"><ele>912.6666666666667</ele><time>2026-05-03T10:18:47.914Z</time></trkpt><trkpt lat="44.0976389" lon="11.2750379"><ele>913.3333333333334</ele><time>2026-05-03T10:18:48.912Z</time></trkpt><trkpt lat="44.0974739" lon="11.2749824"><ele>914.0</ele><time>2026-05-03T10:18:49.914Z</time></trkpt><trkpt lat="44.097321" lon="11.2749341"><ele>916.3333333333334</ele><time>2026-05-03T10:18:50.909Z</time></trkpt><trkpt lat="44.0971669" lon="11.2749122"><ele>918.6666666666667</ele><time>2026-05-03T10:18:51.915Z</time></trkpt><trkpt lat="44.0970076" lon="11.2749031"><ele>921.0</ele><time>2026-05-03T10:18:52.919Z</time></trkpt><trkpt lat="44.0968496" lon="11.2749335"><ele>921.0</ele><time>2026-05-03T10:18:53.914Z</time></trkpt><trkpt lat="44.0966929" lon="11.2750083"><ele>921.0</ele><time>2026-05-03T10:18:54.911Z</time></trkpt><trkpt lat="44.09655" lon="11.2750955"><ele>921.0</ele><time>2026-05-03T10:18:55.917Z</time></trkpt><trkpt lat="44.0964075" lon="11.2751592"><ele>920.5</ele><time>2026-05-03T10:18:56.916Z</time></trkpt><trkpt lat="44.0962819" lon="11.275213"><ele>920.0</ele><time>2026-05-03T10:18:57.918Z</time></trkpt><trkpt lat="44.0961482" lon="11.275238"><ele>919.5</ele><time>2026-05-03T10:18:58.92Z</time></trkpt><trkpt lat="44.096021" lon="11.2752626"><ele>919.0</ele><time>2026-05-03T10:18:59.918Z</time></trkpt><trkpt lat="44.0958989" lon="11.2752838"><ele>919.0</ele><time>2026-05-03T10:19:00.916Z</time></trkpt><trkpt lat="44.095781" lon="11.2753043"><ele>919.0000000000001</ele><time>2026-05-03T10:19:01.914Z</time></trkpt><trkpt lat="44.0956729" lon="11.2752967"><ele>919.0000000000001</ele><time>2026-05-03T10:19:02.916Z</time></trkpt><trkpt lat="44.0955738" lon="11.275284"><ele>919.0</ele><time>2026-05-03T10:19:03.903Z</time></trkpt><trkpt lat="44.0954665" lon="11.275261"><ele>919.0</ele><time>2026-05-03T10:19:04.911Z</time></trkpt><trkpt lat="44.0953506" lon="11.2752423"><ele>918.0</ele><time>2026-05-03T10:19:05.909Z</time></trkpt><trkpt lat="44.0952324" lon="11.2752316"><ele>917.0</ele><time>2026-05-03T10:19:06.907Z</time></trkpt><trkpt lat="44.0951153" lon="11.2752384"><ele>916.0</ele><time>2026-05-03T10:19:07.912Z</time></trkpt><trkpt lat="44.0949963" lon="11.2752747"><ele>915.0</ele><time>2026-05-03T10:19:08.937Z</time></trkpt><trkpt lat="44.0948785" lon="11.275328"><ele>912.5</ele><time>2026-05-03T10:19:09.911Z</time></trkpt><trkpt lat="44.0947638" lon="11.2753901"><ele>910.0</ele><time>2026-05-03T10:19:10.912Z</time></trkpt><trkpt lat="44.0946549" lon="11.2754783"><ele>907.5</ele><time>2026-05-03T10:19:11.913Z</time></trkpt><trkpt lat="44.094564" lon="11.2755978"><ele>905.0</ele><time>2026-05-03T10:19:12.911Z</time></trkpt><trkpt lat="44.0944983" lon="11.2757285"><ele>904.8333333333334</ele><time>2026-05-03T10:19:13.907Z</time></trkpt><trkpt lat="44.0944384" lon="11.2758599"><ele>904.6666666666667</ele><time>2026-05-03T10:19:14.909Z</time></trkpt><trkpt lat="44.0943875" lon="11.2759889"><ele>904.5</ele><time>2026-05-03T10:19:15.91Z</time></trkpt><trkpt lat="44.0943536" lon="11.2761037"><ele>904.3333333333333</ele><time>2026-05-03T10:19:16.92Z</time></trkpt><trkpt lat="44.0943378" lon="11.2761922"><ele>904.1666666666666</ele><time>2026-05-03T10:19:17.919Z</time></trkpt><trkpt lat="44.0942939" lon="11.2762729"><ele>904.0</ele><time>2026-05-03T10:19:19.912Z</time></trkpt><trkpt lat="44.0941918" lon="11.2762939"><ele>901.9999999999999</ele><time>2026-05-03T10:19:22.911Z</time></trkpt><trkpt lat="44.0940716" lon="11.2762671"><ele>900.0</ele><time>2026-05-03T10:19:24.91Z</time></trkpt><trkpt lat="44.0940045" lon="11.2762861"><ele>898.0</ele><time>2026-05-03T10:19:25.916Z</time></trkpt><trkpt lat="44.0939551" lon="11.2763487"><ele>896.0</ele><time>2026-05-03T10:19:26.919Z</time></trkpt><trkpt lat="44.0939427" lon="11.2764486"><ele>893.9999999999999</ele><time>2026-05-03T10:19:27.915Z</time></trkpt><trkpt lat="44.0939744" lon="11.2765684"><ele>892.0</ele><time>2026-05-03T10:19:28.922Z</time></trkpt><trkpt lat="44.094034" lon="11.2767009"><ele>892.0</ele><time>2026-05-03T10:19:29.916Z</time></trkpt><trkpt lat="44.0940708" lon="11.2768388"><ele>892.0</ele><time>2026-05-03T10:19:30.92Z</time></trkpt><trkpt lat="44.0940771" lon="11.2769859"><ele>892.0</ele><time>2026-05-03T10:19:31.923Z</time></trkpt><trkpt lat="44.0940331" lon="11.2771392"><ele>892.0</ele><time>2026-05-03T10:19:32.921Z</time></trkpt><trkpt lat="44.0939662" lon="11.2772977"><ele>893.25</ele><time>2026-05-03T10:19:33.918Z</time></trkpt><trkpt lat="44.0938916" lon="11.2774478"><ele>894.5</ele><time>2026-05-03T10:19:34.916Z</time></trkpt><trkpt lat="44.0938152" lon="11.2776079"><ele>895.75</ele><time>2026-05-03T10:19:35.917Z</time></trkpt><trkpt lat="44.0937397" lon="11.2777674"><ele>897.0</ele><time>2026-05-03T10:19:36.908Z</time></trkpt><trkpt lat="44.0936605" lon="11.2779273"><ele>897.0</ele><time>2026-05-03T10:19:37.91Z</time></trkpt><trkpt lat="44.093577" lon="11.2780786"><ele>897.0</ele><time>2026-05-03T10:19:38.926Z</time></trkpt><trkpt lat="44.0934745" lon="11.2782204"><ele>897.0</ele><time>2026-05-03T10:19:39.911Z</time></trkpt><trkpt lat="44.0933489" lon="11.2783272"><ele>897.0</ele><time>2026-05-03T10:19:40.914Z</time></trkpt><trkpt lat="44.0931869" lon="11.2783649"><ele>895.5</ele><time>2026-05-03T10:19:41.903Z</time></trkpt><trkpt lat="44.0930418" lon="11.2783775"><ele>894.0</ele><time>2026-05-03T10:19:42.913Z</time></trkpt><trkpt lat="44.0929276" lon="11.2783731"><ele>892.5</ele><time>2026-05-03T10:19:43.908Z</time></trkpt><trkpt lat="44.0928102" lon="11.2783924"><ele>891.0</ele><time>2026-05-03T10:19:44.909Z</time></trkpt><trkpt lat="44.0927091" lon="11.2784566"><ele>891.0</ele><time>2026-05-03T10:19:45.903Z</time></trkpt><trkpt lat="44.0926124" lon="11.2785572"><ele>891.0</ele><time>2026-05-03T10:19:46.909Z</time></trkpt><trkpt lat="44.0925554" lon="11.2787248"><ele>891.0</ele><time>2026-05-03T10:19:47.906Z</time></trkpt><trkpt lat="44.0925051" lon="11.278896"><ele>891.0</ele><time>2026-05-03T10:19:48.899Z</time></trkpt><trkpt lat="44.0924708" lon="11.2790747"><ele>892.5</ele><time>2026-05-03T10:19:49.905Z</time></trkpt><trkpt lat="44.0924369" lon="11.2792493"><ele>894.0</ele><time>2026-05-03T10:19:50.905Z</time></trkpt><trkpt lat="44.0924004" lon="11.2794215"><ele>895.5</ele><time>2026-05-03T10:19:51.907Z</time></trkpt><trkpt lat="44.0923589" lon="11.2795859"><ele>897.0</ele><time>2026-05-03T10:19:52.901Z</time></trkpt><trkpt lat="44.0923088" lon="11.279737"><ele>894.25</ele><time>2026-05-03T10:19:53.899Z</time></trkpt><trkpt lat="44.0922599" lon="11.2798797"><ele>891.5</ele><time>2026-05-03T10:19:54.896Z</time></trkpt><trkpt lat="44.0921958" lon="11.2800121"><ele>888.75</ele><time>2026-05-03T10:19:55.904Z</time></trkpt><trkpt lat="44.0921157" lon="11.2801311"><ele>886.0</ele><time>2026-05-03T10:19:56.904Z</time></trkpt><trkpt lat="44.0920026" lon="11.2802194"><ele>886.0</ele><time>2026-05-03T10:19:57.905Z</time></trkpt><trkpt lat="44.0918777" lon="11.2802689"><ele>886.0</ele><time>2026-05-03T10:19:58.907Z</time></trkpt><trkpt lat="44.091761" lon="11.2803089"><ele>886.0</ele><time>2026-05-03T10:19:59.904Z</time></trkpt><trkpt lat="44.0916489" lon="11.2803547"><ele>886.0</ele><time>2026-05-03T10:20:00.905Z</time></trkpt><trkpt lat="44.0915335" lon="11.2804049"><ele>884.25</ele><time>2026-05-03T10:20:01.908Z</time></trkpt><trkpt lat="44.0914159" lon="11.2804654"><ele>882.5</ele><time>2026-05-03T10:20:02.911Z</time></trkpt><trkpt lat="44.0913003" lon="11.2805262"><ele>880.75</ele><time>2026-05-03T10:20:03.904Z</time></trkpt><trkpt lat="44.0911925" lon="11.2805935"><ele>879.0</ele><time>2026-05-03T10:20:04.904Z</time></trkpt><trkpt lat="44.0910835" lon="11.2806734"><ele>882.75</ele><time>2026-05-03T10:20:05.9Z</time></trkpt><trkpt lat="44.0909797" lon="11.2807677"><ele>886.5</ele><time>2026-05-03T10:20:06.91Z</time></trkpt><trkpt lat="44.0908872" lon="11.2808776"><ele>890.25</ele><time>2026-05-03T10:20:07.904Z</time></trkpt><trkpt lat="44.0908009" lon="11.280985"><ele>894.0</ele><time>2026-05-03T10:20:08.897Z</time></trkpt><trkpt lat="44.0907185" lon="11.2810814"><ele>894.0</ele><time>2026-05-03T10:20:09.919Z</time></trkpt><trkpt lat="44.0906372" lon="11.2811619"><ele>894.0000000000001</ele><time>2026-05-03T10:20:10.906Z</time></trkpt><trkpt lat="44.0905566" lon="11.2812203"><ele>894.0000000000001</ele><time>2026-05-03T10:20:11.908Z</time></trkpt><trkpt lat="44.0904712" lon="11.2812451"><ele>894.0</ele><time>2026-05-03T10:20:12.905Z</time></trkpt><trkpt lat="44.0903685" lon="11.2812233"><ele>894.0</ele><time>2026-05-03T10:20:13.912Z</time></trkpt><trkpt lat="44.0902536" lon="11.2811692"><ele>894.0</ele><time>2026-05-03T10:20:14.898Z</time></trkpt><trkpt lat="44.0901302" lon="11.2811283"><ele>894.0</ele><time>2026-05-03T10:20:15.899Z</time></trkpt><trkpt lat="44.0900064" lon="11.2811036"><ele>894.0</ele><time>2026-05-03T10:20:16.905Z</time></trkpt><trkpt lat="44.0898777" lon="11.2811133"><ele>894.0</ele><time>2026-05-03T10:20:17.907Z</time></trkpt><trkpt lat="44.0897573" lon="11.2811393"><ele>893.25</ele><time>2026-05-03T10:20:18.901Z</time></trkpt><trkpt lat="44.0896424" lon="11.2811866"><ele>892.5</ele><time>2026-05-03T10:20:19.904Z</time></trkpt><trkpt lat="44.0895313" lon="11.2812467"><ele>891.75</ele><time>2026-05-03T10:20:20.905Z</time></trkpt><trkpt lat="44.0894182" lon="11.2813124"><ele>891.0</ele><time>2026-05-03T10:20:21.898Z</time></trkpt><trkpt lat="44.0893052" lon="11.2813691"><ele>891.0</ele><time>2026-05-03T10:20:22.895Z</time></trkpt><trkpt lat="44.0891951" lon="11.2814109"><ele>891.0</ele><time>2026-05-03T10:20:23.901Z</time></trkpt><trkpt lat="44.0890804" lon="11.2814304"><ele>891.0</ele><time>2026-05-03T10:20:24.896Z</time></trkpt><trkpt lat="44.0889609" lon="11.2814233"><ele>891.0</ele><time>2026-05-03T10:20:25.898Z</time></trkpt><trkpt lat="44.0888408" lon="11.2814068"><ele>889.25</ele><time>2026-05-03T10:20:26.899Z</time></trkpt><trkpt lat="44.0887209" lon="11.2813779"><ele>887.5</ele><time>2026-05-03T10:20:27.904Z</time></trkpt><trkpt lat="44.0886009" lon="11.2813554"><ele>885.75</ele><time>2026-05-03T10:20:28.91Z</time></trkpt><trkpt lat="44.0884807" lon="11.2813378"><ele>884.0</ele><time>2026-05-03T10:20:29.905Z</time></trkpt><trkpt lat="44.0883607" lon="11.2813358"><ele>886.5</ele><time>2026-05-03T10:20:30.909Z</time></trkpt><trkpt lat="44.0882368" lon="11.2813343"><ele>889.0</ele><time>2026-05-03T10:20:31.908Z</time></trkpt><trkpt lat="44.0881153" lon="11.2813221"><ele>891.5</ele><time>2026-05-03T10:20:32.91Z</time></trkpt><trkpt lat="44.088003" lon="11.2813"><ele>894.0</ele><time>2026-05-03T10:20:33.909Z</time></trkpt><trkpt lat="44.0879072" lon="11.2812351"><ele>894.0</ele><time>2026-05-03T10:20:34.907Z</time></trkpt><trkpt lat="44.0878204" lon="11.2811102"><ele>894.0</ele><time>2026-05-03T10:20:35.911Z</time></trkpt><trkpt lat="44.0877496" lon="11.2809428"><ele>894.0</ele><time>2026-05-03T10:20:36.907Z</time></trkpt><trkpt lat="44.0876769" lon="11.2807838"><ele>894.0</ele><time>2026-05-03T10:20:37.905Z</time></trkpt><trkpt lat="44.0875958" lon="11.2806528"><ele>890.0</ele><time>2026-05-03T10:20:38.897Z</time></trkpt><trkpt lat="44.087512" lon="11.2805442"><ele>886.0000000000001</ele><time>2026-05-03T10:20:39.912Z</time></trkpt><trkpt lat="44.0874389" lon="11.280463"><ele>882.0000000000001</ele><time>2026-05-03T10:20:40.919Z</time></trkpt><trkpt lat="44.0873745" lon="11.2804119"><ele>878.0</ele><time>2026-05-03T10:20:41.901Z</time></trkpt><trkpt lat="44.0872962" lon="11.2803887"><ele>874.0</ele><time>2026-05-03T10:20:42.916Z</time></trkpt><trkpt lat="44.0872043" lon="11.2803978"><ele>874.0</ele><time>2026-05-03T10:20:43.917Z</time></trkpt><trkpt lat="44.0871068" lon="11.2804496"><ele>874.0</ele><time>2026-05-03T10:20:44.919Z</time></trkpt><trkpt lat="44.0870086" lon="11.2805422"><ele>874.0</ele><time>2026-05-03T10:20:45.914Z</time></trkpt><trkpt lat="44.0869282" lon="11.2806507"><ele>874.0</ele><time>2026-05-03T10:20:46.907Z</time></trkpt><trkpt lat="44.0868629" lon="11.2807822"><ele>876.0</ele><time>2026-05-03T10:20:47.908Z</time></trkpt><trkpt lat="44.0868202" lon="11.2809268"><ele>878.0</ele><time>2026-05-03T10:20:48.919Z</time></trkpt><trkpt lat="44.0867992" lon="11.2810888"><ele>880.0</ele><time>2026-05-03T10:20:49.915Z</time></trkpt><trkpt lat="44.0868034" lon="11.2812511"><ele>882.0</ele><time>2026-05-03T10:20:50.908Z</time></trkpt><trkpt lat="44.0868263" lon="11.281408"><ele>882.8333333333334</ele><time>2026-05-03T10:20:51.91Z</time></trkpt><trkpt lat="44.0868366" lon="11.2815418"><ele>883.6666666666667</ele><time>2026-05-03T10:20:52.906Z</time></trkpt><trkpt lat="44.0868334" lon="11.2816642"><ele>884.5</ele><time>2026-05-03T10:20:53.909Z</time></trkpt><trkpt lat="44.0868079" lon="11.2817728"><ele>885.3333333333334</ele><time>2026-05-03T10:20:54.905Z</time></trkpt><trkpt lat="44.0867626" lon="11.2818531"><ele>886.1666666666667</ele><time>2026-05-03T10:20:55.909Z</time></trkpt><trkpt lat="44.0866946" lon="11.2819013"><ele>887.0</ele><time>2026-05-03T10:20:56.91Z</time></trkpt><trkpt lat="44.0866179" lon="11.2818969"><ele>884.6666666666667</ele><time>2026-05-03T10:20:57.906Z</time></trkpt><trkpt lat="44.0865471" lon="11.2818582"><ele>882.3333333333334</ele><time>2026-05-03T10:20:58.907Z</time></trkpt><trkpt lat="44.086476" lon="11.2817673"><ele>880.0</ele><time>2026-05-03T10:20:59.907Z</time></trkpt><trkpt lat="44.0864187" lon="11.2816621"><ele>877.6666666666667</ele><time>2026-05-03T10:21:00.896Z</time></trkpt><trkpt lat="44.0863584" lon="11.2815839"><ele>875.3333333333334</ele><time>2026-05-03T10:21:01.894Z</time></trkpt><trkpt lat="44.0862816" lon="11.2815155"><ele>873.0</ele><time>2026-05-03T10:21:02.901Z</time></trkpt><trkpt lat="44.0862134" lon="11.2815367"><ele>872.9999999999999</ele><time>2026-05-03T10:21:03.91Z</time></trkpt><trkpt lat="44.0861665" lon="11.2816144"><ele>873.0</ele><time>2026-05-03T10:21:04.902Z</time></trkpt><trkpt lat="44.0861432" lon="11.2817194"><ele>873.0</ele><time>2026-05-03T10:21:05.889Z</time></trkpt><trkpt lat="44.086134" lon="11.2818212"><ele>873.0</ele><time>2026-05-03T10:21:06.885Z</time></trkpt><trkpt lat="44.0861168" lon="11.2819226"><ele>873.0</ele><time>2026-05-03T10:21:07.892Z</time></trkpt><trkpt lat="44.0860884" lon="11.2820103"><ele>872.9999999999999</ele><time>2026-05-03T10:21:08.883Z</time></trkpt><trkpt lat="44.0860199" lon="11.282053"><ele>873.0</ele><time>2026-05-03T10:21:10.886Z</time></trkpt><trkpt lat="44.085906" lon="11.2819859"><ele>873.0</ele><time>2026-05-03T10:21:12.879Z</time></trkpt><trkpt lat="44.0858222" lon="11.2819296"><ele>873.0</ele><time>2026-05-03T10:21:13.886Z</time></trkpt><trkpt lat="44.085717" lon="11.2818644"><ele>873.0</ele><time>2026-05-03T10:21:14.889Z</time></trkpt><trkpt lat="44.085609" lon="11.2817925"><ele>873.0</ele><time>2026-05-03T10:21:15.886Z</time></trkpt><trkpt lat="44.0854974" lon="11.2817237"><ele>871.5</ele><time>2026-05-03T10:21:16.892Z</time></trkpt><trkpt lat="44.0853853" lon="11.2816508"><ele>870.0</ele><time>2026-05-03T10:21:17.894Z</time></trkpt><trkpt lat="44.0852721" lon="11.281588"><ele>868.5</ele><time>2026-05-03T10:21:18.891Z</time></trkpt><trkpt lat="44.0851775" lon="11.2815265"><ele>867.0</ele><time>2026-05-03T10:21:19.888Z</time></trkpt><trkpt lat="44.0850886" lon="11.2814488"><ele>864.1666666666666</ele><time>2026-05-03T10:21:20.911Z</time></trkpt><trkpt lat="44.0850265" lon="11.2813408"><ele>861.3333333333333</ele><time>2026-05-03T10:21:21.898Z</time></trkpt><trkpt lat="44.0849916" lon="11.2812085"><ele>858.5</ele><time>2026-05-03T10:21:22.905Z</time></trkpt><trkpt lat="44.0849499" lon="11.2811171"><ele>855.6666666666666</ele><time>2026-05-03T10:21:23.908Z</time></trkpt><trkpt lat="44.0848782" lon="11.2810747"><ele>852.8333333333333</ele><time>2026-05-03T10:21:24.906Z</time></trkpt><trkpt lat="44.084787" lon="11.2810816"><ele>850.0</ele><time>2026-05-03T10:21:25.912Z</time></trkpt><trkpt lat="44.0846794" lon="11.2811186"><ele>851.0</ele><time>2026-05-03T10:21:26.9Z</time></trkpt><trkpt lat="44.0845771" lon="11.2811725"><ele>852.0</ele><time>2026-05-03T10:21:27.9Z</time></trkpt><trkpt lat="44.0844933" lon="11.2812374"><ele>853.0</ele><time>2026-05-03T10:21:28.911Z</time></trkpt><trkpt lat="44.0844323" lon="11.2813151"><ele>854.0</ele><time>2026-05-03T10:21:29.905Z</time></trkpt><trkpt lat="44.0844059" lon="11.2814256"><ele>855.0</ele><time>2026-05-03T10:21:30.91Z</time></trkpt><trkpt lat="44.0844088" lon="11.2815472"><ele>855.0</ele><time>2026-05-03T10:21:31.903Z</time></trkpt><trkpt lat="44.084402" lon="11.2816683"><ele>855.0</ele><time>2026-05-03T10:21:32.89Z</time></trkpt><trkpt lat="44.08437" lon="11.2817632"><ele>855.0</ele><time>2026-05-03T10:21:33.894Z</time></trkpt><trkpt lat="44.0843192" lon="11.2818226"><ele>855.0</ele><time>2026-05-03T10:21:34.895Z</time></trkpt><trkpt lat="44.0842159" lon="11.2818303"><ele>855.0</ele><time>2026-05-03T10:21:36.892Z</time></trkpt><trkpt lat="44.0841493" lon="11.281766"><ele>855.0</ele><time>2026-05-03T10:21:37.89Z</time></trkpt><trkpt lat="44.0840629" lon="11.2816459"><ele>853.0</ele><time>2026-05-03T10:21:38.888Z</time></trkpt><trkpt lat="44.0839568" lon="11.2815299"><ele>851.0</ele><time>2026-05-03T10:21:39.89Z</time></trkpt><trkpt lat="44.083831" lon="11.2814324"><ele>849.0</ele><time>2026-05-03T10:21:40.878Z</time></trkpt><trkpt lat="44.0836923" lon="11.2813353"><ele>847.0</ele><time>2026-05-03T10:21:41.89Z</time></trkpt><trkpt lat="44.0835569" lon="11.2812549"><ele>844.0</ele><time>2026-05-03T10:21:42.901Z</time></trkpt><trkpt lat="44.0834363" lon="11.281172"><ele>841.0</ele><time>2026-05-03T10:21:43.886Z</time></trkpt><trkpt lat="44.0833336" lon="11.2811003"><ele>838.0</ele><time>2026-05-03T10:21:44.896Z</time></trkpt><trkpt lat="44.0832521" lon="11.2810364"><ele>835.0</ele><time>2026-05-03T10:21:45.894Z</time></trkpt><trkpt lat="44.0831794" lon="11.2810188"><ele>832.0</ele><time>2026-05-03T10:21:46.9Z</time></trkpt><trkpt lat="44.0831126" lon="11.2810482"><ele>829.9999999999999</ele><time>2026-05-03T10:21:47.905Z</time></trkpt><trkpt lat="44.0830552" lon="11.2811028"><ele>828.0</ele><time>2026-05-03T10:21:48.907Z</time></trkpt><trkpt lat="44.0830262" lon="11.2812094"><ele>826.0</ele><time>2026-05-03T10:21:49.902Z</time></trkpt><trkpt lat="44.083002" lon="11.2813305"><ele>824.0</ele><time>2026-05-03T10:21:50.902Z</time></trkpt><trkpt lat="44.0829717" lon="11.2814702"><ele>821.9999999999999</ele><time>2026-05-03T10:21:51.892Z</time></trkpt><trkpt lat="44.0829219" lon="11.281588"><ele>820.0</ele><time>2026-05-03T10:21:52.889Z</time></trkpt><trkpt lat="44.0828622" lon="11.2816925"><ele>820.0</ele><time>2026-05-03T10:21:53.891Z</time></trkpt><trkpt lat="44.0827972" lon="11.2817664"><ele>820.0</ele><time>2026-05-03T10:21:54.895Z</time></trkpt><trkpt lat="44.0827396" lon="11.2818552"><ele>820.0</ele><time>2026-05-03T10:21:55.908Z</time></trkpt><trkpt lat="44.0827001" lon="11.2819649"><ele>820.0</ele><time>2026-05-03T10:21:56.906Z</time></trkpt><trkpt lat="44.0826919" lon="11.2821065"><ele>820.0</ele><time>2026-05-03T10:21:57.903Z</time></trkpt><trkpt lat="44.082714" lon="11.28227"><ele>820.25</ele><time>2026-05-03T10:21:58.898Z</time></trkpt><trkpt lat="44.0827468" lon="11.2824422"><ele>820.5</ele><time>2026-05-03T10:21:59.904Z</time></trkpt><trkpt lat="44.082782" lon="11.2826199"><ele>820.75</ele><time>2026-05-03T10:22:00.897Z</time></trkpt><trkpt lat="44.0828268" lon="11.2827981"><ele>821.0</ele><time>2026-05-03T10:22:01.899Z</time></trkpt><trkpt lat="44.0828759" lon="11.2829646"><ele>821.0</ele><time>2026-05-03T10:22:02.893Z</time></trkpt><trkpt lat="44.0829235" lon="11.2831117"><ele>821.0</ele><time>2026-05-03T10:22:03.904Z</time></trkpt><trkpt lat="44.0829571" lon="11.2832276"><ele>821.0</ele><time>2026-05-03T10:22:04.895Z</time></trkpt><trkpt lat="44.0829876" lon="11.2833652"><ele>821.0</ele><time>2026-05-03T10:22:06.887Z</time></trkpt><trkpt lat="44.0829465" lon="11.2834558"><ele>821.0</ele><time>2026-05-03T10:22:08.892Z</time></trkpt><trkpt lat="44.0828816" lon="11.2834525"><ele>821.0</ele><time>2026-05-03T10:22:10.892Z</time></trkpt><trkpt lat="44.0828329" lon="11.2833672"><ele>821.0</ele><time>2026-05-03T10:22:11.899Z</time></trkpt><trkpt lat="44.0827875" lon="11.2832372"><ele>821.0</ele><time>2026-05-03T10:22:12.889Z</time></trkpt><trkpt lat="44.0827358" lon="11.2830896"><ele>821.0</ele><time>2026-05-03T10:22:13.908Z</time></trkpt><trkpt lat="44.0826676" lon="11.2829296"><ele>821.0</ele><time>2026-05-03T10:22:14.889Z</time></trkpt><trkpt lat="44.0825845" lon="11.2827475"><ele>821.0</ele><time>2026-05-03T10:22:15.89Z</time></trkpt><trkpt lat="44.0825112" lon="11.2825608"><ele>821.0</ele><time>2026-05-03T10:22:16.888Z</time></trkpt><trkpt lat="44.082442" lon="11.2823657"><ele>821.0</ele><time>2026-05-03T10:22:17.906Z</time></trkpt><trkpt lat="44.0823811" lon="11.2821673"><ele>822.0</ele><time>2026-05-03T10:22:18.888Z</time></trkpt><trkpt lat="44.0823499" lon="11.2819566"><ele>823.0</ele><time>2026-05-03T10:22:19.885Z</time></trkpt><trkpt lat="44.0823319" lon="11.2817532"><ele>824.0</ele><time>2026-05-03T10:22:20.889Z</time></trkpt><trkpt lat="44.0823218" lon="11.2815575"><ele>825.0</ele><time>2026-05-03T10:22:21.897Z</time></trkpt><trkpt lat="44.0823249" lon="11.2813722"><ele>825.0</ele><time>2026-05-03T10:22:22.885Z</time></trkpt><trkpt lat="44.0823376" lon="11.2811946"><ele>825.0</ele><time>2026-05-03T10:22:23.883Z</time></trkpt><trkpt lat="44.0823358" lon="11.2810312"><ele>825.0</ele><time>2026-05-03T10:22:24.891Z</time></trkpt><trkpt lat="44.0822986" lon="11.2808896"><ele>825.0</ele><time>2026-05-03T10:22:25.894Z</time></trkpt><trkpt lat="44.0822133" lon="11.2807842"><ele>825.0</ele><time>2026-05-03T10:22:26.892Z</time></trkpt><trkpt lat="44.0821078" lon="11.280722"><ele>825.0</ele><time>2026-05-03T10:22:27.901Z</time></trkpt><trkpt lat="44.0819832" lon="11.2806947"><ele>825.0</ele><time>2026-05-03T10:22:28.895Z</time></trkpt><trkpt lat="44.0818514" lon="11.2807207"><ele>825.0</ele><time>2026-05-03T10:22:29.897Z</time></trkpt><trkpt lat="44.0817203" lon="11.2807799"><ele>825.0</ele><time>2026-05-03T10:22:30.889Z</time></trkpt><trkpt lat="44.0816034" lon="11.2809034"><ele>825.0</ele><time>2026-05-03T10:22:31.888Z</time></trkpt><trkpt lat="44.0814905" lon="11.2810369"><ele>825.0</ele><time>2026-05-03T10:22:32.887Z</time></trkpt><trkpt lat="44.0813875" lon="11.2811891"><ele>825.0</ele><time>2026-05-03T10:22:33.892Z</time></trkpt><trkpt lat="44.081278" lon="11.2813405"><ele>819.6666666666667</ele><time>2026-05-03T10:22:34.879Z</time></trkpt><trkpt lat="44.0811707" lon="11.2814896"><ele>814.3333333333334</ele><time>2026-05-03T10:22:35.889Z</time></trkpt><trkpt lat="44.0810653" lon="11.2816467"><ele>809.0</ele><time>2026-05-03T10:22:36.883Z</time></trkpt><trkpt lat="44.0809211" lon="11.2817461"><ele>808.0</ele><time>2026-05-03T10:22:37.886Z</time></trkpt><trkpt lat="44.0807634" lon="11.2818198"><ele>807.0</ele><time>2026-05-03T10:22:38.88Z</time></trkpt><trkpt lat="44.0805863" lon="11.2818806"><ele>806.0</ele><time>2026-05-03T10:22:39.884Z</time></trkpt><trkpt lat="44.0804177" lon="11.2819424"><ele>806.0</ele><time>2026-05-03T10:22:40.881Z</time></trkpt><trkpt lat="44.0802557" lon="11.2819921"><ele>806.0</ele><time>2026-05-03T10:22:41.88Z</time></trkpt><trkpt lat="44.0800818" lon="11.2820014"><ele>806.0</ele><time>2026-05-03T10:22:42.879Z</time></trkpt><trkpt lat="44.0798904" lon="11.2819959"><ele>801.3333333333334</ele><time>2026-05-03T10:22:43.883Z</time></trkpt><trkpt lat="44.079694" lon="11.2819801"><ele>796.6666666666667</ele><time>2026-05-03T10:22:44.907Z</time></trkpt><trkpt lat="44.079519" lon="11.2819943"><ele>792.0</ele><time>2026-05-03T10:22:45.89Z</time></trkpt><trkpt lat="44.0793447" lon="11.2820076"><ele>792.0</ele><time>2026-05-03T10:22:46.895Z</time></trkpt><trkpt lat="44.0791791" lon="11.2820185"><ele>792.0</ele><time>2026-05-03T10:22:47.902Z</time></trkpt><trkpt lat="44.079013" lon="11.2820321"><ele>792.0</ele><time>2026-05-03T10:22:48.9Z</time></trkpt><trkpt lat="44.0788458" lon="11.2820222"><ele>786.0</ele><time>2026-05-03T10:22:49.9Z</time></trkpt><trkpt lat="44.0786788" lon="11.2819938"><ele>780.0</ele><time>2026-05-03T10:22:50.903Z</time></trkpt><trkpt lat="44.0785045" lon="11.2819355"><ele>774.0</ele><time>2026-05-03T10:22:51.9Z</time></trkpt><trkpt lat="44.0783337" lon="11.2818351"><ele>770.6666666666666</ele><time>2026-05-03T10:22:52.901Z</time></trkpt><trkpt lat="44.0781597" lon="11.2817179"><ele>767.3333333333333</ele><time>2026-05-03T10:22:53.903Z</time></trkpt><trkpt lat="44.0779867" lon="11.2816185"><ele>764.0</ele><time>2026-05-03T10:22:54.901Z</time></trkpt><trkpt lat="44.0778187" lon="11.2815201"><ele>764.0</ele><time>2026-05-03T10:22:55.908Z</time></trkpt><trkpt lat="44.0776626" lon="11.2814715"><ele>764.0</ele><time>2026-05-03T10:22:56.899Z</time></trkpt><trkpt lat="44.0775075" lon="11.2814061"><ele>764.0</ele><time>2026-05-03T10:22:57.899Z</time></trkpt><trkpt lat="44.0773596" lon="11.2813369"><ele>764.25</ele><time>2026-05-03T10:22:58.908Z</time></trkpt><trkpt lat="44.0772154" lon="11.2812793"><ele>764.5</ele><time>2026-05-03T10:22:59.916Z</time></trkpt><trkpt lat="44.0770772" lon="11.2812095"><ele>764.75</ele><time>2026-05-03T10:23:00.907Z</time></trkpt><trkpt lat="44.0769474" lon="11.2811183"><ele>765.0</ele><time>2026-05-03T10:23:01.908Z</time></trkpt><trkpt lat="44.0768302" lon="11.2809668"><ele>765.0</ele><time>2026-05-03T10:23:02.906Z</time></trkpt><trkpt lat="44.0767107" lon="11.2808033"><ele>765.0</ele><time>2026-05-03T10:23:03.902Z</time></trkpt><trkpt lat="44.0765696" lon="11.2806913"><ele>765.0</ele><time>2026-05-03T10:23:04.906Z</time></trkpt><trkpt lat="44.0764052" lon="11.2806465"><ele>765.0</ele><time>2026-05-03T10:23:05.901Z</time></trkpt><trkpt lat="44.076247" lon="11.2806323"><ele>765.0</ele><time>2026-05-03T10:23:06.904Z</time></trkpt><trkpt lat="44.07611" lon="11.2806126"><ele>765.0</ele><time>2026-05-03T10:23:07.899Z</time></trkpt><trkpt lat="44.0759954" lon="11.2805611"><ele>765.0</ele><time>2026-05-03T10:23:08.903Z</time></trkpt><trkpt lat="44.0758977" lon="11.2804738"><ele>765.0</ele><time>2026-05-03T10:23:09.9Z</time></trkpt><trkpt lat="44.0758422" lon="11.2803604"><ele>765.0</ele><time>2026-05-03T10:23:10.916Z</time></trkpt><trkpt lat="44.0758081" lon="11.2801777"><ele>765.0</ele><time>2026-05-03T10:23:11.905Z</time></trkpt><trkpt lat="44.0757863" lon="11.2800125"><ele>765.0</ele><time>2026-05-03T10:23:12.901Z</time></trkpt><trkpt lat="44.0757854" lon="11.2798442"><ele>765.25</ele><time>2026-05-03T10:23:13.908Z</time></trkpt><trkpt lat="44.0757993" lon="11.279667"><ele>765.5</ele><time>2026-05-03T10:23:14.909Z</time></trkpt><trkpt lat="44.0758243" lon="11.2794739"><ele>765.75</ele><time>2026-05-03T10:23:15.928Z</time></trkpt><trkpt lat="44.0758441" lon="11.2792752"><ele>766.0</ele><time>2026-05-03T10:23:16.905Z</time></trkpt><trkpt lat="44.0758704" lon="11.2790683"><ele>766.3333333333334</ele><time>2026-05-03T10:23:17.91Z</time></trkpt><trkpt lat="44.0758968" lon="11.2788524"><ele>766.6666666666666</ele><time>2026-05-03T10:23:18.91Z</time></trkpt><trkpt lat="44.0759207" lon="11.2786394"><ele>767.0</ele><time>2026-05-03T10:23:19.906Z</time></trkpt><trkpt lat="44.0759401" lon="11.278444"><ele>767.0</ele><time>2026-05-03T10:23:20.902Z</time></trkpt><trkpt lat="44.0759464" lon="11.2782662"><ele>767.0</ele><time>2026-05-03T10:23:21.9Z</time></trkpt><trkpt lat="44.0759394" lon="11.2780988"><ele>767.0</ele><time>2026-05-03T10:23:22.903Z</time></trkpt><trkpt lat="44.0759156" lon="11.2779483"><ele>767.0</ele><time>2026-05-03T10:23:23.893Z</time></trkpt><trkpt lat="44.0758692" lon="11.2777986"><ele>767.0</ele><time>2026-05-03T10:23:24.915Z</time></trkpt><trkpt lat="44.0758258" lon="11.2776573"><ele>767.0</ele><time>2026-05-03T10:23:25.904Z</time></trkpt><trkpt lat="44.0757982" lon="11.2775231"><ele>767.0</ele><time>2026-05-03T10:23:26.899Z</time></trkpt><trkpt lat="44.0757961" lon="11.2774156"><ele>767.0</ele><time>2026-05-03T10:23:27.901Z</time></trkpt><trkpt lat="44.075838" lon="11.2773151"><ele>767.0</ele><time>2026-05-03T10:23:28.908Z</time></trkpt><trkpt lat="44.0758912" lon="11.2772173"><ele>767.0</ele><time>2026-05-03T10:23:29.899Z</time></trkpt><trkpt lat="44.0759212" lon="11.2771013"><ele>767.0</ele><time>2026-05-03T10:23:30.905Z</time></trkpt><trkpt lat="44.075942" lon="11.2769819"><ele>767.0</ele><time>2026-05-03T10:23:31.902Z</time></trkpt><trkpt lat="44.0759473" lon="11.2768583"><ele>767.0</ele><time>2026-05-03T10:23:32.9Z</time></trkpt><trkpt lat="44.0759215" lon="11.2767309"><ele>767.0</ele><time>2026-05-03T10:23:33.906Z</time></trkpt><trkpt lat="44.0758596" lon="11.2766122"><ele>761.5</ele><time>2026-05-03T10:23:34.911Z</time></trkpt><trkpt lat="44.0757664" lon="11.2765079"><ele>756.0</ele><time>2026-05-03T10:23:35.897Z</time></trkpt><trkpt lat="44.0756651" lon="11.2763978"><ele>750.5</ele><time>2026-05-03T10:23:36.903Z</time></trkpt><trkpt lat="44.075566" lon="11.2762742"><ele>745.0</ele><time>2026-05-03T10:23:37.905Z</time></trkpt><trkpt lat="44.075469" lon="11.2761482"><ele>745.0</ele><time>2026-05-03T10:23:38.904Z</time></trkpt><trkpt lat="44.0753752" lon="11.2760172"><ele>745.0</ele><time>2026-05-03T10:23:39.903Z</time></trkpt><trkpt lat="44.0752928" lon="11.2758867"><ele>745.0</ele><time>2026-05-03T10:23:40.903Z</time></trkpt><trkpt lat="44.0752275" lon="11.2757386"><ele>745.0</ele><time>2026-05-03T10:23:41.908Z</time></trkpt><trkpt lat="44.0751811" lon="11.2755857"><ele>746.5</ele><time>2026-05-03T10:23:42.904Z</time></trkpt><trkpt lat="44.0751336" lon="11.2754349"><ele>748.0</ele><time>2026-05-03T10:23:43.903Z</time></trkpt><trkpt lat="44.075065" lon="11.2752964"><ele>749.5</ele><time>2026-05-03T10:23:44.899Z</time></trkpt><trkpt lat="44.0749816" lon="11.2751624"><ele>751.0</ele><time>2026-05-03T10:23:45.911Z</time></trkpt><trkpt lat="44.0748711" lon="11.2750571"><ele>747.5</ele><time>2026-05-03T10:23:46.937Z</time></trkpt><trkpt lat="44.0747335" lon="11.2749835"><ele>744.0</ele><time>2026-05-03T10:23:47.901Z</time></trkpt><trkpt lat="44.0745952" lon="11.2749137"><ele>740.5</ele><time>2026-05-03T10:23:48.908Z</time></trkpt><trkpt lat="44.0744628" lon="11.2748352"><ele>737.0</ele><time>2026-05-03T10:23:49.906Z</time></trkpt><trkpt lat="44.0743469" lon="11.27472"><ele>737.0</ele><time>2026-05-03T10:23:50.913Z</time></trkpt><trkpt lat="44.0742456" lon="11.2745841"><ele>737.0</ele><time>2026-05-03T10:23:51.9Z</time></trkpt><trkpt lat="44.0741521" lon="11.2744407"><ele>737.0</ele><time>2026-05-03T10:23:52.902Z</time></trkpt><trkpt lat="44.0740744" lon="11.2742923"><ele>737.0</ele><time>2026-05-03T10:23:53.907Z</time></trkpt><trkpt lat="44.0739974" lon="11.2741643"><ele>733.4000000000001</ele><time>2026-05-03T10:23:54.907Z</time></trkpt><trkpt lat="44.0739327" lon="11.2740479"><ele>729.8000000000001</ele><time>2026-05-03T10:23:55.897Z</time></trkpt><trkpt lat="44.0738983" lon="11.2739049"><ele>726.2</ele><time>2026-05-03T10:23:56.901Z</time></trkpt><trkpt lat="44.0739078" lon="11.2737481"><ele>722.6</ele><time>2026-05-03T10:23:57.903Z</time></trkpt><trkpt lat="44.0739606" lon="11.2736016"><ele>719.0</ele><time>2026-05-03T10:23:58.901Z</time></trkpt><trkpt lat="44.0740101" lon="11.2734633"><ele>718.0</ele><time>2026-05-03T10:23:59.907Z</time></trkpt><trkpt lat="44.0740605" lon="11.2733185"><ele>717.0</ele><time>2026-05-03T10:24:00.9Z</time></trkpt><trkpt lat="44.0741084" lon="11.2731784"><ele>716.0</ele><time>2026-05-03T10:24:01.909Z</time></trkpt><trkpt lat="44.0741547" lon="11.2730259"><ele>715.0</ele><time>2026-05-03T10:24:02.904Z</time></trkpt><trkpt lat="44.074197" lon="11.2728595"><ele>717.25</ele><time>2026-05-03T10:24:03.901Z</time></trkpt><trkpt lat="44.0742168" lon="11.2726791"><ele>719.5</ele><time>2026-05-03T10:24:04.908Z</time></trkpt><trkpt lat="44.0742075" lon="11.2724764"><ele>721.75</ele><time>2026-05-03T10:24:05.898Z</time></trkpt><trkpt lat="44.0741793" lon="11.2722553"><ele>724.0</ele><time>2026-05-03T10:24:06.899Z</time></trkpt><trkpt lat="44.0741383" lon="11.2720379"><ele>719.0</ele><time>2026-05-03T10:24:07.902Z</time></trkpt><trkpt lat="44.0741042" lon="11.2718301"><ele>714.0</ele><time>2026-05-03T10:24:08.905Z</time></trkpt><trkpt lat="44.0740731" lon="11.2716279"><ele>709.0</ele><time>2026-05-03T10:24:09.901Z</time></trkpt><trkpt lat="44.0740492" lon="11.2714348"><ele>704.0</ele><time>2026-05-03T10:24:10.898Z</time></trkpt><trkpt lat="44.0740221" lon="11.271239"><ele>704.0</ele><time>2026-05-03T10:24:11.898Z</time></trkpt><trkpt lat="44.073982" lon="11.2710397"><ele>704.0</ele><time>2026-05-03T10:24:12.897Z</time></trkpt><trkpt lat="44.0739328" lon="11.270848"><ele>704.0</ele><time>2026-05-03T10:24:13.898Z</time></trkpt><trkpt lat="44.073862" lon="11.2706635"><ele>704.0</ele><time>2026-05-03T10:24:14.9Z</time></trkpt><trkpt lat="44.0737674" lon="11.2704869"><ele>703.6666666666666</ele><time>2026-05-03T10:24:15.897Z</time></trkpt><trkpt lat="44.073648" lon="11.2703257"><ele>703.3333333333334</ele><time>2026-05-03T10:24:16.921Z</time></trkpt><trkpt lat="44.0735219" lon="11.270191"><ele>703.0</ele><time>2026-05-03T10:24:17.905Z</time></trkpt><trkpt lat="44.0734034" lon="11.2700938"><ele>703.0</ele><time>2026-05-03T10:24:18.917Z</time></trkpt><trkpt lat="44.0732919" lon="11.2700376"><ele>703.0</ele><time>2026-05-03T10:24:19.902Z</time></trkpt><trkpt lat="44.073188" lon="11.2699901"><ele>703.0</ele><time>2026-05-03T10:24:20.924Z</time></trkpt><trkpt lat="44.073076" lon="11.2699927"><ele>703.0</ele><time>2026-05-03T10:24:21.911Z</time></trkpt><trkpt lat="44.0729607" lon="11.2700178"><ele>701.4</ele><time>2026-05-03T10:24:22.911Z</time></trkpt><trkpt lat="44.0728559" lon="11.2700529"><ele>699.8</ele><time>2026-05-03T10:24:23.906Z</time></trkpt><trkpt lat="44.0727832" lon="11.2701248"><ele>698.2</ele><time>2026-05-03T10:24:24.92Z</time></trkpt><trkpt lat="44.0727372" lon="11.2702369"><ele>696.6</ele><time>2026-05-03T10:24:25.912Z</time></trkpt><trkpt lat="44.0727114" lon="11.2703871"><ele>695.0</ele><time>2026-05-03T10:24:26.917Z</time></trkpt><trkpt lat="44.0727165" lon="11.270561"><ele>696.25</ele><time>2026-05-03T10:24:27.91Z</time></trkpt><trkpt lat="44.0727397" lon="11.2707516"><ele>697.5</ele><time>2026-05-03T10:24:28.913Z</time></trkpt><trkpt lat="44.0727537" lon="11.2709381"><ele>698.75</ele><time>2026-05-03T10:24:29.915Z</time></trkpt><trkpt lat="44.0727657" lon="11.2711176"><ele>700.0</ele><time>2026-05-03T10:24:30.903Z</time></trkpt><trkpt lat="44.0727816" lon="11.2712895"><ele>698.2</ele><time>2026-05-03T10:24:31.905Z</time></trkpt><trkpt lat="44.0727889" lon="11.2714599"><ele>696.4</ele><time>2026-05-03T10:24:32.904Z</time></trkpt><trkpt lat="44.072785" lon="11.271605"><ele>694.5999999999999</ele><time>2026-05-03T10:24:33.917Z</time></trkpt><trkpt lat="44.0727603" lon="11.2717312"><ele>692.8</ele><time>2026-05-03T10:24:34.909Z</time></trkpt><trkpt lat="44.0727088" lon="11.2718335"><ele>691.0</ele><time>2026-05-03T10:24:35.915Z</time></trkpt><trkpt lat="44.0726257" lon="11.2718787"><ele>691.0</ele><time>2026-05-03T10:24:36.909Z</time></trkpt><trkpt lat="44.0725227" lon="11.2718612"><ele>691.0</ele><time>2026-05-03T10:24:37.913Z</time></trkpt><trkpt lat="44.072403" lon="11.2717855"><ele>691.0</ele><time>2026-05-03T10:24:38.9Z</time></trkpt><trkpt lat="44.0722849" lon="11.271678"><ele>691.0</ele><time>2026-05-03T10:24:39.9Z</time></trkpt><trkpt lat="44.0721666" lon="11.2715507"><ele>689.75</ele><time>2026-05-03T10:24:40.903Z</time></trkpt><trkpt lat="44.0720539" lon="11.271421"><ele>688.5</ele><time>2026-05-03T10:24:41.905Z</time></trkpt><trkpt lat="44.0719395" lon="11.271289"><ele>687.25</ele><time>2026-05-03T10:24:42.904Z</time></trkpt><trkpt lat="44.0718246" lon="11.2711712"><ele>686.0</ele><time>2026-05-03T10:24:43.905Z</time></trkpt><trkpt lat="44.0717128" lon="11.2710537"><ele>686.0</ele><time>2026-05-03T10:24:44.904Z</time></trkpt><trkpt lat="44.071612" lon="11.2709166"><ele>686.0</ele><time>2026-05-03T10:24:45.903Z</time></trkpt><trkpt lat="44.0715266" lon="11.2707508"><ele>686.0</ele><time>2026-05-03T10:24:46.906Z</time></trkpt><trkpt lat="44.0714398" lon="11.2705587"><ele>682.0</ele><time>2026-05-03T10:24:47.929Z</time></trkpt><trkpt lat="44.0713282" lon="11.2703845"><ele>678.0</ele><time>2026-05-03T10:24:48.907Z</time></trkpt><trkpt lat="44.0712078" lon="11.2702494"><ele>674.0</ele><time>2026-05-03T10:24:49.911Z</time></trkpt><trkpt lat="44.0710715" lon="11.2701337"><ele>674.0</ele><time>2026-05-03T10:24:50.907Z</time></trkpt><trkpt lat="44.0709403" lon="11.2700451"><ele>674.0</ele><time>2026-05-03T10:24:51.918Z</time></trkpt><trkpt lat="44.07081" lon="11.2699763"><ele>674.0</ele><time>2026-05-03T10:24:52.915Z</time></trkpt><trkpt lat="44.0706966" lon="11.2698913"><ele>674.0</ele><time>2026-05-03T10:24:53.915Z</time></trkpt><trkpt lat="44.0705787" lon="11.2698193"><ele>673.0</ele><time>2026-05-03T10:24:54.911Z</time></trkpt><trkpt lat="44.0704513" lon="11.2697704"><ele>672.0</ele><time>2026-05-03T10:24:55.907Z</time></trkpt><trkpt lat="44.0703132" lon="11.2697602"><ele>671.0</ele><time>2026-05-03T10:24:56.917Z</time></trkpt><trkpt lat="44.0701711" lon="11.2698017"><ele>670.0</ele><time>2026-05-03T10:24:57.908Z</time></trkpt><trkpt lat="44.0700326" lon="11.2698634"><ele>667.3333333333334</ele><time>2026-05-03T10:24:58.907Z</time></trkpt><trkpt lat="44.0698823" lon="11.2699354"><ele>664.6666666666666</ele><time>2026-05-03T10:24:59.908Z</time></trkpt><trkpt lat="44.0697224" lon="11.2699765"><ele>662.0</ele><time>2026-05-03T10:25:00.906Z</time></trkpt><trkpt lat="44.0695571" lon="11.2700081"><ele>662.0</ele><time>2026-05-03T10:25:01.906Z</time></trkpt><trkpt lat="44.0693867" lon="11.2700474"><ele>662.0</ele><time>2026-05-03T10:25:02.907Z</time></trkpt><trkpt lat="44.069231" lon="11.2700806"><ele>662.0</ele><time>2026-05-03T10:25:03.903Z</time></trkpt><trkpt lat="44.06909" lon="11.2701056"><ele>658.75</ele><time>2026-05-03T10:25:04.9Z</time></trkpt><trkpt lat="44.0689559" lon="11.2701273"><ele>655.5</ele><time>2026-05-03T10:25:05.903Z</time></trkpt><trkpt lat="44.0688244" lon="11.2701443"><ele>652.25</ele><time>2026-05-03T10:25:06.899Z</time></trkpt><trkpt lat="44.0686971" lon="11.2701427"><ele>649.0</ele><time>2026-05-03T10:25:07.912Z</time></trkpt><trkpt lat="44.0685732" lon="11.2701094"><ele>649.0</ele><time>2026-05-03T10:25:08.902Z</time></trkpt><trkpt lat="44.0684446" lon="11.2700338"><ele>649.0</ele><time>2026-05-03T10:25:09.911Z</time></trkpt><trkpt lat="44.0683208" lon="11.269938"><ele>649.0</ele><time>2026-05-03T10:25:10.905Z</time></trkpt><trkpt lat="44.0682142" lon="11.2698189"><ele>649.0</ele><time>2026-05-03T10:25:11.906Z</time></trkpt><trkpt lat="44.0681255" lon="11.269713"><ele>645.5</ele><time>2026-05-03T10:25:12.909Z</time></trkpt><trkpt lat="44.0680454" lon="11.2696052"><ele>642.0</ele><time>2026-05-03T10:25:13.907Z</time></trkpt><trkpt lat="44.0679813" lon="11.2694809"><ele>638.5</ele><time>2026-05-03T10:25:14.906Z</time></trkpt><trkpt lat="44.0679395" lon="11.2693113"><ele>635.0</ele><time>2026-05-03T10:25:15.911Z</time></trkpt><trkpt lat="44.0678964" lon="11.2691284"><ele>635.0</ele><time>2026-05-03T10:25:16.909Z</time></trkpt><trkpt lat="44.0678462" lon="11.268945"><ele>635.0</ele><time>2026-05-03T10:25:17.912Z</time></trkpt><trkpt lat="44.0678059" lon="11.2687539"><ele>635.0</ele><time>2026-05-03T10:25:18.922Z</time></trkpt><trkpt lat="44.0677813" lon="11.2685559"><ele>635.0</ele><time>2026-05-03T10:25:19.905Z</time></trkpt><trkpt lat="44.0677593" lon="11.2683784"><ele>635.0</ele><time>2026-05-03T10:25:20.906Z</time></trkpt><trkpt lat="44.0676964" lon="11.2682364"><ele>635.0</ele><time>2026-05-03T10:25:21.902Z</time></trkpt><trkpt lat="44.0675968" lon="11.2681326"><ele>635.0</ele><time>2026-05-03T10:25:22.902Z</time></trkpt><trkpt lat="44.0674758" lon="11.2680593"><ele>635.0</ele><time>2026-05-03T10:25:23.903Z</time></trkpt><trkpt lat="44.0673182" lon="11.2680315"><ele>634.0</ele><time>2026-05-03T10:25:24.903Z</time></trkpt><trkpt lat="44.0671766" lon="11.2680044"><ele>633.0</ele><time>2026-05-03T10:25:25.902Z</time></trkpt><trkpt lat="44.0670482" lon="11.2679691"><ele>632.0</ele><time>2026-05-03T10:25:26.909Z</time></trkpt><trkpt lat="44.0669241" lon="11.2679096"><ele>631.0</ele><time>2026-05-03T10:25:27.908Z</time></trkpt><trkpt lat="44.066808" lon="11.2678218"><ele>631.0</ele><time>2026-05-03T10:25:28.919Z</time></trkpt><trkpt lat="44.0667054" lon="11.2676958"><ele>631.0</ele><time>2026-05-03T10:25:29.909Z</time></trkpt><trkpt lat="44.0666009" lon="11.2675659"><ele>631.0</ele><time>2026-05-03T10:25:30.908Z</time></trkpt><trkpt lat="44.0664877" lon="11.2674508"><ele>631.0</ele><time>2026-05-03T10:25:31.911Z</time></trkpt><trkpt lat="44.066345" lon="11.2673682"><ele>630.0</ele><time>2026-05-03T10:25:32.917Z</time></trkpt><trkpt lat="44.066187" lon="11.2673199"><ele>629.0</ele><time>2026-05-03T10:25:33.905Z</time></trkpt><trkpt lat="44.0660204" lon="11.2673049"><ele>628.0</ele><time>2026-05-03T10:25:34.92Z</time></trkpt><trkpt lat="44.0658635" lon="11.267277"><ele>627.5</ele><time>2026-05-03T10:25:35.907Z</time></trkpt><trkpt lat="44.0657169" lon="11.2672335"><ele>627.0</ele><time>2026-05-03T10:25:36.909Z</time></trkpt><trkpt lat="44.0655917" lon="11.267178"><ele>626.5</ele><time>2026-05-03T10:25:37.908Z</time></trkpt><trkpt lat="44.0654712" lon="11.2671072"><ele>626.0</ele><time>2026-05-03T10:25:38.911Z</time></trkpt><trkpt lat="44.0653407" lon="11.2670427"><ele>626.0</ele><time>2026-05-03T10:25:39.91Z</time></trkpt><trkpt lat="44.0652118" lon="11.2669915"><ele>626.0</ele><time>2026-05-03T10:25:40.91Z</time></trkpt><trkpt lat="44.065091" lon="11.2669419"><ele>626.0</ele><time>2026-05-03T10:25:41.912Z</time></trkpt><trkpt lat="44.0649617" lon="11.2669012"><ele>626.0</ele><time>2026-05-03T10:25:42.905Z</time></trkpt><trkpt lat="44.0648299" lon="11.2668869"><ele>623.5</ele><time>2026-05-03T10:25:43.912Z</time></trkpt><trkpt lat="44.0647003" lon="11.2668968"><ele>621.0</ele><time>2026-05-03T10:25:44.91Z</time></trkpt><trkpt lat="44.0645791" lon="11.2668992"><ele>618.5</ele><time>2026-05-03T10:25:45.911Z</time></trkpt><trkpt lat="44.0644606" lon="11.2668997"><ele>616.0</ele><time>2026-05-03T10:25:46.916Z</time></trkpt><trkpt lat="44.0643451" lon="11.2668885"><ele>616.0</ele><time>2026-05-03T10:25:47.919Z</time></trkpt><trkpt lat="44.0642344" lon="11.2668605"><ele>616.0</ele><time>2026-05-03T10:25:48.915Z</time></trkpt><trkpt lat="44.0641366" lon="11.2667875"><ele>616.0</ele><time>2026-05-03T10:25:49.937Z</time></trkpt><trkpt lat="44.0640532" lon="11.266656"><ele>616.0</ele><time>2026-05-03T10:25:50.922Z</time></trkpt><trkpt lat="44.0639737" lon="11.2664862"><ele>611.0</ele><time>2026-05-03T10:25:51.922Z</time></trkpt><trkpt lat="44.0638813" lon="11.2662974"><ele>606.0</ele><time>2026-05-03T10:25:52.91Z</time></trkpt><trkpt lat="44.0637794" lon="11.2660901"><ele>601.0</ele><time>2026-05-03T10:25:53.909Z</time></trkpt><trkpt lat="44.0636643" lon="11.2658956"><ele>601.0</ele><time>2026-05-03T10:25:54.902Z</time></trkpt><trkpt lat="44.0635464" lon="11.265705"><ele>601.0</ele><time>2026-05-03T10:25:55.907Z</time></trkpt><trkpt lat="44.0634555" lon="11.2654832"><ele>601.0</ele><time>2026-05-03T10:25:56.912Z</time></trkpt><trkpt lat="44.0633896" lon="11.2652289"><ele>601.6666666666667</ele><time>2026-05-03T10:25:57.903Z</time></trkpt><trkpt lat="44.0633051" lon="11.2650015"><ele>602.3333333333334</ele><time>2026-05-03T10:25:58.905Z</time></trkpt><trkpt lat="44.0632145" lon="11.2647822"><ele>603.0</ele><time>2026-05-03T10:25:59.912Z</time></trkpt><trkpt lat="44.0631186" lon="11.2645847"><ele>598.3333333333334</ele><time>2026-05-03T10:26:00.899Z</time></trkpt><trkpt lat="44.0630093" lon="11.2644072"><ele>593.6666666666667</ele><time>2026-05-03T10:26:01.9Z</time></trkpt><trkpt lat="44.0628754" lon="11.264253"><ele>589.0</ele><time>2026-05-03T10:26:02.905Z</time></trkpt><trkpt lat="44.0627182" lon="11.2641411"><ele>589.0</ele><time>2026-05-03T10:26:03.904Z</time></trkpt><trkpt lat="44.0625459" lon="11.2640332"><ele>589.0</ele><time>2026-05-03T10:26:04.905Z</time></trkpt><trkpt lat="44.0623681" lon="11.2639252"><ele>589.0</ele><time>2026-05-03T10:26:05.909Z</time></trkpt><trkpt lat="44.0621824" lon="11.263802"><ele>585.0</ele><time>2026-05-03T10:26:06.914Z</time></trkpt><trkpt lat="44.0619792" lon="11.2636746"><ele>581.0</ele><time>2026-05-03T10:26:07.911Z</time></trkpt><trkpt lat="44.0617732" lon="11.2635547"><ele>577.0</ele><time>2026-05-03T10:26:08.918Z</time></trkpt><trkpt lat="44.0615713" lon="11.2634287"><ele>575.3333333333334</ele><time>2026-05-03T10:26:09.916Z</time></trkpt><trkpt lat="44.0613726" lon="11.2633032"><ele>573.6666666666666</ele><time>2026-05-03T10:26:10.924Z</time></trkpt><trkpt lat="44.0611711" lon="11.2631809"><ele>572.0</ele><time>2026-05-03T10:26:11.917Z</time></trkpt><trkpt lat="44.0609695" lon="11.2630618"><ele>573.0</ele><time>2026-05-03T10:26:12.917Z</time></trkpt><trkpt lat="44.0607624" lon="11.2629788"><ele>574.0</ele><time>2026-05-03T10:26:13.919Z</time></trkpt><trkpt lat="44.0605423" lon="11.2629385"><ele>575.0</ele><time>2026-05-03T10:26:14.917Z</time></trkpt><trkpt lat="44.0603127" lon="11.2629423"><ele>575.0</ele><time>2026-05-03T10:26:15.911Z</time></trkpt><trkpt lat="44.0600656" lon="11.2629529"><ele>575.0</ele><time>2026-05-03T10:26:16.917Z</time></trkpt><trkpt lat="44.0598114" lon="11.2629674"><ele>569.5</ele><time>2026-05-03T10:26:17.913Z</time></trkpt><trkpt lat="44.0595568" lon="11.2629763"><ele>564.0</ele><time>2026-05-03T10:26:18.913Z</time></trkpt><trkpt lat="44.0593203" lon="11.2629859"><ele>562.0</ele><time>2026-05-03T10:26:19.913Z</time></trkpt><trkpt lat="44.059095" lon="11.2629849"><ele>560.0</ele><time>2026-05-03T10:26:20.931Z</time></trkpt><trkpt lat="44.0588825" lon="11.2629943"><ele>558.0</ele><time>2026-05-03T10:26:21.915Z</time></trkpt><trkpt lat="44.0586831" lon="11.2630025"><ele>558.0</ele><time>2026-05-03T10:26:22.912Z</time></trkpt><trkpt lat="44.0584957" lon="11.2630106"><ele>558.0</ele><time>2026-05-03T10:26:23.911Z</time></trkpt><trkpt lat="44.058323" lon="11.2629954"><ele>558.0</ele><time>2026-05-03T10:26:24.929Z</time></trkpt><trkpt lat="44.0581665" lon="11.2629237"><ele>557.0</ele><time>2026-05-03T10:26:25.918Z</time></trkpt><trkpt lat="44.0580167" lon="11.2627812"><ele>556.0</ele><time>2026-05-03T10:26:26.914Z</time></trkpt><trkpt lat="44.0578739" lon="11.2626527"><ele>555.0</ele><time>2026-05-03T10:26:27.916Z</time></trkpt><trkpt lat="44.0577206" lon="11.2625398"><ele>555.0</ele><time>2026-05-03T10:26:28.915Z</time></trkpt><trkpt lat="44.0575504" lon="11.2624333"><ele>555.0</ele><time>2026-05-03T10:26:29.922Z</time></trkpt><trkpt lat="44.0573889" lon="11.2623597"><ele>555.0</ele><time>2026-05-03T10:26:30.92Z</time></trkpt><trkpt lat="44.0572392" lon="11.2623396"><ele>552.6666666666666</ele><time>2026-05-03T10:26:31.919Z</time></trkpt><trkpt lat="44.0570909" lon="11.2623932"><ele>550.3333333333333</ele><time>2026-05-03T10:26:32.915Z</time></trkpt><trkpt lat="44.0569468" lon="11.262496"><ele>548.0</ele><time>2026-05-03T10:26:33.913Z</time></trkpt><trkpt lat="44.0568189" lon="11.2626086"><ele>548.0</ele><time>2026-05-03T10:26:34.909Z</time></trkpt><trkpt lat="44.0567126" lon="11.2627119"><ele>548.0</ele><time>2026-05-03T10:26:35.91Z</time></trkpt><trkpt lat="44.0566072" lon="11.2627744"><ele>548.0</ele><time>2026-05-03T10:26:36.907Z</time></trkpt><trkpt lat="44.0564933" lon="11.2627808"><ele>548.0</ele><time>2026-05-03T10:26:37.916Z</time></trkpt><trkpt lat="44.0563974" lon="11.2627013"><ele>545.75</ele><time>2026-05-03T10:26:38.907Z</time></trkpt><trkpt lat="44.0563008" lon="11.2625769"><ele>543.5</ele><time>2026-05-03T10:26:39.901Z</time></trkpt><trkpt lat="44.0562018" lon="11.2624389"><ele>541.25</ele><time>2026-05-03T10:26:40.907Z</time></trkpt><trkpt lat="44.0560797" lon="11.2623171"><ele>539.0</ele><time>2026-05-03T10:26:41.914Z</time></trkpt><trkpt lat="44.0559107" lon="11.2622287"><ele>536.0</ele><time>2026-05-03T10:26:42.922Z</time></trkpt><trkpt lat="44.0556974" lon="11.2621751"><ele>533.0</ele><time>2026-05-03T10:26:43.906Z</time></trkpt><trkpt lat="44.0554749" lon="11.2620999"><ele>530.0</ele><time>2026-05-03T10:26:44.907Z</time></trkpt><trkpt lat="44.0552502" lon="11.2620173"><ele>530.0</ele><time>2026-05-03T10:26:45.913Z</time></trkpt><trkpt lat="44.0550147" lon="11.2619274"><ele>530.0</ele><time>2026-05-03T10:26:46.908Z</time></trkpt><trkpt lat="44.0547813" lon="11.2618422"><ele>531.3333333333333</ele><time>2026-05-03T10:26:47.929Z</time></trkpt><trkpt lat="44.0545593" lon="11.2617575"><ele>532.6666666666666</ele><time>2026-05-03T10:26:48.913Z</time></trkpt><trkpt lat="44.0543554" lon="11.2616716"><ele>534.0</ele><time>2026-05-03T10:26:49.915Z</time></trkpt><trkpt lat="44.0541727" lon="11.2615963"><ele>535.6666666666666</ele><time>2026-05-03T10:26:50.924Z</time></trkpt><trkpt lat="44.0540001" lon="11.2615265"><ele>537.3333333333333</ele><time>2026-05-03T10:26:51.935Z</time></trkpt><trkpt lat="44.0538381" lon="11.2614575"><ele>539.0</ele><time>2026-05-03T10:26:52.912Z</time></trkpt><trkpt lat="44.0536866" lon="11.2613884"><ele>535.3333333333333</ele><time>2026-05-03T10:26:53.908Z</time></trkpt><trkpt lat="44.0535488" lon="11.2613025"><ele>531.6666666666666</ele><time>2026-05-03T10:26:54.906Z</time></trkpt><trkpt lat="44.0534222" lon="11.2611871"><ele>528.0</ele><time>2026-05-03T10:26:55.906Z</time></trkpt><trkpt lat="44.0532859" lon="11.2610692"><ele>528.0</ele><time>2026-05-03T10:26:56.905Z</time></trkpt><trkpt lat="44.0531375" lon="11.2609375"><ele>528.0</ele><time>2026-05-03T10:26:57.903Z</time></trkpt><trkpt lat="44.0529969" lon="11.2608133"><ele>528.0</ele><time>2026-05-03T10:26:58.91Z</time></trkpt><trkpt lat="44.0528826" lon="11.2606953"><ele>524.75</ele><time>2026-05-03T10:26:59.91Z</time></trkpt><trkpt lat="44.0527786" lon="11.2606055"><ele>521.5</ele><time>2026-05-03T10:27:00.902Z</time></trkpt><trkpt lat="44.0526697" lon="11.2605516"><ele>518.25</ele><time>2026-05-03T10:27:01.91Z</time></trkpt><trkpt lat="44.0525354" lon="11.2605134"><ele>515.0</ele><time>2026-05-03T10:27:02.91Z</time></trkpt><trkpt lat="44.0523862" lon="11.2605124"><ele>516.5</ele><time>2026-05-03T10:27:03.904Z</time></trkpt><trkpt lat="44.0522314" lon="11.2605316"><ele>518.0</ele><time>2026-05-03T10:27:04.901Z</time></trkpt><trkpt lat="44.0520911" lon="11.2605597"><ele>519.5</ele><time>2026-05-03T10:27:05.896Z</time></trkpt><trkpt lat="44.05196" lon="11.2606118"><ele>521.0</ele><time>2026-05-03T10:27:06.911Z</time></trkpt><trkpt lat="44.0518429" lon="11.2606717"><ele>521.0</ele><time>2026-05-03T10:27:07.9Z</time></trkpt><trkpt lat="44.0517404" lon="11.2607183"><ele>521.0</ele><time>2026-05-03T10:27:08.902Z</time></trkpt><trkpt lat="44.0516447" lon="11.2607678"><ele>521.0</ele><time>2026-05-03T10:27:09.905Z</time></trkpt><trkpt lat="44.0515334" lon="11.2608152"><ele>521.0</ele><time>2026-05-03T10:27:10.908Z</time></trkpt><trkpt lat="44.05143" lon="11.2608668"><ele>521.0</ele><time>2026-05-03T10:27:11.904Z</time></trkpt><trkpt lat="44.0513167" lon="11.2609058"><ele>520.25</ele><time>2026-05-03T10:27:12.9Z</time></trkpt><trkpt lat="44.0511906" lon="11.2609453"><ele>519.5</ele><time>2026-05-03T10:27:13.899Z</time></trkpt><trkpt lat="44.0510562" lon="11.2609933"><ele>518.75</ele><time>2026-05-03T10:27:14.902Z</time></trkpt><trkpt lat="44.0509186" lon="11.2610481"><ele>518.0</ele><time>2026-05-03T10:27:15.903Z</time></trkpt><trkpt lat="44.050772" lon="11.2611083"><ele>517.3333333333333</ele><time>2026-05-03T10:27:16.907Z</time></trkpt><trkpt lat="44.0505973" lon="11.2611679"><ele>516.6666666666666</ele><time>2026-05-03T10:27:17.909Z</time></trkpt><trkpt lat="44.0504168" lon="11.261214"><ele>516.0</ele><time>2026-05-03T10:27:18.904Z</time></trkpt><trkpt lat="44.0502359" lon="11.2612563"><ele>516.0</ele><time>2026-05-03T10:27:19.9Z</time></trkpt><trkpt lat="44.0500519" lon="11.2612694"><ele>516.0</ele><time>2026-05-03T10:27:20.91Z</time></trkpt><trkpt lat="44.0498608" lon="11.26126"><ele>516.0</ele><time>2026-05-03T10:27:21.903Z</time></trkpt><trkpt lat="44.0496655" lon="11.2612394"><ele>515.3333333333334</ele><time>2026-05-03T10:27:22.92Z</time></trkpt><trkpt lat="44.0494765" lon="11.2612079"><ele>514.6666666666667</ele><time>2026-05-03T10:27:23.899Z</time></trkpt><trkpt lat="44.0492915" lon="11.2611668"><ele>514.0</ele><time>2026-05-03T10:27:24.907Z</time></trkpt><trkpt lat="44.0491305" lon="11.261107"><ele>515.3333333333334</ele><time>2026-05-03T10:27:25.919Z</time></trkpt><trkpt lat="44.04897" lon="11.261031"><ele>516.6666666666666</ele><time>2026-05-03T10:27:26.907Z</time></trkpt><trkpt lat="44.0488221" lon="11.2609638"><ele>518.0</ele><time>2026-05-03T10:27:27.917Z</time></trkpt><trkpt lat="44.0487077" lon="11.2608676"><ele>518.0</ele><time>2026-05-03T10:27:28.911Z</time></trkpt><trkpt lat="44.0485937" lon="11.2607597"><ele>518.0</ele><time>2026-05-03T10:27:29.914Z</time></trkpt><trkpt lat="44.048491" lon="11.2606161"><ele>518.0</ele><time>2026-05-03T10:27:30.917Z</time></trkpt><trkpt lat="44.048373" lon="11.260486"><ele>518.0</ele><time>2026-05-03T10:27:31.916Z</time></trkpt><trkpt lat="44.0482534" lon="11.260345"><ele>516.25</ele><time>2026-05-03T10:27:32.914Z</time></trkpt><trkpt lat="44.0481472" lon="11.2602044"><ele>514.5</ele><time>2026-05-03T10:27:33.913Z</time></trkpt><trkpt lat="44.0480421" lon="11.2600579"><ele>512.75</ele><time>2026-05-03T10:27:34.913Z</time></trkpt><trkpt lat="44.0479409" lon="11.2598981"><ele>511.0</ele><time>2026-05-03T10:27:35.913Z</time></trkpt><trkpt lat="44.0478122" lon="11.2597421"><ele>513.6666666666667</ele><time>2026-05-03T10:27:36.912Z</time></trkpt><trkpt lat="44.0476587" lon="11.2595995"><ele>516.3333333333334</ele><time>2026-05-03T10:27:37.904Z</time></trkpt><trkpt lat="44.0474929" lon="11.2594481"><ele>519.0</ele><time>2026-05-03T10:27:38.906Z</time></trkpt><trkpt lat="44.0473332" lon="11.2592971"><ele>519.0</ele><time>2026-05-03T10:27:39.91Z</time></trkpt><trkpt lat="44.0471725" lon="11.2591326"><ele>519.0</ele><time>2026-05-03T10:27:40.907Z</time></trkpt><trkpt lat="44.0470103" lon="11.2589695"><ele>519.0</ele><time>2026-05-03T10:27:41.904Z</time></trkpt><trkpt lat="44.0468628" lon="11.2588077"><ele>516.0</ele><time>2026-05-03T10:27:42.899Z</time></trkpt><trkpt lat="44.0467283" lon="11.25866"><ele>513.0</ele><time>2026-05-03T10:27:43.905Z</time></trkpt><trkpt lat="44.0466168" lon="11.2585171"><ele>510.0</ele><time>2026-05-03T10:27:44.906Z</time></trkpt><trkpt lat="44.0465208" lon="11.258377"><ele>510.0</ele><time>2026-05-03T10:27:45.904Z</time></trkpt><trkpt lat="44.0464318" lon="11.2582494"><ele>510.0</ele><time>2026-05-03T10:27:46.912Z</time></trkpt><trkpt lat="44.0463476" lon="11.2581568"><ele>510.0</ele><time>2026-05-03T10:27:47.907Z</time></trkpt><trkpt lat="44.0462545" lon="11.2580879"><ele>510.0</ele><time>2026-05-03T10:27:48.913Z</time></trkpt><trkpt lat="44.0461463" lon="11.2580536"><ele>508.25</ele><time>2026-05-03T10:27:49.909Z</time></trkpt><trkpt lat="44.0460297" lon="11.2580552"><ele>506.5</ele><time>2026-05-03T10:27:50.914Z</time></trkpt><trkpt lat="44.0459083" lon="11.258095"><ele>504.75</ele><time>2026-05-03T10:27:51.913Z</time></trkpt><trkpt lat="44.0457727" lon="11.2581556"><ele>503.0</ele><time>2026-05-03T10:27:52.917Z</time></trkpt><trkpt lat="44.0456279" lon="11.2582339"><ele>503.0</ele><time>2026-05-03T10:27:53.925Z</time></trkpt><trkpt lat="44.0454674" lon="11.258322"><ele>503.0</ele><time>2026-05-03T10:27:54.913Z</time></trkpt><trkpt lat="44.0452975" lon="11.258404"><ele>503.0</ele><time>2026-05-03T10:27:55.915Z</time></trkpt><trkpt lat="44.0451137" lon="11.2584474"><ele>499.3333333333333</ele><time>2026-05-03T10:27:56.905Z</time></trkpt><trkpt lat="44.0449394" lon="11.2584769"><ele>495.66666666666663</ele><time>2026-05-03T10:27:57.916Z</time></trkpt><trkpt lat="44.0447715" lon="11.2585238"><ele>492.0</ele><time>2026-05-03T10:27:58.907Z</time></trkpt><trkpt lat="44.0446133" lon="11.2585828"><ele>492.0</ele><time>2026-05-03T10:27:59.909Z</time></trkpt><trkpt lat="44.0444681" lon="11.2586356"><ele>492.0</ele><time>2026-05-03T10:28:00.91Z</time></trkpt><trkpt lat="44.0443154" lon="11.2586908"><ele>492.0</ele><time>2026-05-03T10:28:01.912Z</time></trkpt><trkpt lat="44.0441562" lon="11.2587504"><ele>490.33333333333337</ele><time>2026-05-03T10:28:02.915Z</time></trkpt><trkpt lat="44.0439969" lon="11.2588046"><ele>488.6666666666667</ele><time>2026-05-03T10:28:03.916Z</time></trkpt><trkpt lat="44.0438364" lon="11.2588524"><ele>487.0</ele><time>2026-05-03T10:28:04.912Z</time></trkpt><trkpt lat="44.0436784" lon="11.2588782"><ele>487.0</ele><time>2026-05-03T10:28:05.913Z</time></trkpt><trkpt lat="44.043529" lon="11.25889"><ele>487.0</ele><time>2026-05-03T10:28:06.923Z</time></trkpt><trkpt lat="44.0433758" lon="11.258896"><ele>487.0</ele><time>2026-05-03T10:28:07.913Z</time></trkpt><trkpt lat="44.0432308" lon="11.2589008"><ele>487.0</ele><time>2026-05-03T10:28:08.913Z</time></trkpt><trkpt lat="44.0430841" lon="11.2589062"><ele>486.75</ele><time>2026-05-03T10:28:09.916Z</time></trkpt><trkpt lat="44.0429381" lon="11.2589087"><ele>486.5</ele><time>2026-05-03T10:28:10.92Z</time></trkpt><trkpt lat="44.0428044" lon="11.258918"><ele>486.25</ele><time>2026-05-03T10:28:11.915Z</time></trkpt><trkpt lat="44.0426813" lon="11.2589461"><ele>486.0</ele><time>2026-05-03T10:28:12.914Z</time></trkpt><trkpt lat="44.0425736" lon="11.2589771"><ele>486.25</ele><time>2026-05-03T10:28:13.916Z</time></trkpt><trkpt lat="44.0424703" lon="11.2589734"><ele>486.5</ele><time>2026-05-03T10:28:14.914Z</time></trkpt><trkpt lat="44.0423462" lon="11.2589111"><ele>486.75</ele><time>2026-05-03T10:28:15.907Z</time></trkpt><trkpt lat="44.0422113" lon="11.2588428"><ele>487.0</ele><time>2026-05-03T10:28:16.909Z</time></trkpt><trkpt lat="44.0420496" lon="11.2587812"><ele>487.0</ele><time>2026-05-03T10:28:17.914Z</time></trkpt><trkpt lat="44.0418783" lon="11.2587331"><ele>487.0</ele><time>2026-05-03T10:28:18.911Z</time></trkpt><trkpt lat="44.0416973" lon="11.2586692"><ele>487.0</ele><time>2026-05-03T10:28:19.912Z</time></trkpt><trkpt lat="44.0415121" lon="11.2585868"><ele>487.6666666666667</ele><time>2026-05-03T10:28:20.916Z</time></trkpt><trkpt lat="44.0413271" lon="11.2584928"><ele>488.33333333333337</ele><time>2026-05-03T10:28:21.905Z</time></trkpt><trkpt lat="44.0411431" lon="11.2583983"><ele>489.0</ele><time>2026-05-03T10:28:22.91Z</time></trkpt><trkpt lat="44.0409778" lon="11.2582949"><ele>489.0</ele><time>2026-05-03T10:28:23.906Z</time></trkpt><trkpt lat="44.0408281" lon="11.2581722"><ele>489.0</ele><time>2026-05-03T10:28:24.92Z</time></trkpt><trkpt lat="44.0406896" lon="11.2580254"><ele>489.0</ele><time>2026-05-03T10:28:25.911Z</time></trkpt><trkpt lat="44.0405823" lon="11.2578508"><ele>489.25</ele><time>2026-05-03T10:28:26.91Z</time></trkpt><trkpt lat="44.040524" lon="11.2576863"><ele>489.5</ele><time>2026-05-03T10:28:27.907Z</time></trkpt><trkpt lat="44.0405091" lon="11.2575029"><ele>489.75</ele><time>2026-05-03T10:28:28.916Z</time></trkpt><trkpt lat="44.0405213" lon="11.2572904"><ele>490.0</ele><time>2026-05-03T10:28:29.916Z</time></trkpt><trkpt lat="44.0405304" lon="11.2570677"><ele>490.0</ele><time>2026-05-03T10:28:30.913Z</time></trkpt><trkpt lat="44.0405362" lon="11.2568641"><ele>490.0</ele><time>2026-05-03T10:28:31.923Z</time></trkpt><trkpt lat="44.0405076" lon="11.2566997"><ele>490.0</ele><time>2026-05-03T10:28:32.903Z</time></trkpt><trkpt lat="44.0404408" lon="11.2565546"><ele>490.0</ele><time>2026-05-03T10:28:33.914Z</time></trkpt><trkpt lat="44.0403585" lon="11.256418"><ele>488.5</ele><time>2026-05-03T10:28:34.91Z</time></trkpt><trkpt lat="44.0403356" lon="11.2562572"><ele>487.0</ele><time>2026-05-03T10:28:35.921Z</time></trkpt><trkpt lat="44.0403697" lon="11.2560658"><ele>485.5</ele><time>2026-05-03T10:28:36.918Z</time></trkpt><trkpt lat="44.0404235" lon="11.2558854"><ele>484.0</ele><time>2026-05-03T10:28:37.91Z</time></trkpt><trkpt lat="44.0404903" lon="11.2557036"><ele>478.33333333333337</ele><time>2026-05-03T10:28:38.91Z</time></trkpt><trkpt lat="44.0405864" lon="11.255537"><ele>472.66666666666663</ele><time>2026-05-03T10:28:39.917Z</time></trkpt><trkpt lat="44.0407167" lon="11.2553582"><ele>467.0</ele><time>2026-05-03T10:28:40.915Z</time></trkpt><trkpt lat="44.0408329" lon="11.2551947"><ele>467.0</ele><time>2026-05-03T10:28:41.915Z</time></trkpt><trkpt lat="44.0409284" lon="11.2550371"><ele>467.00000000000006</ele><time>2026-05-03T10:28:42.911Z</time></trkpt><trkpt lat="44.0409972" lon="11.2548998"><ele>467.00000000000006</ele><time>2026-05-03T10:28:43.909Z</time></trkpt><trkpt lat="44.0410405" lon="11.2547904"><ele>467.0</ele><time>2026-05-03T10:28:44.908Z</time></trkpt><trkpt lat="44.0410564" lon="11.2546781"><ele>467.0</ele><time>2026-05-03T10:28:45.914Z</time></trkpt><trkpt lat="44.0409778" lon="11.254579"><ele>464.25</ele><time>2026-05-03T10:28:46.915Z</time></trkpt><trkpt lat="44.0408654" lon="11.2545141"><ele>461.5</ele><time>2026-05-03T10:28:47.916Z</time></trkpt><trkpt lat="44.0407255" lon="11.2545391"><ele>458.75</ele><time>2026-05-03T10:28:48.911Z</time></trkpt><trkpt lat="44.0405898" lon="11.2546386"><ele>456.0</ele><time>2026-05-03T10:28:49.911Z</time></trkpt><trkpt lat="44.0404653" lon="11.2547459"><ele>458.75</ele><time>2026-05-03T10:28:50.904Z</time></trkpt><trkpt lat="44.0403459" lon="11.2548635"><ele>461.5</ele><time>2026-05-03T10:28:51.899Z</time></trkpt><trkpt lat="44.0402355" lon="11.2549776"><ele>464.25</ele><time>2026-05-03T10:28:52.899Z</time></trkpt><trkpt lat="44.0401372" lon="11.2550729"><ele>467.0</ele><time>2026-05-03T10:28:53.893Z</time></trkpt><trkpt lat="44.0400392" lon="11.2551031"><ele>463.5</ele><time>2026-05-03T10:28:54.898Z</time></trkpt><trkpt lat="44.0399323" lon="11.2550555"><ele>460.0</ele><time>2026-05-03T10:28:55.908Z</time></trkpt><trkpt lat="44.0398182" lon="11.2549989"><ele>456.5</ele><time>2026-05-03T10:28:56.9Z</time></trkpt><trkpt lat="44.0397303" lon="11.2548909"><ele>453.0</ele><time>2026-05-03T10:28:57.9Z</time></trkpt><trkpt lat="44.0396053" lon="11.2547811"><ele>450.5</ele><time>2026-05-03T10:28:58.907Z</time></trkpt><trkpt lat="44.0394697" lon="11.2547273"><ele>448.0</ele><time>2026-05-03T10:28:59.912Z</time></trkpt><trkpt lat="44.0393369" lon="11.2547182"><ele>445.5</ele><time>2026-05-03T10:29:00.911Z</time></trkpt><trkpt lat="44.0392076" lon="11.2547692"><ele>443.0</ele><time>2026-05-03T10:29:01.911Z</time></trkpt><trkpt lat="44.039084" lon="11.2548805"><ele>443.0</ele><time>2026-05-03T10:29:02.908Z</time></trkpt><trkpt lat="44.0389677" lon="11.2550424"><ele>443.0</ele><time>2026-05-03T10:29:03.895Z</time></trkpt><trkpt lat="44.0388616" lon="11.2552246"><ele>443.0</ele><time>2026-05-03T10:29:04.893Z</time></trkpt><trkpt lat="44.0387735" lon="11.2554117"><ele>443.0</ele><time>2026-05-03T10:29:05.895Z</time></trkpt><trkpt lat="44.0386948" lon="11.2555883"><ele>443.0</ele><time>2026-05-03T10:29:06.895Z</time></trkpt><trkpt lat="44.0386051" lon="11.2557436"><ele>443.0</ele><time>2026-05-03T10:29:07.895Z</time></trkpt><trkpt lat="44.0384776" lon="11.2558268"><ele>443.0</ele><time>2026-05-03T10:29:08.902Z</time></trkpt><trkpt lat="44.0383518" lon="11.2558516"><ele>447.0</ele><time>2026-05-03T10:29:09.905Z</time></trkpt><trkpt lat="44.0382485" lon="11.2558272"><ele>451.0</ele><time>2026-05-03T10:29:10.898Z</time></trkpt><trkpt lat="44.0381148" lon="11.255779"><ele>455.0</ele><time>2026-05-03T10:29:11.896Z</time></trkpt><trkpt lat="44.0379735" lon="11.255706"><ele>459.0</ele><time>2026-05-03T10:29:12.904Z</time></trkpt><trkpt lat="44.0378539" lon="11.255599"><ele>459.0</ele><time>2026-05-03T10:29:13.898Z</time></trkpt><trkpt lat="44.0377531" lon="11.255468"><ele>459.0</ele><time>2026-05-03T10:29:14.894Z</time></trkpt><trkpt lat="44.0376821" lon="11.2552932"><ele>459.0</ele><time>2026-05-03T10:29:15.895Z</time></trkpt><trkpt lat="44.0376226" lon="11.2551241"><ele>459.0</ele><time>2026-05-03T10:29:16.899Z</time></trkpt><trkpt lat="44.037577" lon="11.2549567"><ele>459.0</ele><time>2026-05-03T10:29:17.903Z</time></trkpt><trkpt lat="44.037581" lon="11.2548024"><ele>459.0</ele><time>2026-05-03T10:29:18.9Z</time></trkpt><trkpt lat="44.0376058" lon="11.2546269"><ele>459.0</ele><time>2026-05-03T10:29:19.898Z</time></trkpt><trkpt lat="44.0376286" lon="11.25445"><ele>459.0</ele><time>2026-05-03T10:29:20.91Z</time></trkpt><trkpt lat="44.0376116" lon="11.254271"><ele>458.75</ele><time>2026-05-03T10:29:21.905Z</time></trkpt><trkpt lat="44.0375558" lon="11.2541081"><ele>458.5</ele><time>2026-05-03T10:29:22.913Z</time></trkpt><trkpt lat="44.0374708" lon="11.2539729"><ele>458.25</ele><time>2026-05-03T10:29:23.903Z</time></trkpt><trkpt lat="44.0373973" lon="11.253839"><ele>458.0</ele><time>2026-05-03T10:29:24.902Z</time></trkpt><trkpt lat="44.0373587" lon="11.2536902"><ele>458.0</ele><time>2026-05-03T10:29:25.905Z</time></trkpt><trkpt lat="44.0373423" lon="11.2535144"><ele>458.0</ele><time>2026-05-03T10:29:26.921Z</time></trkpt><trkpt lat="44.0373309" lon="11.2533176"><ele>458.0</ele><time>2026-05-03T10:29:27.905Z</time></trkpt><trkpt lat="44.0373115" lon="11.253108"><ele>458.0</ele><time>2026-05-03T10:29:28.915Z</time></trkpt><trkpt lat="44.0372898" lon="11.252877"><ele>460.3333333333333</ele><time>2026-05-03T10:29:29.914Z</time></trkpt><trkpt lat="44.0372789" lon="11.2526426"><ele>462.66666666666663</ele><time>2026-05-03T10:29:30.912Z</time></trkpt><trkpt lat="44.0372917" lon="11.2524264"><ele>465.0</ele><time>2026-05-03T10:29:31.907Z</time></trkpt><trkpt lat="44.0373211" lon="11.2522293"><ele>466.33333333333337</ele><time>2026-05-03T10:29:32.903Z</time></trkpt><trkpt lat="44.0373974" lon="11.252039"><ele>467.6666666666667</ele><time>2026-05-03T10:29:33.904Z</time></trkpt><trkpt lat="44.037487" lon="11.2518486"><ele>469.0</ele><time>2026-05-03T10:29:34.903Z</time></trkpt><trkpt lat="44.0375644" lon="11.251656"><ele>460.6666666666667</ele><time>2026-05-03T10:29:35.903Z</time></trkpt><trkpt lat="44.0376295" lon="11.2514607"><ele>452.33333333333337</ele><time>2026-05-03T10:29:36.9Z</time></trkpt><trkpt lat="44.0376995" lon="11.2512734"><ele>444.0</ele><time>2026-05-03T10:29:37.907Z</time></trkpt><trkpt lat="44.0377664" lon="11.2510948"><ele>442.5</ele><time>2026-05-03T10:29:38.907Z</time></trkpt><trkpt lat="44.0378371" lon="11.2509247"><ele>441.0</ele><time>2026-05-03T10:29:39.91Z</time></trkpt><trkpt lat="44.0378919" lon="11.2507687"><ele>439.5</ele><time>2026-05-03T10:29:40.906Z</time></trkpt><trkpt lat="44.0379322" lon="11.2506293"><ele>438.0</ele><time>2026-05-03T10:29:41.908Z</time></trkpt><trkpt lat="44.0379331" lon="11.2505088"><ele>432.5</ele><time>2026-05-03T10:29:42.916Z</time></trkpt><trkpt lat="44.0378572" lon="11.2504148"><ele>427.0</ele><time>2026-05-03T10:29:43.915Z</time></trkpt><trkpt lat="44.0377481" lon="11.2503754"><ele>421.5</ele><time>2026-05-03T10:29:44.909Z</time></trkpt><trkpt lat="44.0376286" lon="11.2503828"><ele>416.0</ele><time>2026-05-03T10:29:45.91Z</time></trkpt><trkpt lat="44.0374991" lon="11.2504318"><ele>418.25</ele><time>2026-05-03T10:29:46.899Z</time></trkpt><trkpt lat="44.0373578" lon="11.2504903"><ele>420.5</ele><time>2026-05-03T10:29:47.906Z</time></trkpt><trkpt lat="44.0372164" lon="11.2505541"><ele>422.75</ele><time>2026-05-03T10:29:48.9Z</time></trkpt><trkpt lat="44.03707" lon="11.2505957"><ele>425.0</ele><time>2026-05-03T10:29:49.9Z</time></trkpt><trkpt lat="44.0369313" lon="11.2506171"><ele>425.0</ele><time>2026-05-03T10:29:50.898Z</time></trkpt><trkpt lat="44.0368004" lon="11.2506275"><ele>425.0</ele><time>2026-05-03T10:29:51.89Z</time></trkpt><trkpt lat="44.0366764" lon="11.2506232"><ele>425.0</ele><time>2026-05-03T10:29:52.888Z</time></trkpt><trkpt lat="44.0365535" lon="11.2506051"><ele>425.0</ele><time>2026-05-03T10:29:53.887Z</time></trkpt><trkpt lat="44.0364491" lon="11.2505485"><ele>431.5</ele><time>2026-05-03T10:29:54.889Z</time></trkpt><trkpt lat="44.0363533" lon="11.2504514"><ele>438.0</ele><time>2026-05-03T10:29:55.894Z</time></trkpt><trkpt lat="44.0363047" lon="11.2503134"><ele>444.5</ele><time>2026-05-03T10:29:56.891Z</time></trkpt><trkpt lat="44.0362821" lon="11.2501453"><ele>451.0</ele><time>2026-05-03T10:29:57.909Z</time></trkpt><trkpt lat="44.0362713" lon="11.2499547"><ele>447.5</ele><time>2026-05-03T10:29:58.902Z</time></trkpt><trkpt lat="44.0362674" lon="11.2497604"><ele>444.0</ele><time>2026-05-03T10:29:59.904Z</time></trkpt><trkpt lat="44.0362745" lon="11.2495753"><ele>440.5</ele><time>2026-05-03T10:30:00.899Z</time></trkpt><trkpt lat="44.0362892" lon="11.2494047"><ele>437.0</ele><time>2026-05-03T10:30:01.899Z</time></trkpt><trkpt lat="44.0363137" lon="11.2492464"><ele>437.0</ele><time>2026-05-03T10:30:02.906Z</time></trkpt><trkpt lat="44.0363299" lon="11.249101"><ele>437.00000000000006</ele><time>2026-05-03T10:30:03.907Z</time></trkpt><trkpt lat="44.0363235" lon="11.2489654"><ele>437.00000000000006</ele><time>2026-05-03T10:30:04.916Z</time></trkpt><trkpt lat="44.0362873" lon="11.2488307"><ele>437.0</ele><time>2026-05-03T10:30:05.907Z</time></trkpt><trkpt lat="44.0362361" lon="11.2487016"><ele>437.0</ele><time>2026-05-03T10:30:06.905Z</time></trkpt><trkpt lat="44.036168" lon="11.248595"><ele>434.20000000000005</ele><time>2026-05-03T10:30:07.907Z</time></trkpt><trkpt lat="44.0360854" lon="11.2485029"><ele>431.40000000000003</ele><time>2026-05-03T10:30:08.911Z</time></trkpt><trkpt lat="44.0360036" lon="11.2484186"><ele>428.6</ele><time>2026-05-03T10:30:09.908Z</time></trkpt><trkpt lat="44.0359146" lon="11.2483455"><ele>425.79999999999995</ele><time>2026-05-03T10:30:10.916Z</time></trkpt><trkpt lat="44.035812" lon="11.248292"><ele>423.0</ele><time>2026-05-03T10:30:11.915Z</time></trkpt><trkpt lat="44.035705" lon="11.2482573"><ele>423.0</ele><time>2026-05-03T10:30:12.917Z</time></trkpt><trkpt lat="44.0356026" lon="11.2482322"><ele>423.0</ele><time>2026-05-03T10:30:13.911Z</time></trkpt><trkpt lat="44.0355038" lon="11.2482112"><ele>423.0</ele><time>2026-05-03T10:30:14.906Z</time></trkpt><trkpt lat="44.0354024" lon="11.2482001"><ele>423.0</ele><time>2026-05-03T10:30:15.91Z</time></trkpt><trkpt lat="44.0352893" lon="11.2482108"><ele>423.0</ele><time>2026-05-03T10:30:16.903Z</time></trkpt><trkpt lat="44.035178" lon="11.2482425"><ele>423.0</ele><time>2026-05-03T10:30:17.908Z</time></trkpt><trkpt lat="44.0350721" lon="11.2482824"><ele>423.0</ele><time>2026-05-03T10:30:18.9Z</time></trkpt><trkpt lat="44.0349662" lon="11.2483085"><ele>423.0</ele><time>2026-05-03T10:30:19.899Z</time></trkpt><trkpt lat="44.0348716" lon="11.2483057"><ele>423.0</ele><time>2026-05-03T10:30:20.905Z</time></trkpt><trkpt lat="44.0347828" lon="11.2482661"><ele>423.0</ele><time>2026-05-03T10:30:21.897Z</time></trkpt><trkpt lat="44.0347025" lon="11.2481872"><ele>422.79999999999995</ele><time>2026-05-03T10:30:22.901Z</time></trkpt><trkpt lat="44.0346394" lon="11.2480909"><ele>422.6</ele><time>2026-05-03T10:30:23.898Z</time></trkpt><trkpt lat="44.0345924" lon="11.2479737"><ele>422.4</ele><time>2026-05-03T10:30:24.898Z</time></trkpt><trkpt lat="44.0345578" lon="11.2478437"><ele>422.20000000000005</ele><time>2026-05-03T10:30:25.903Z</time></trkpt><trkpt lat="44.0345312" lon="11.2477026"><ele>422.0</ele><time>2026-05-03T10:30:26.903Z</time></trkpt><trkpt lat="44.0345065" lon="11.2475655"><ele>422.0</ele><time>2026-05-03T10:30:27.902Z</time></trkpt><trkpt lat="44.0344656" lon="11.2474353"><ele>422.0</ele><time>2026-05-03T10:30:28.919Z</time></trkpt><trkpt lat="44.0344105" lon="11.2473231"><ele>422.0</ele><time>2026-05-03T10:30:29.91Z</time></trkpt><trkpt lat="44.0343279" lon="11.2472363"><ele>422.0</ele><time>2026-05-03T10:30:30.91Z</time></trkpt><trkpt lat="44.0342184" lon="11.2471834"><ele>422.0</ele><time>2026-05-03T10:30:31.906Z</time></trkpt><trkpt lat="44.0340979" lon="11.2471413"><ele>419.75</ele><time>2026-05-03T10:30:32.913Z</time></trkpt><trkpt lat="44.0339798" lon="11.247092"><ele>417.5</ele><time>2026-05-03T10:30:33.903Z</time></trkpt><trkpt lat="44.0338669" lon="11.247031"><ele>415.25</ele><time>2026-05-03T10:30:34.902Z</time></trkpt><trkpt lat="44.0337609" lon="11.2469542"><ele>413.0</ele><time>2026-05-03T10:30:35.903Z</time></trkpt><trkpt lat="44.0336675" lon="11.246865"><ele>413.0</ele><time>2026-05-03T10:30:36.901Z</time></trkpt><trkpt lat="44.0335822" lon="11.2467812"><ele>413.0</ele><time>2026-05-03T10:30:37.904Z</time></trkpt><trkpt lat="44.033492" lon="11.2467123"><ele>413.0</ele><time>2026-05-03T10:30:38.903Z</time></trkpt><trkpt lat="44.033407" lon="11.246639"><ele>413.0</ele><time>2026-05-03T10:30:39.902Z</time></trkpt><trkpt lat="44.0333336" lon="11.2465505"><ele>413.0</ele><time>2026-05-03T10:30:40.909Z</time></trkpt><trkpt lat="44.0332893" lon="11.2464415"><ele>414.16666666666663</ele><time>2026-05-03T10:30:41.909Z</time></trkpt><trkpt lat="44.0332734" lon="11.2463082"><ele>415.3333333333333</ele><time>2026-05-03T10:30:42.903Z</time></trkpt><trkpt lat="44.0332722" lon="11.2461788"><ele>416.5</ele><time>2026-05-03T10:30:43.905Z</time></trkpt><trkpt lat="44.0332523" lon="11.2460628"><ele>417.66666666666663</ele><time>2026-05-03T10:30:44.903Z</time></trkpt><trkpt lat="44.0332126" lon="11.2459701"><ele>418.8333333333333</ele><time>2026-05-03T10:30:45.908Z</time></trkpt><trkpt lat="44.0331444" lon="11.2459046"><ele>420.0</ele><time>2026-05-03T10:30:46.903Z</time></trkpt><trkpt lat="44.0330518" lon="11.2458799"><ele>420.0</ele><time>2026-05-03T10:30:47.91Z</time></trkpt><trkpt lat="44.032957" lon="11.2458738"><ele>420.0</ele><time>2026-05-03T10:30:48.904Z</time></trkpt><trkpt lat="44.032864" lon="11.245857"><ele>420.0</ele><time>2026-05-03T10:30:49.901Z</time></trkpt><trkpt lat="44.0327775" lon="11.2458117"><ele>420.0</ele><time>2026-05-03T10:30:50.907Z</time></trkpt><trkpt lat="44.0326952" lon="11.2457357"><ele>420.0</ele><time>2026-05-03T10:30:51.899Z</time></trkpt><trkpt lat="44.0326242" lon="11.2456421"><ele>416.6</ele><time>2026-05-03T10:30:52.914Z</time></trkpt><trkpt lat="44.032562" lon="11.24551"><ele>413.2</ele><time>2026-05-03T10:30:53.905Z</time></trkpt><trkpt lat="44.0325012" lon="11.245383"><ele>409.79999999999995</ele><time>2026-05-03T10:30:54.914Z</time></trkpt><trkpt lat="44.0324336" lon="11.2452601"><ele>406.4</ele><time>2026-05-03T10:30:55.906Z</time></trkpt><trkpt lat="44.0323666" lon="11.2451463"><ele>403.0</ele><time>2026-05-03T10:30:56.905Z</time></trkpt><trkpt lat="44.0322928" lon="11.245042"><ele>403.0</ele><time>2026-05-03T10:30:57.905Z</time></trkpt><trkpt lat="44.0322119" lon="11.2449484"><ele>403.0</ele><time>2026-05-03T10:30:58.908Z</time></trkpt><trkpt lat="44.0321214" lon="11.2448705"><ele>403.0</ele><time>2026-05-03T10:30:59.93Z</time></trkpt><trkpt lat="44.0320201" lon="11.2448139"><ele>403.0</ele><time>2026-05-03T10:31:00.909Z</time></trkpt><trkpt lat="44.0319112" lon="11.2447869"><ele>403.0</ele><time>2026-05-03T10:31:01.918Z</time></trkpt><trkpt lat="44.0318081" lon="11.244799"><ele>403.0</ele><time>2026-05-03T10:31:02.912Z</time></trkpt><trkpt lat="44.0317061" lon="11.24485"><ele>403.0</ele><time>2026-05-03T10:31:03.905Z</time></trkpt><trkpt lat="44.0316163" lon="11.244918"><ele>403.0</ele><time>2026-05-03T10:31:04.904Z</time></trkpt><trkpt lat="44.0315311" lon="11.2449957"><ele>403.0</ele><time>2026-05-03T10:31:05.901Z</time></trkpt><trkpt lat="44.031451" lon="11.2450665"><ele>403.0</ele><time>2026-05-03T10:31:06.895Z</time></trkpt><trkpt lat="44.0313719" lon="11.2451095"><ele>405.6666666666667</ele><time>2026-05-03T10:31:07.899Z</time></trkpt><trkpt lat="44.031297" lon="11.2451017"><ele>408.33333333333337</ele><time>2026-05-03T10:31:08.901Z</time></trkpt><trkpt lat="44.031243" lon="11.2450482"><ele>411.0</ele><time>2026-05-03T10:31:09.902Z</time></trkpt><trkpt lat="44.0312021" lon="11.2449263"><ele>413.66666666666663</ele><time>2026-05-03T10:31:10.896Z</time></trkpt><trkpt lat="44.0311572" lon="11.2448035"><ele>416.3333333333333</ele><time>2026-05-03T10:31:11.895Z</time></trkpt><trkpt lat="44.0310883" lon="11.2446894"><ele>419.0</ele><time>2026-05-03T10:31:12.899Z</time></trkpt><trkpt lat="44.0309989" lon="11.2445886"><ele>415.2</ele><time>2026-05-03T10:31:13.898Z</time></trkpt><trkpt lat="44.0309066" lon="11.2445078"><ele>411.4</ele><time>2026-05-03T10:31:14.907Z</time></trkpt><trkpt lat="44.030805" lon="11.2444485"><ele>407.6</ele><time>2026-05-03T10:31:15.897Z</time></trkpt><trkpt lat="44.0307047" lon="11.2443903"><ele>403.8</ele><time>2026-05-03T10:31:16.903Z</time></trkpt><trkpt lat="44.0306095" lon="11.2443379"><ele>400.0</ele><time>2026-05-03T10:31:17.905Z</time></trkpt><trkpt lat="44.0305173" lon="11.2442809"><ele>400.0</ele><time>2026-05-03T10:31:18.903Z</time></trkpt><trkpt lat="44.0304341" lon="11.2442241"><ele>400.0</ele><time>2026-05-03T10:31:19.901Z</time></trkpt><trkpt lat="44.0303542" lon="11.2441537"><ele>400.0</ele><time>2026-05-03T10:31:20.903Z</time></trkpt><trkpt lat="44.0302844" lon="11.2440783"><ele>400.0</ele><time>2026-05-03T10:31:21.903Z</time></trkpt><trkpt lat="44.0302132" lon="11.2439897"><ele>400.0</ele><time>2026-05-03T10:31:22.905Z</time></trkpt><trkpt lat="44.0301372" lon="11.2439066"><ele>393.0</ele><time>2026-05-03T10:31:23.902Z</time></trkpt><trkpt lat="44.0300537" lon="11.2438301"><ele>386.0</ele><time>2026-05-03T10:31:24.903Z</time></trkpt><trkpt lat="44.0299705" lon="11.2437694"><ele>379.0</ele><time>2026-05-03T10:31:25.901Z</time></trkpt><trkpt lat="44.0298796" lon="11.2437322"><ele>372.0</ele><time>2026-05-03T10:31:26.908Z</time></trkpt><trkpt lat="44.0297824" lon="11.2437381"><ele>365.0</ele><time>2026-05-03T10:31:27.909Z</time></trkpt><trkpt lat="44.0296825" lon="11.24379"><ele>364.5</ele><time>2026-05-03T10:31:28.908Z</time></trkpt><trkpt lat="44.029588" lon="11.2438799"><ele>364.0</ele><time>2026-05-03T10:31:29.9Z</time></trkpt><trkpt lat="44.0295044" lon="11.2439966"><ele>363.5</ele><time>2026-05-03T10:31:30.912Z</time></trkpt><trkpt lat="44.0294211" lon="11.2441187"><ele>363.0</ele><time>2026-05-03T10:31:31.894Z</time></trkpt><trkpt lat="44.0293496" lon="11.2442436"><ele>366.4</ele><time>2026-05-03T10:31:32.89Z</time></trkpt><trkpt lat="44.0292884" lon="11.2443715"><ele>369.79999999999995</ele><time>2026-05-03T10:31:33.89Z</time></trkpt><trkpt lat="44.0292293" lon="11.2444965"><ele>373.2</ele><time>2026-05-03T10:31:34.889Z</time></trkpt><trkpt lat="44.0291805" lon="11.2446154"><ele>376.6</ele><time>2026-05-03T10:31:35.888Z</time></trkpt><trkpt lat="44.0291382" lon="11.2447359"><ele>380.0</ele><time>2026-05-03T10:31:36.903Z</time></trkpt><trkpt lat="44.0290948" lon="11.2448454"><ele>386.1666666666667</ele><time>2026-05-03T10:31:37.894Z</time></trkpt><trkpt lat="44.0290429" lon="11.2449448"><ele>392.33333333333337</ele><time>2026-05-03T10:31:38.892Z</time></trkpt><trkpt lat="44.0289822" lon="11.2450211"><ele>398.5</ele><time>2026-05-03T10:31:39.889Z</time></trkpt><trkpt lat="44.0289094" lon="11.2450652"><ele>404.6666666666667</ele><time>2026-05-03T10:31:40.893Z</time></trkpt><trkpt lat="44.0288234" lon="11.2450574"><ele>410.8333333333333</ele><time>2026-05-03T10:31:41.893Z</time></trkpt><trkpt lat="44.0287362" lon="11.244998"><ele>417.0</ele><time>2026-05-03T10:31:42.889Z</time></trkpt><trkpt lat="44.0286523" lon="11.2449119"><ele>412.5</ele><time>2026-05-03T10:31:43.897Z</time></trkpt><trkpt lat="44.0285835" lon="11.2447721"><ele>408.0</ele><time>2026-05-03T10:31:44.888Z</time></trkpt><trkpt lat="44.0285459" lon="11.2445919"><ele>403.5</ele><time>2026-05-03T10:31:45.888Z</time></trkpt><trkpt lat="44.0285326" lon="11.244402"><ele>399.0</ele><time>2026-05-03T10:31:46.892Z</time></trkpt><trkpt lat="44.0285213" lon="11.2442186"><ele>399.0</ele><time>2026-05-03T10:31:47.897Z</time></trkpt><trkpt lat="44.0285086" lon="11.244041"><ele>399.0</ele><time>2026-05-03T10:31:48.894Z</time></trkpt><trkpt lat="44.0284973" lon="11.2438711"><ele>399.0</ele><time>2026-05-03T10:31:49.894Z</time></trkpt><trkpt lat="44.0284817" lon="11.2437053"><ele>399.0</ele><time>2026-05-03T10:31:50.9Z</time></trkpt><trkpt lat="44.028462" lon="11.2435472"><ele>396.0</ele><time>2026-05-03T10:31:51.893Z</time></trkpt><trkpt lat="44.028431" lon="11.2434001"><ele>393.0</ele><time>2026-05-03T10:31:52.892Z</time></trkpt><trkpt lat="44.0283893" lon="11.2432679"><ele>390.0</ele><time>2026-05-03T10:31:53.902Z</time></trkpt><trkpt lat="44.0283232" lon="11.2431635"><ele>387.0</ele><time>2026-05-03T10:31:54.909Z</time></trkpt><trkpt lat="44.0282377" lon="11.2430925"><ele>384.0</ele><time>2026-05-03T10:31:55.908Z</time></trkpt><trkpt lat="44.0281387" lon="11.243053"><ele>384.0</ele><time>2026-05-03T10:31:56.908Z</time></trkpt><trkpt lat="44.0280343" lon="11.2430402"><ele>384.0</ele><time>2026-05-03T10:31:57.899Z</time></trkpt><trkpt lat="44.0279368" lon="11.2430231"><ele>384.0</ele><time>2026-05-03T10:31:58.905Z</time></trkpt><trkpt lat="44.0278601" lon="11.2429801"><ele>384.0</ele><time>2026-05-03T10:31:59.904Z</time></trkpt><trkpt lat="44.0278024" lon="11.2429004"><ele>384.0</ele><time>2026-05-03T10:32:00.906Z</time></trkpt><trkpt lat="44.0277683" lon="11.2427792"><ele>384.0</ele><time>2026-05-03T10:32:01.923Z</time></trkpt><trkpt lat="44.0277528" lon="11.2426378"><ele>384.0</ele><time>2026-05-03T10:32:02.902Z</time></trkpt><trkpt lat="44.0277007" lon="11.2424927"><ele>384.0</ele><time>2026-05-03T10:32:03.903Z</time></trkpt><trkpt lat="44.0276287" lon="11.2423282"><ele>384.0</ele><time>2026-05-03T10:32:04.901Z</time></trkpt><trkpt lat="44.0275294" lon="11.2421248"><ele>386.33333333333337</ele><time>2026-05-03T10:32:05.896Z</time></trkpt><trkpt lat="44.0274295" lon="11.2418937"><ele>388.6666666666667</ele><time>2026-05-03T10:32:06.896Z</time></trkpt><trkpt lat="44.0273366" lon="11.2416618"><ele>391.0</ele><time>2026-05-03T10:32:07.901Z</time></trkpt><trkpt lat="44.0272484" lon="11.241441"><ele>384.0</ele><time>2026-05-03T10:32:08.894Z</time></trkpt><trkpt lat="44.0271791" lon="11.2412429"><ele>377.0</ele><time>2026-05-03T10:32:09.903Z</time></trkpt><trkpt lat="44.0270978" lon="11.2410834"><ele>370.0</ele><time>2026-05-03T10:32:10.893Z</time></trkpt><trkpt lat="44.0269958" lon="11.2409528"><ele>363.0</ele><time>2026-05-03T10:32:11.896Z</time></trkpt><trkpt lat="44.0268735" lon="11.2408671"><ele>363.0</ele><time>2026-05-03T10:32:12.903Z</time></trkpt><trkpt lat="44.0267325" lon="11.2407905"><ele>363.0</ele><time>2026-05-03T10:32:13.901Z</time></trkpt><trkpt lat="44.026583" lon="11.2407383"><ele>363.0</ele><time>2026-05-03T10:32:14.899Z</time></trkpt><trkpt lat="44.026425" lon="11.2407072"><ele>362.75</ele><time>2026-05-03T10:32:15.899Z</time></trkpt><trkpt lat="44.0262691" lon="11.2406865"><ele>362.5</ele><time>2026-05-03T10:32:16.899Z</time></trkpt><trkpt lat="44.0261319" lon="11.2406516"><ele>362.25</ele><time>2026-05-03T10:32:17.908Z</time></trkpt><trkpt lat="44.026014" lon="11.2406257"><ele>362.0</ele><time>2026-05-03T10:32:18.895Z</time></trkpt><trkpt lat="44.025898" lon="11.2406181"><ele>366.25</ele><time>2026-05-03T10:32:19.896Z</time></trkpt><trkpt lat="44.025789" lon="11.2406598"><ele>370.5</ele><time>2026-05-03T10:32:20.899Z</time></trkpt><trkpt lat="44.0256953" lon="11.2407777"><ele>374.75</ele><time>2026-05-03T10:32:21.892Z</time></trkpt><trkpt lat="44.0256092" lon="11.2409312"><ele>379.0</ele><time>2026-05-03T10:32:22.9Z</time></trkpt><trkpt lat="44.02555" lon="11.2410754"><ele>379.0</ele><time>2026-05-03T10:32:23.902Z</time></trkpt><trkpt lat="44.02549" lon="11.2411799"><ele>379.0</ele><time>2026-05-03T10:32:24.9Z</time></trkpt><trkpt lat="44.0254208" lon="11.2412395"><ele>379.0</ele><time>2026-05-03T10:32:25.904Z</time></trkpt><trkpt lat="44.0253367" lon="11.2412591"><ele>379.0</ele><time>2026-05-03T10:32:26.896Z</time></trkpt><trkpt lat="44.0252452" lon="11.2412474"><ele>379.0</ele><time>2026-05-03T10:32:27.901Z</time></trkpt><trkpt lat="44.0251552" lon="11.2411701"><ele>379.0</ele><time>2026-05-03T10:32:28.894Z</time></trkpt><trkpt lat="44.0250846" lon="11.2410315"><ele>379.0</ele><time>2026-05-03T10:32:29.896Z</time></trkpt><trkpt lat="44.0250246" lon="11.2408398"><ele>379.0</ele><time>2026-05-03T10:32:30.888Z</time></trkpt><trkpt lat="44.0249562" lon="11.2406423"><ele>379.0</ele><time>2026-05-03T10:32:31.901Z</time></trkpt><trkpt lat="44.0248783" lon="11.2404428"><ele>375.66666666666663</ele><time>2026-05-03T10:32:32.925Z</time></trkpt><trkpt lat="44.0247671" lon="11.2402688"><ele>372.3333333333333</ele><time>2026-05-03T10:32:33.897Z</time></trkpt><trkpt lat="44.0246156" lon="11.2400865"><ele>369.0</ele><time>2026-05-03T10:32:34.904Z</time></trkpt><trkpt lat="44.0244371" lon="11.2399358"><ele>363.6666666666667</ele><time>2026-05-03T10:32:35.898Z</time></trkpt><trkpt lat="44.0242644" lon="11.2397815"><ele>358.33333333333337</ele><time>2026-05-03T10:32:36.896Z</time></trkpt><trkpt lat="44.0241368" lon="11.2396213"><ele>353.0</ele><time>2026-05-03T10:32:37.893Z</time></trkpt><trkpt lat="44.0240373" lon="11.2394516"><ele>353.0</ele><time>2026-05-03T10:32:38.898Z</time></trkpt><trkpt lat="44.0239407" lon="11.2393214"><ele>353.0</ele><time>2026-05-03T10:32:39.903Z</time></trkpt><trkpt lat="44.0238372" lon="11.239252"><ele>353.0</ele><time>2026-05-03T10:32:40.906Z</time></trkpt><trkpt lat="44.0237288" lon="11.2392566"><ele>353.0</ele><time>2026-05-03T10:32:41.9Z</time></trkpt><trkpt lat="44.0236108" lon="11.2392736"><ele>353.0</ele><time>2026-05-03T10:32:42.896Z</time></trkpt><trkpt lat="44.0235138" lon="11.239255"><ele>353.0</ele><time>2026-05-03T10:32:43.896Z</time></trkpt><trkpt lat="44.0234308" lon="11.2391575"><ele>353.0</ele><time>2026-05-03T10:32:44.899Z</time></trkpt><trkpt lat="44.0233804" lon="11.2390055"><ele>353.0</ele><time>2026-05-03T10:32:45.897Z</time></trkpt><trkpt lat="44.0233021" lon="11.2388446"><ele>348.6666666666667</ele><time>2026-05-03T10:32:46.897Z</time></trkpt><trkpt lat="44.0231994" lon="11.2387096"><ele>344.3333333333333</ele><time>2026-05-03T10:32:47.905Z</time></trkpt><trkpt lat="44.0230611" lon="11.2386072"><ele>340.0</ele><time>2026-05-03T10:32:48.9Z</time></trkpt><trkpt lat="44.0228938" lon="11.2385196"><ele>340.0</ele><time>2026-05-03T10:32:49.9Z</time></trkpt><trkpt lat="44.022746" lon="11.2384291"><ele>340.0</ele><time>2026-05-03T10:32:50.904Z</time></trkpt><trkpt lat="44.0226223" lon="11.2383511"><ele>340.0</ele><time>2026-05-03T10:32:51.896Z</time></trkpt><trkpt lat="44.02251" lon="11.2383303"><ele>340.0</ele><time>2026-05-03T10:32:52.905Z</time></trkpt><trkpt lat="44.0223812" lon="11.2383719"><ele>340.0</ele><time>2026-05-03T10:32:53.9Z</time></trkpt><trkpt lat="44.0222563" lon="11.2384903"><ele>340.0</ele><time>2026-05-03T10:32:54.896Z</time></trkpt><trkpt lat="44.0221337" lon="11.2385869"><ele>340.0</ele><time>2026-05-03T10:32:55.9Z</time></trkpt><trkpt lat="44.0220272" lon="11.2386599"><ele>340.0</ele><time>2026-05-03T10:32:56.9Z</time></trkpt><trkpt lat="44.0219163" lon="11.2386609"><ele>340.0</ele><time>2026-05-03T10:32:57.906Z</time></trkpt><trkpt lat="44.0218078" lon="11.2385717"><ele>340.0</ele><time>2026-05-03T10:32:58.907Z</time></trkpt><trkpt lat="44.0217245" lon="11.2384534"><ele>340.0</ele><time>2026-05-03T10:32:59.897Z</time></trkpt><trkpt lat="44.0216091" lon="11.2384181"><ele>340.0</ele><time>2026-05-03T10:33:00.907Z</time></trkpt><trkpt lat="44.0214715" lon="11.2384584"><ele>339.75</ele><time>2026-05-03T10:33:01.897Z</time></trkpt><trkpt lat="44.0213391" lon="11.2385059"><ele>339.5</ele><time>2026-05-03T10:33:02.9Z</time></trkpt><trkpt lat="44.0212102" lon="11.2385253"><ele>339.25</ele><time>2026-05-03T10:33:03.931Z</time></trkpt><trkpt lat="44.0210898" lon="11.2384533"><ele>339.0</ele><time>2026-05-03T10:33:04.899Z</time></trkpt><trkpt lat="44.0210048" lon="11.2382883"><ele>334.75</ele><time>2026-05-03T10:33:05.905Z</time></trkpt><trkpt lat="44.0209362" lon="11.2380711"><ele>330.5</ele><time>2026-05-03T10:33:06.901Z</time></trkpt><trkpt lat="44.0208523" lon="11.2379428"><ele>326.25</ele><time>2026-05-03T10:33:07.911Z</time></trkpt><trkpt lat="44.0207591" lon="11.2378686"><ele>322.0</ele><time>2026-05-03T10:33:08.906Z</time></trkpt><trkpt lat="44.020658" lon="11.2378981"><ele>323.25</ele><time>2026-05-03T10:33:09.91Z</time></trkpt><trkpt lat="44.0205447" lon="11.2379536"><ele>324.5</ele><time>2026-05-03T10:33:10.899Z</time></trkpt><trkpt lat="44.0204302" lon="11.238031"><ele>325.75</ele><time>2026-05-03T10:33:11.9Z</time></trkpt><trkpt lat="44.0203161" lon="11.2381224"><ele>327.0</ele><time>2026-05-03T10:33:12.906Z</time></trkpt><trkpt lat="44.0201946" lon="11.2382158"><ele>327.0</ele><time>2026-05-03T10:33:13.904Z</time></trkpt><trkpt lat="44.0200696" lon="11.2383148"><ele>327.0</ele><time>2026-05-03T10:33:14.907Z</time></trkpt><trkpt lat="44.0199254" lon="11.2383848"><ele>327.0</ele><time>2026-05-03T10:33:15.91Z</time></trkpt><trkpt lat="44.0197712" lon="11.2383795"><ele>324.25</ele><time>2026-05-03T10:33:16.908Z</time></trkpt><trkpt lat="44.0196379" lon="11.2383459"><ele>321.5</ele><time>2026-05-03T10:33:17.911Z</time></trkpt><trkpt lat="44.0195218" lon="11.2383615"><ele>318.75</ele><time>2026-05-03T10:33:18.902Z</time></trkpt><trkpt lat="44.0194211" lon="11.2384381"><ele>316.0</ele><time>2026-05-03T10:33:19.917Z</time></trkpt><trkpt lat="44.0193439" lon="11.2385889"><ele>316.0</ele><time>2026-05-03T10:33:20.914Z</time></trkpt><trkpt lat="44.019259" lon="11.2387693"><ele>316.0</ele><time>2026-05-03T10:33:21.902Z</time></trkpt><trkpt lat="44.019177" lon="11.2389309"><ele>316.0</ele><time>2026-05-03T10:33:22.905Z</time></trkpt><trkpt lat="44.0191083" lon="11.2390807"><ele>316.0</ele><time>2026-05-03T10:33:23.916Z</time></trkpt><trkpt lat="44.0190369" lon="11.2391981"><ele>318.0</ele><time>2026-05-03T10:33:24.908Z</time></trkpt><trkpt lat="44.0189327" lon="11.2392583"><ele>320.0</ele><time>2026-05-03T10:33:25.908Z</time></trkpt><trkpt lat="44.0188096" lon="11.2392435"><ele>322.0</ele><time>2026-05-03T10:33:26.906Z</time></trkpt><trkpt lat="44.0186577" lon="11.2391654"><ele>324.0</ele><time>2026-05-03T10:33:27.899Z</time></trkpt><trkpt lat="44.0185153" lon="11.2390741"><ele>324.0</ele><time>2026-05-03T10:33:28.905Z</time></trkpt><trkpt lat="44.0183807" lon="11.2389832"><ele>324.0</ele><time>2026-05-03T10:33:29.903Z</time></trkpt><trkpt lat="44.0182446" lon="11.2388966"><ele>324.0</ele><time>2026-05-03T10:33:30.903Z</time></trkpt><trkpt lat="44.0181213" lon="11.2388004"><ele>324.0</ele><time>2026-05-03T10:33:31.908Z</time></trkpt><trkpt lat="44.0180555" lon="11.2386423"><ele>322.75</ele><time>2026-05-03T10:33:32.909Z</time></trkpt><trkpt lat="44.0180469" lon="11.2384591"><ele>321.5</ele><time>2026-05-03T10:33:33.928Z</time></trkpt><trkpt lat="44.0180918" lon="11.2382596"><ele>320.25</ele><time>2026-05-03T10:33:34.914Z</time></trkpt><trkpt lat="44.018132" lon="11.2380482"><ele>319.0</ele><time>2026-05-03T10:33:35.902Z</time></trkpt><trkpt lat="44.0181607" lon="11.2378569"><ele>319.0</ele><time>2026-05-03T10:33:36.909Z</time></trkpt><trkpt lat="44.0181801" lon="11.2376829"><ele>319.0</ele><time>2026-05-03T10:33:37.912Z</time></trkpt><trkpt lat="44.0181633" lon="11.237563"><ele>319.0</ele><time>2026-05-03T10:33:38.902Z</time></trkpt><trkpt lat="44.0180662" lon="11.2374751"><ele>319.0</ele><time>2026-05-03T10:33:39.907Z</time></trkpt><trkpt lat="44.0179202" lon="11.2374194"><ele>319.0</ele><time>2026-05-03T10:33:40.904Z</time></trkpt><trkpt lat="44.0177283" lon="11.2373734"><ele>319.0</ele><time>2026-05-03T10:33:41.905Z</time></trkpt><trkpt lat="44.0175632" lon="11.2373078"><ele>319.0</ele><time>2026-05-03T10:33:42.899Z</time></trkpt><trkpt lat="44.017381" lon="11.2372338"><ele>313.0</ele><time>2026-05-03T10:33:43.895Z</time></trkpt><trkpt lat="44.0172029" lon="11.2371501"><ele>307.0</ele><time>2026-05-03T10:33:44.896Z</time></trkpt><trkpt lat="44.0170301" lon="11.2370714"><ele>301.0</ele><time>2026-05-03T10:33:45.894Z</time></trkpt><trkpt lat="44.0168574" lon="11.2369835"><ele>301.0</ele><time>2026-05-03T10:33:46.891Z</time></trkpt><trkpt lat="44.0166979" lon="11.2369002"><ele>301.0</ele><time>2026-05-03T10:33:47.891Z</time></trkpt><trkpt lat="44.01655" lon="11.236813"><ele>301.0</ele><time>2026-05-03T10:33:48.89Z</time></trkpt><trkpt lat="44.0164152" lon="11.2367181"><ele>299.75</ele><time>2026-05-03T10:33:49.891Z</time></trkpt><trkpt lat="44.0162945" lon="11.2366394"><ele>298.5</ele><time>2026-05-03T10:33:50.902Z</time></trkpt><trkpt lat="44.0162075" lon="11.2364992"><ele>297.25</ele><time>2026-05-03T10:33:51.901Z</time></trkpt><trkpt lat="44.0161489" lon="11.2363493"><ele>296.0</ele><time>2026-05-03T10:33:52.907Z</time></trkpt><trkpt lat="44.0160777" lon="11.2361984"><ele>296.0</ele><time>2026-05-03T10:33:53.902Z</time></trkpt><trkpt lat="44.0159841" lon="11.2360897"><ele>296.0</ele><time>2026-05-03T10:33:54.906Z</time></trkpt><trkpt lat="44.0158374" lon="11.2360256"><ele>296.0</ele><time>2026-05-03T10:33:55.905Z</time></trkpt><trkpt lat="44.0156655" lon="11.2360017"><ele>296.0</ele><time>2026-05-03T10:33:56.898Z</time></trkpt><trkpt lat="44.0154885" lon="11.2359624"><ele>296.0</ele><time>2026-05-03T10:33:57.893Z</time></trkpt><trkpt lat="44.0153103" lon="11.2359224"><ele>296.0</ele><time>2026-05-03T10:33:58.91Z</time></trkpt><trkpt lat="44.015121" lon="11.235919"><ele>296.0</ele><time>2026-05-03T10:33:59.9Z</time></trkpt><trkpt lat="44.0149208" lon="11.2359322"><ele>293.6666666666667</ele><time>2026-05-03T10:34:00.896Z</time></trkpt><trkpt lat="44.0147214" lon="11.2359655"><ele>291.3333333333333</ele><time>2026-05-03T10:34:01.899Z</time></trkpt><trkpt lat="44.0145382" lon="11.2360004"><ele>289.0</ele><time>2026-05-03T10:34:02.903Z</time></trkpt><trkpt lat="44.0143685" lon="11.2360412"><ele>289.0</ele><time>2026-05-03T10:34:03.897Z</time></trkpt><trkpt lat="44.0142053" lon="11.236074"><ele>289.0</ele><time>2026-05-03T10:34:04.918Z</time></trkpt><trkpt lat="44.0140475" lon="11.2360922"><ele>289.0</ele><time>2026-05-03T10:34:05.904Z</time></trkpt><trkpt lat="44.0139048" lon="11.2361223"><ele>289.5</ele><time>2026-05-03T10:34:06.906Z</time></trkpt><trkpt lat="44.0137734" lon="11.2361693"><ele>290.0</ele><time>2026-05-03T10:34:07.907Z</time></trkpt><trkpt lat="44.0136461" lon="11.2362658"><ele>290.5</ele><time>2026-05-03T10:34:08.904Z</time></trkpt><trkpt lat="44.0135191" lon="11.2363814"><ele>291.0</ele><time>2026-05-03T10:34:09.909Z</time></trkpt><trkpt lat="44.013381" lon="11.2364806"><ele>289.3333333333333</ele><time>2026-05-03T10:34:10.908Z</time></trkpt><trkpt lat="44.0132467" lon="11.2365759"><ele>287.66666666666663</ele><time>2026-05-03T10:34:11.913Z</time></trkpt><trkpt lat="44.0130868" lon="11.2366589"><ele>286.0</ele><time>2026-05-03T10:34:12.901Z</time></trkpt><trkpt lat="44.0129262" lon="11.2367355"><ele>286.0</ele><time>2026-05-03T10:34:13.918Z</time></trkpt><trkpt lat="44.0127825" lon="11.2368024"><ele>286.0</ele><time>2026-05-03T10:34:14.908Z</time></trkpt><trkpt lat="44.0126447" lon="11.2368657"><ele>286.0</ele><time>2026-05-03T10:34:15.908Z</time></trkpt><trkpt lat="44.0125136" lon="11.2369196"><ele>286.0</ele><time>2026-05-03T10:34:16.909Z</time></trkpt><trkpt lat="44.0124034" lon="11.2369774"><ele>285.66666666666663</ele><time>2026-05-03T10:34:17.911Z</time></trkpt><trkpt lat="44.0123113" lon="11.2370325"><ele>285.3333333333333</ele><time>2026-05-03T10:34:18.911Z</time></trkpt><trkpt lat="44.012227" lon="11.2370758"><ele>285.0</ele><time>2026-05-03T10:34:19.919Z</time></trkpt><trkpt lat="44.0121538" lon="11.2371229"><ele>284.6666666666667</ele><time>2026-05-03T10:34:20.921Z</time></trkpt><trkpt lat="44.0120818" lon="11.2371676"><ele>284.33333333333337</ele><time>2026-05-03T10:34:21.916Z</time></trkpt><trkpt lat="44.0120111" lon="11.2372161"><ele>284.0</ele><time>2026-05-03T10:34:22.918Z</time></trkpt><trkpt lat="44.0119467" lon="11.2372549"><ele>284.0</ele><time>2026-05-03T10:34:23.91Z</time></trkpt><trkpt lat="44.0118826" lon="11.2372759"><ele>284.0</ele><time>2026-05-03T10:34:24.914Z</time></trkpt><trkpt lat="44.0117783" lon="11.2372582"><ele>284.0</ele><time>2026-05-03T10:34:26.919Z</time></trkpt><trkpt lat="44.0117323" lon="11.237181"><ele>284.0</ele><time>2026-05-03T10:34:27.91Z</time></trkpt><trkpt lat="44.0116809" lon="11.2370772"><ele>284.0</ele><time>2026-05-03T10:34:28.911Z</time></trkpt><trkpt lat="44.0116026" lon="11.2370012"><ele>284.0</ele><time>2026-05-03T10:34:29.92Z</time></trkpt><trkpt lat="44.0115044" lon="11.2369537"><ele>283.8</ele><time>2026-05-03T10:34:30.914Z</time></trkpt><trkpt lat="44.0114166" lon="11.236964"><ele>283.59999999999997</ele><time>2026-05-03T10:34:31.915Z</time></trkpt><trkpt lat="44.011342" lon="11.2370412"><ele>283.4</ele><time>2026-05-03T10:34:32.909Z</time></trkpt><trkpt lat="44.0112897" lon="11.2371498"><ele>283.2</ele><time>2026-05-03T10:34:33.908Z</time></trkpt><trkpt lat="44.0112741" lon="11.2372823"><ele>283.0</ele><time>2026-05-03T10:34:34.909Z</time></trkpt><trkpt lat="44.0112968" lon="11.2374265"><ele>283.0</ele><time>2026-05-03T10:34:35.919Z</time></trkpt><trkpt lat="44.0113124" lon="11.2375552"><ele>283.0</ele><time>2026-05-03T10:34:36.905Z</time></trkpt><trkpt lat="44.0113046" lon="11.2376614"><ele>283.0</ele><time>2026-05-03T10:34:37.915Z</time></trkpt><trkpt lat="44.0112539" lon="11.2377462"><ele>283.0</ele><time>2026-05-03T10:34:38.915Z</time></trkpt><trkpt lat="44.0111774" lon="11.237817"><ele>283.0</ele><time>2026-05-03T10:34:39.914Z</time></trkpt><trkpt lat="44.0110817" lon="11.2379057"><ele>283.0</ele><time>2026-05-03T10:34:40.909Z</time></trkpt><trkpt lat="44.0109736" lon="11.2380129"><ele>283.0</ele><time>2026-05-03T10:34:41.915Z</time></trkpt><trkpt lat="44.0108541" lon="11.2381348"><ele>283.0</ele><time>2026-05-03T10:34:42.908Z</time></trkpt><trkpt lat="44.0107211" lon="11.2382759"><ele>283.0</ele><time>2026-05-03T10:34:43.915Z</time></trkpt><trkpt lat="44.0105478" lon="11.2384704"><ele>282.0</ele><time>2026-05-03T10:34:44.911Z</time></trkpt><trkpt lat="44.0103867" lon="11.238663"><ele>281.0</ele><time>2026-05-03T10:34:45.911Z</time></trkpt><trkpt lat="44.0102143" lon="11.238852"><ele>280.0</ele><time>2026-05-03T10:34:46.911Z</time></trkpt><trkpt lat="44.0100487" lon="11.2390402"><ele>280.0</ele><time>2026-05-03T10:34:47.914Z</time></trkpt><trkpt lat="44.0098837" lon="11.2392298"><ele>280.0</ele><time>2026-05-03T10:34:48.911Z</time></trkpt><trkpt lat="44.0097355" lon="11.2394211"><ele>280.0</ele><time>2026-05-03T10:34:49.914Z</time></trkpt><trkpt lat="44.0095841" lon="11.2396013"><ele>280.0</ele><time>2026-05-03T10:34:50.916Z</time></trkpt><trkpt lat="44.0094306" lon="11.2397694"><ele>280.0</ele><time>2026-05-03T10:34:51.912Z</time></trkpt><trkpt lat="44.0092672" lon="11.2399172"><ele>280.0</ele><time>2026-05-03T10:34:52.92Z</time></trkpt><trkpt lat="44.0091004" lon="11.2400403"><ele>279.66666666666663</ele><time>2026-05-03T10:34:53.909Z</time></trkpt><trkpt lat="44.0089253" lon="11.2401482"><ele>279.3333333333333</ele><time>2026-05-03T10:34:54.91Z</time></trkpt><trkpt lat="44.0087348" lon="11.2402471"><ele>279.0</ele><time>2026-05-03T10:34:55.908Z</time></trkpt><trkpt lat="44.0085397" lon="11.2403196"><ele>279.0</ele><time>2026-05-03T10:34:56.914Z</time></trkpt><trkpt lat="44.0083329" lon="11.240376"><ele>279.0</ele><time>2026-05-03T10:34:57.909Z</time></trkpt><trkpt lat="44.0081177" lon="11.2404243"><ele>279.0</ele><time>2026-05-03T10:34:58.917Z</time></trkpt><trkpt lat="44.0079093" lon="11.2404645"><ele>279.0</ele><time>2026-05-03T10:34:59.918Z</time></trkpt><trkpt lat="44.0076846" lon="11.2404638"><ele>279.0</ele><time>2026-05-03T10:35:00.91Z</time></trkpt><trkpt lat="44.0074516" lon="11.2404343"><ele>278.0</ele><time>2026-05-03T10:35:01.919Z</time></trkpt><trkpt lat="44.0072044" lon="11.2403771"><ele>277.0</ele><time>2026-05-03T10:35:02.906Z</time></trkpt><trkpt lat="44.0069494" lon="11.2403182"><ele>277.0</ele><time>2026-05-03T10:35:03.916Z</time></trkpt><trkpt lat="44.0066953" lon="11.2402564"><ele>277.0</ele><time>2026-05-03T10:35:04.904Z</time></trkpt><trkpt lat="44.0064531" lon="11.2402042"><ele>278.5</ele><time>2026-05-03T10:35:05.905Z</time></trkpt><trkpt lat="44.0062141" lon="11.2401493"><ele>280.0</ele><time>2026-05-03T10:35:06.922Z</time></trkpt><trkpt lat="44.006004" lon="11.240104"><ele>279.3333333333333</ele><time>2026-05-03T10:35:07.903Z</time></trkpt><trkpt lat="44.0057941" lon="11.2400515"><ele>278.6666666666667</ele><time>2026-05-03T10:35:08.902Z</time></trkpt><trkpt lat="44.0056039" lon="11.2400026"><ele>278.0</ele><time>2026-05-03T10:35:09.896Z</time></trkpt><trkpt lat="44.0054177" lon="11.239965"><ele>278.0</ele><time>2026-05-03T10:35:10.894Z</time></trkpt><trkpt lat="44.0052367" lon="11.2399673"><ele>278.0</ele><time>2026-05-03T10:35:11.891Z</time></trkpt><trkpt lat="44.005061" lon="11.2400057"><ele>278.0</ele><time>2026-05-03T10:35:12.894Z</time></trkpt><trkpt lat="44.0048845" lon="11.2400704"><ele>277.0</ele><time>2026-05-03T10:35:13.897Z</time></trkpt><trkpt lat="44.0047082" lon="11.240167"><ele>276.0</ele><time>2026-05-03T10:35:14.895Z</time></trkpt><trkpt lat="44.0045428" lon="11.2402997"><ele>275.0</ele><time>2026-05-03T10:35:15.903Z</time></trkpt><trkpt lat="44.0043821" lon="11.2404539"><ele>274.6666666666667</ele><time>2026-05-03T10:35:16.898Z</time></trkpt><trkpt lat="44.0042356" lon="11.2406417"><ele>274.3333333333333</ele><time>2026-05-03T10:35:17.903Z</time></trkpt><trkpt lat="44.0040868" lon="11.2408463"><ele>274.0</ele><time>2026-05-03T10:35:18.9Z</time></trkpt><trkpt lat="44.0039579" lon="11.2410642"><ele>274.0</ele><time>2026-05-03T10:35:19.905Z</time></trkpt><trkpt lat="44.0038294" lon="11.2412889"><ele>274.0</ele><time>2026-05-03T10:35:20.906Z</time></trkpt><trkpt lat="44.0037058" lon="11.2415034"><ele>274.0</ele><time>2026-05-03T10:35:21.905Z</time></trkpt><trkpt lat="44.0035817" lon="11.2417049"><ele>274.3333333333333</ele><time>2026-05-03T10:35:22.91Z</time></trkpt><trkpt lat="44.0034566" lon="11.2418988"><ele>274.6666666666667</ele><time>2026-05-03T10:35:23.905Z</time></trkpt><trkpt lat="44.0033118" lon="11.2420664"><ele>275.0</ele><time>2026-05-03T10:35:24.909Z</time></trkpt><trkpt lat="44.0031497" lon="11.2422191"><ele>275.0</ele><time>2026-05-03T10:35:25.905Z</time></trkpt><trkpt lat="44.0029635" lon="11.242363"><ele>275.0</ele><time>2026-05-03T10:35:26.901Z</time></trkpt><trkpt lat="44.0027613" lon="11.2425047"><ele>275.0</ele><time>2026-05-03T10:35:27.901Z</time></trkpt><trkpt lat="44.0025509" lon="11.2426335"><ele>272.0</ele><time>2026-05-03T10:35:28.905Z</time></trkpt><trkpt lat="44.0023404" lon="11.2427619"><ele>269.0</ele><time>2026-05-03T10:35:29.913Z</time></trkpt><trkpt lat="44.0021288" lon="11.2428964"><ele>269.0</ele><time>2026-05-03T10:35:30.896Z</time></trkpt><trkpt lat="44.0019205" lon="11.2430207"><ele>269.0</ele><time>2026-05-03T10:35:31.898Z</time></trkpt><trkpt lat="44.0017237" lon="11.2431357"><ele>269.0</ele><time>2026-05-03T10:35:32.895Z</time></trkpt><trkpt lat="44.0015404" lon="11.2432552"><ele>270.0</ele><time>2026-05-03T10:35:33.9Z</time></trkpt><trkpt lat="44.0013694" lon="11.2433677"><ele>271.0</ele><time>2026-05-03T10:35:34.894Z</time></trkpt><trkpt lat="44.0011996" lon="11.243464"><ele>272.0</ele><time>2026-05-03T10:35:35.892Z</time></trkpt><trkpt lat="44.0010318" lon="11.24354"><ele>272.0</ele><time>2026-05-03T10:35:36.889Z</time></trkpt><trkpt lat="44.0008502" lon="11.2435704"><ele>272.0</ele><time>2026-05-03T10:35:37.904Z</time></trkpt><trkpt lat="44.0006646" lon="11.2435831"><ele>272.0</ele><time>2026-05-03T10:35:38.895Z</time></trkpt><trkpt lat="44.0004796" lon="11.2435505"><ele>271.25</ele><time>2026-05-03T10:35:39.906Z</time></trkpt><trkpt lat="44.0003111" lon="11.2434715"><ele>270.5</ele><time>2026-05-03T10:35:40.901Z</time></trkpt><trkpt lat="44.0001866" lon="11.2433981"><ele>269.75</ele><time>2026-05-03T10:35:41.899Z</time></trkpt><trkpt lat="44.000099" lon="11.2433149"><ele>269.0</ele><time>2026-05-03T10:35:42.907Z</time></trkpt><trkpt lat="44.000037" lon="11.24324"><ele>269.0</ele><time>2026-05-03T10:35:43.901Z</time></trkpt><trkpt lat="43.9999849" lon="11.2431367"><ele>269.0</ele><time>2026-05-03T10:35:45.911Z</time></trkpt><trkpt lat="43.9999028" lon="11.2430141"><ele>269.0</ele><time>2026-05-03T10:35:47.921Z</time></trkpt><trkpt lat="43.999839" lon="11.2429548"><ele>269.0</ele><time>2026-05-03T10:35:48.913Z</time></trkpt><trkpt lat="43.9997684" lon="11.2429064"><ele>269.0</ele><time>2026-05-03T10:35:49.922Z</time></trkpt><trkpt lat="43.9996833" lon="11.2429057"><ele>268.8</ele><time>2026-05-03T10:35:50.924Z</time></trkpt><trkpt lat="43.9995915" lon="11.2429538"><ele>268.59999999999997</ele><time>2026-05-03T10:35:51.919Z</time></trkpt><trkpt lat="43.9994928" lon="11.2429922"><ele>268.4</ele><time>2026-05-03T10:35:52.921Z</time></trkpt><trkpt lat="43.9993902" lon="11.2429933"><ele>268.2</ele><time>2026-05-03T10:35:53.912Z</time></trkpt><trkpt lat="43.9992815" lon="11.2429738"><ele>268.0</ele><time>2026-05-03T10:35:54.921Z</time></trkpt><trkpt lat="43.9991514" lon="11.2429282"><ele>268.0</ele><time>2026-05-03T10:35:55.923Z</time></trkpt><trkpt lat="43.9989942" lon="11.2428633"><ele>268.0</ele><time>2026-05-03T10:35:56.91Z</time></trkpt><trkpt lat="43.9988152" lon="11.2427808"><ele>268.0</ele><time>2026-05-03T10:35:57.913Z</time></trkpt><trkpt lat="43.9986397" lon="11.2426932"><ele>268.0</ele><time>2026-05-03T10:35:58.91Z</time></trkpt><trkpt lat="43.9984617" lon="11.242614"><ele>268.0</ele><time>2026-05-03T10:35:59.914Z</time></trkpt><trkpt lat="43.9982885" lon="11.2425316"><ele>268.0</ele><time>2026-05-03T10:36:00.913Z</time></trkpt><trkpt lat="43.9981096" lon="11.2424465"><ele>266.66666666666663</ele><time>2026-05-03T10:36:01.916Z</time></trkpt><trkpt lat="43.9979316" lon="11.2423671"><ele>265.3333333333333</ele><time>2026-05-03T10:36:02.912Z</time></trkpt><trkpt lat="43.997759" lon="11.2423"><ele>264.0</ele><time>2026-05-03T10:36:03.912Z</time></trkpt><trkpt lat="43.9975947" lon="11.2422199"><ele>264.0</ele><time>2026-05-03T10:36:04.91Z</time></trkpt><trkpt lat="43.9974322" lon="11.2421367"><ele>264.0</ele><time>2026-05-03T10:36:05.915Z</time></trkpt><trkpt lat="43.9972685" lon="11.2420624"><ele>264.0</ele><time>2026-05-03T10:36:06.913Z</time></trkpt><trkpt lat="43.9971181" lon="11.242"><ele>264.0</ele><time>2026-05-03T10:36:07.914Z</time></trkpt><trkpt lat="43.9969759" lon="11.2419425"><ele>264.0</ele><time>2026-05-03T10:36:08.927Z</time></trkpt><trkpt lat="43.9968313" lon="11.2418777"><ele>264.0</ele><time>2026-05-03T10:36:09.91Z</time></trkpt><trkpt lat="43.9966966" lon="11.2418129"><ele>264.0</ele><time>2026-05-03T10:36:10.914Z</time></trkpt><trkpt lat="43.9965778" lon="11.2417366"><ele>263.25</ele><time>2026-05-03T10:36:11.908Z</time></trkpt><trkpt lat="43.9964866" lon="11.2416225"><ele>262.5</ele><time>2026-05-03T10:36:12.913Z</time></trkpt><trkpt lat="43.9964159" lon="11.2414608"><ele>261.75</ele><time>2026-05-03T10:36:13.915Z</time></trkpt><trkpt lat="43.9963738" lon="11.2412865"><ele>261.0</ele><time>2026-05-03T10:36:14.91Z</time></trkpt><trkpt lat="43.9963418" lon="11.2411408"><ele>261.0</ele><time>2026-05-03T10:36:15.912Z</time></trkpt><trkpt lat="43.9963119" lon="11.2410175"><ele>261.0</ele><time>2026-05-03T10:36:16.908Z</time></trkpt><trkpt lat="43.9962867" lon="11.2409205"><ele>261.0</ele><time>2026-05-03T10:36:17.923Z</time></trkpt><trkpt lat="43.9962638" lon="11.2408277"><ele>261.0</ele><time>2026-05-03T10:36:18.917Z</time></trkpt><trkpt lat="43.9962447" lon="11.2407415"><ele>261.0</ele><time>2026-05-03T10:36:19.921Z</time></trkpt><trkpt lat="43.9962111" lon="11.2405869"><ele>261.0</ele><time>2026-05-03T10:36:21.912Z</time></trkpt><trkpt lat="43.9961895" lon="11.2404922"><ele>261.5</ele><time>2026-05-03T10:36:23.911Z</time></trkpt><trkpt lat="43.9961429" lon="11.2403522"><ele>262.0</ele><time>2026-05-03T10:36:25.924Z</time></trkpt><trkpt lat="43.996115" lon="11.2402362"><ele>262.5</ele><time>2026-05-03T10:36:26.919Z</time></trkpt><trkpt lat="43.9960837" lon="11.2401397"><ele>263.0</ele><time>2026-05-03T10:36:27.923Z</time></trkpt><trkpt lat="43.9960374" lon="11.2400678"><ele>263.5</ele><time>2026-05-03T10:36:28.922Z</time></trkpt><trkpt lat="43.9959786" lon="11.2400324"><ele>264.0</ele><time>2026-05-03T10:36:29.928Z</time></trkpt><trkpt lat="43.9958923" lon="11.240024"><ele>264.25</ele><time>2026-05-03T10:36:30.919Z</time></trkpt><trkpt lat="43.9957802" lon="11.2400415"><ele>264.5</ele><time>2026-05-03T10:36:31.91Z</time></trkpt><trkpt lat="43.9956461" lon="11.2400565"><ele>264.75</ele><time>2026-05-03T10:36:32.917Z</time></trkpt><trkpt lat="43.9955048" lon="11.2400758"><ele>265.0</ele><time>2026-05-03T10:36:33.918Z</time></trkpt><trkpt lat="43.9953603" lon="11.2400946"><ele>265.0</ele><time>2026-05-03T10:36:34.919Z</time></trkpt><trkpt lat="43.9952174" lon="11.2401198"><ele>265.0</ele><time>2026-05-03T10:36:35.917Z</time></trkpt><trkpt lat="43.9950737" lon="11.2401432"><ele>265.0</ele><time>2026-05-03T10:36:36.911Z</time></trkpt><trkpt lat="43.9949281" lon="11.240169"><ele>265.0</ele><time>2026-05-03T10:36:37.922Z</time></trkpt><trkpt lat="43.9947835" lon="11.2401968"><ele>265.0</ele><time>2026-05-03T10:36:38.919Z</time></trkpt><trkpt lat="43.9946317" lon="11.2402198"><ele>265.0</ele><time>2026-05-03T10:36:39.93Z</time></trkpt><trkpt lat="43.9944877" lon="11.2402463"><ele>265.0</ele><time>2026-05-03T10:36:40.914Z</time></trkpt><trkpt lat="43.9943419" lon="11.240258"><ele>265.0</ele><time>2026-05-03T10:36:41.916Z</time></trkpt><trkpt lat="43.9942106" lon="11.2402681"><ele>264.5</ele><time>2026-05-03T10:36:42.916Z</time></trkpt><trkpt lat="43.9940922" lon="11.2402987"><ele>264.0</ele><time>2026-05-03T10:36:43.917Z</time></trkpt><trkpt lat="43.9939715" lon="11.2403111"><ele>263.5</ele><time>2026-05-03T10:36:44.921Z</time></trkpt><trkpt lat="43.9938601" lon="11.2403187"><ele>263.0</ele><time>2026-05-03T10:36:45.92Z</time></trkpt><trkpt lat="43.9937498" lon="11.2403232"><ele>263.0</ele><time>2026-05-03T10:36:46.921Z</time></trkpt><trkpt lat="43.9936542" lon="11.2403326"><ele>263.0</ele><time>2026-05-03T10:36:47.915Z</time></trkpt><trkpt lat="43.9935627" lon="11.2403091"><ele>263.0</ele><time>2026-05-03T10:36:48.923Z</time></trkpt><trkpt lat="43.9934832" lon="11.240285"><ele>263.0</ele><time>2026-05-03T10:36:49.909Z</time></trkpt><trkpt lat="43.9934105" lon="11.2402446"><ele>263.0</ele><time>2026-05-03T10:36:50.919Z</time></trkpt><trkpt lat="43.9933487" lon="11.2401959"><ele>263.0</ele><time>2026-05-03T10:36:51.915Z</time></trkpt><trkpt lat="43.9932928" lon="11.240145"><ele>263.0</ele><time>2026-05-03T10:36:52.924Z</time></trkpt><trkpt lat="43.993236" lon="11.2400915"><ele>263.0</ele><time>2026-05-03T10:36:53.916Z</time></trkpt><trkpt lat="43.9931747" lon="11.240033"><ele>263.0</ele><time>2026-05-03T10:36:54.921Z</time></trkpt><trkpt lat="43.9931145" lon="11.239964"><ele>263.0</ele><time>2026-05-03T10:36:55.914Z</time></trkpt><trkpt lat="43.993053" lon="11.2398876"><ele>263.0</ele><time>2026-05-03T10:36:56.915Z</time></trkpt><trkpt lat="43.9929942" lon="11.2397905"><ele>263.0</ele><time>2026-05-03T10:36:57.924Z</time></trkpt><trkpt lat="43.9929357" lon="11.2396772"><ele>263.0</ele><time>2026-05-03T10:36:58.916Z</time></trkpt><trkpt lat="43.9928887" lon="11.2395489"><ele>263.0</ele><time>2026-05-03T10:36:59.917Z</time></trkpt><trkpt lat="43.9928435" lon="11.2394086"><ele>263.0</ele><time>2026-05-03T10:37:00.92Z</time></trkpt><trkpt lat="43.9927962" lon="11.2392529"><ele>263.0</ele><time>2026-05-03T10:37:01.918Z</time></trkpt><trkpt lat="43.9927444" lon="11.2390847"><ele>263.0</ele><time>2026-05-03T10:37:02.915Z</time></trkpt><trkpt lat="43.9926854" lon="11.2389041"><ele>263.0</ele><time>2026-05-03T10:37:03.923Z</time></trkpt><trkpt lat="43.9926174" lon="11.238701"><ele>263.0</ele><time>2026-05-03T10:37:04.916Z</time></trkpt><trkpt lat="43.9925553" lon="11.2384723"><ele>263.0</ele><time>2026-05-03T10:37:05.915Z</time></trkpt><trkpt lat="43.9924852" lon="11.2382292"><ele>263.0</ele><time>2026-05-03T10:37:06.915Z</time></trkpt><trkpt lat="43.9924081" lon="11.2379868"><ele>263.0</ele><time>2026-05-03T10:37:07.924Z</time></trkpt><trkpt lat="43.9923236" lon="11.2377516"><ele>263.0</ele><time>2026-05-03T10:37:08.914Z</time></trkpt><trkpt lat="43.9922419" lon="11.2375133"><ele>263.0</ele><time>2026-05-03T10:37:09.92Z</time></trkpt><trkpt lat="43.9921598" lon="11.2372717"><ele>263.0</ele><time>2026-05-03T10:37:10.935Z</time></trkpt><trkpt lat="43.9920836" lon="11.2370408"><ele>263.0</ele><time>2026-05-03T10:37:11.922Z</time></trkpt><trkpt lat="43.9920095" lon="11.23683"><ele>263.0</ele><time>2026-05-03T10:37:12.917Z</time></trkpt><trkpt lat="43.9919371" lon="11.2366402"><ele>263.0</ele><time>2026-05-03T10:37:13.918Z</time></trkpt><trkpt lat="43.9918764" lon="11.2364636"><ele>263.4</ele><time>2026-05-03T10:37:14.917Z</time></trkpt><trkpt lat="43.9918194" lon="11.2363108"><ele>263.8</ele><time>2026-05-03T10:37:15.92Z</time></trkpt><trkpt lat="43.9917785" lon="11.236169"><ele>264.2</ele><time>2026-05-03T10:37:16.918Z</time></trkpt><trkpt lat="43.9917574" lon="11.2360452"><ele>264.6</ele><time>2026-05-03T10:37:17.92Z</time></trkpt><trkpt lat="43.991752" lon="11.2359282"><ele>265.0</ele><time>2026-05-03T10:37:18.915Z</time></trkpt><trkpt lat="43.9917722" lon="11.2358127"><ele>265.0</ele><time>2026-05-03T10:37:19.916Z</time></trkpt><trkpt lat="43.9917841" lon="11.2357082"><ele>265.0</ele><time>2026-05-03T10:37:20.921Z</time></trkpt><trkpt lat="43.9917841" lon="11.2356099"><ele>265.0</ele><time>2026-05-03T10:37:21.924Z</time></trkpt><trkpt lat="43.9917566" lon="11.2355228"><ele>265.0</ele><time>2026-05-03T10:37:22.922Z</time></trkpt><trkpt lat="43.9916938" lon="11.2354659"><ele>265.0</ele><time>2026-05-03T10:37:23.918Z</time></trkpt><trkpt lat="43.9916107" lon="11.235473"><ele>265.0</ele><time>2026-05-03T10:37:24.921Z</time></trkpt><trkpt lat="43.9915374" lon="11.2355253"><ele>264.8</ele><time>2026-05-03T10:37:25.922Z</time></trkpt><trkpt lat="43.9914899" lon="11.2356337"><ele>264.6</ele><time>2026-05-03T10:37:26.917Z</time></trkpt><trkpt lat="43.9914764" lon="11.2357647"><ele>264.4</ele><time>2026-05-03T10:37:27.921Z</time></trkpt><trkpt lat="43.9915042" lon="11.2358936"><ele>264.2</ele><time>2026-05-03T10:37:28.927Z</time></trkpt><trkpt lat="43.9915738" lon="11.2359995"><ele>264.0</ele><time>2026-05-03T10:37:29.915Z</time></trkpt><trkpt lat="43.9916594" lon="11.236084"><ele>264.25</ele><time>2026-05-03T10:37:30.912Z</time></trkpt><trkpt lat="43.9917397" lon="11.2361875"><ele>264.5</ele><time>2026-05-03T10:37:31.921Z</time></trkpt><trkpt lat="43.9918106" lon="11.2363322"><ele>264.75</ele><time>2026-05-03T10:37:32.915Z</time></trkpt><trkpt lat="43.9918758" lon="11.236515"><ele>265.0</ele><time>2026-05-03T10:37:33.911Z</time></trkpt><trkpt lat="43.9919485" lon="11.2367224"><ele>264.3333333333333</ele><time>2026-05-03T10:37:34.914Z</time></trkpt><trkpt lat="43.992021" lon="11.2369768"><ele>263.6666666666667</ele><time>2026-05-03T10:37:35.919Z</time></trkpt><trkpt lat="43.9921048" lon="11.237232"><ele>263.0</ele><time>2026-05-03T10:37:36.913Z</time></trkpt><trkpt lat="43.9921832" lon="11.237461"><ele>263.0</ele><time>2026-05-03T10:37:37.919Z</time></trkpt><trkpt lat="43.9922641" lon="11.2376926"><ele>263.0</ele><time>2026-05-03T10:37:38.916Z</time></trkpt><trkpt lat="43.9923462" lon="11.2379108"><ele>263.0</ele><time>2026-05-03T10:37:39.927Z</time></trkpt><trkpt lat="43.9924201" lon="11.2381385"><ele>263.0</ele><time>2026-05-03T10:37:40.916Z</time></trkpt><trkpt lat="43.9924928" lon="11.2383503"><ele>263.0</ele><time>2026-05-03T10:37:41.952Z</time></trkpt><trkpt lat="43.9925574" lon="11.2385553"><ele>263.0</ele><time>2026-05-03T10:37:42.916Z</time></trkpt><trkpt lat="43.9926227" lon="11.2387592"><ele>263.0</ele><time>2026-05-03T10:37:43.916Z</time></trkpt><trkpt lat="43.9926829" lon="11.2389564"><ele>263.0</ele><time>2026-05-03T10:37:44.916Z</time></trkpt><trkpt lat="43.9927454" lon="11.2391437"><ele>263.0</ele><time>2026-05-03T10:37:45.918Z</time></trkpt><trkpt lat="43.9928035" lon="11.2393218"><ele>263.0</ele><time>2026-05-03T10:37:46.91Z</time></trkpt><trkpt lat="43.992858" lon="11.2394942"><ele>263.0</ele><time>2026-05-03T10:37:47.921Z</time></trkpt><trkpt lat="43.9929161" lon="11.2396737"><ele>263.0</ele><time>2026-05-03T10:37:48.917Z</time></trkpt><trkpt lat="43.9929667" lon="11.2398388"><ele>263.0</ele><time>2026-05-03T10:37:49.926Z</time></trkpt><trkpt lat="43.9930047" lon="11.2399872"><ele>263.0</ele><time>2026-05-03T10:37:50.925Z</time></trkpt><trkpt lat="43.9930467" lon="11.2401063"><ele>263.0</ele><time>2026-05-03T10:37:51.918Z</time></trkpt><trkpt lat="43.9930757" lon="11.240223"><ele>263.0</ele><time>2026-05-03T10:37:52.916Z</time></trkpt><trkpt lat="43.993085" lon="11.2403362"><ele>263.0</ele><time>2026-05-03T10:37:53.908Z</time></trkpt><trkpt lat="43.9930766" lon="11.2404567"><ele>263.0</ele><time>2026-05-03T10:37:54.916Z</time></trkpt><trkpt lat="43.9930687" lon="11.2405627"><ele>263.0</ele><time>2026-05-03T10:37:55.915Z</time></trkpt><trkpt lat="43.993051" lon="11.2406637"><ele>263.0</ele><time>2026-05-03T10:37:56.924Z</time></trkpt><trkpt lat="43.9930073" lon="11.2407519"><ele>263.25</ele><time>2026-05-03T10:37:57.92Z</time></trkpt><trkpt lat="43.9929293" lon="11.2408063"><ele>263.5</ele><time>2026-05-03T10:37:58.93Z</time></trkpt><trkpt lat="43.9928278" lon="11.240817"><ele>263.75</ele><time>2026-05-03T10:37:59.914Z</time></trkpt><trkpt lat="43.9927002" lon="11.2407949"><ele>264.0</ele><time>2026-05-03T10:38:00.909Z</time></trkpt><trkpt lat="43.9925609" lon="11.2407707"><ele>262.6666666666667</ele><time>2026-05-03T10:38:01.908Z</time></trkpt><trkpt lat="43.9924076" lon="11.2407405"><ele>261.33333333333337</ele><time>2026-05-03T10:38:02.907Z</time></trkpt><trkpt lat="43.9922461" lon="11.2407029"><ele>260.0</ele><time>2026-05-03T10:38:03.903Z</time></trkpt><trkpt lat="43.9920667" lon="11.2406376"><ele>260.0</ele><time>2026-05-03T10:38:04.91Z</time></trkpt><trkpt lat="43.9918722" lon="11.2405773"><ele>260.0</ele><time>2026-05-03T10:38:05.909Z</time></trkpt><trkpt lat="43.9916851" lon="11.2405514"><ele>260.0</ele><time>2026-05-03T10:38:06.911Z</time></trkpt><trkpt lat="43.9915103" lon="11.2405282"><ele>259.33333333333337</ele><time>2026-05-03T10:38:07.914Z</time></trkpt><trkpt lat="43.9913403" lon="11.2405089"><ele>258.6666666666667</ele><time>2026-05-03T10:38:08.913Z</time></trkpt><trkpt lat="43.9911803" lon="11.240494"><ele>258.0</ele><time>2026-05-03T10:38:09.918Z</time></trkpt><trkpt lat="43.9910226" lon="11.240468"><ele>258.0</ele><time>2026-05-03T10:38:10.918Z</time></trkpt><trkpt lat="43.9908673" lon="11.240445"><ele>258.0</ele><time>2026-05-03T10:38:11.937Z</time></trkpt><trkpt lat="43.9907263" lon="11.2404265"><ele>258.0</ele><time>2026-05-03T10:38:12.921Z</time></trkpt><trkpt lat="43.9905803" lon="11.2404144"><ele>258.0</ele><time>2026-05-03T10:38:13.924Z</time></trkpt><trkpt lat="43.9904322" lon="11.2404185"><ele>258.0</ele><time>2026-05-03T10:38:14.922Z</time></trkpt><trkpt lat="43.9902876" lon="11.2404209"><ele>258.0</ele><time>2026-05-03T10:38:15.921Z</time></trkpt><trkpt lat="43.9901652" lon="11.2404311"><ele>258.0</ele><time>2026-05-03T10:38:16.921Z</time></trkpt><trkpt lat="43.990044" lon="11.2404487"><ele>258.0</ele><time>2026-05-03T10:38:17.925Z</time></trkpt><trkpt lat="43.9899272" lon="11.2404533"><ele>258.0</ele><time>2026-05-03T10:38:18.919Z</time></trkpt><trkpt lat="43.9898204" lon="11.2404744"><ele>258.0</ele><time>2026-05-03T10:38:19.914Z</time></trkpt><trkpt lat="43.9897224" lon="11.2405092"><ele>258.0</ele><time>2026-05-03T10:38:20.917Z</time></trkpt><trkpt lat="43.989622" lon="11.2405177"><ele>258.0</ele><time>2026-05-03T10:38:21.918Z</time></trkpt><trkpt lat="43.98954" lon="11.2405447"><ele>258.0</ele><time>2026-05-03T10:38:22.92Z</time></trkpt><trkpt lat="43.9894645" lon="11.240553"><ele>258.0</ele><time>2026-05-03T10:38:23.919Z</time></trkpt><trkpt lat="43.9893902" lon="11.2405712"><ele>258.0</ele><time>2026-05-03T10:38:24.921Z</time></trkpt><trkpt lat="43.9893207" lon="11.2405836"><ele>258.0</ele><time>2026-05-03T10:38:25.92Z</time></trkpt><trkpt lat="43.9892542" lon="11.2405997"><ele>258.0</ele><time>2026-05-03T10:38:26.917Z</time></trkpt><trkpt lat="43.9891417" lon="11.2406272"><ele>258.0</ele><time>2026-05-03T10:38:28.922Z</time></trkpt><trkpt lat="43.9890176" lon="11.2406495"><ele>257.85714285714283</ele><time>2026-05-03T10:38:30.925Z</time></trkpt><trkpt lat="43.9889486" lon="11.2406665"><ele>257.7142857142857</ele><time>2026-05-03T10:38:31.924Z</time></trkpt><trkpt lat="43.9888767" lon="11.2406849"><ele>257.57142857142856</ele><time>2026-05-03T10:38:32.919Z</time></trkpt><trkpt lat="43.9888034" lon="11.2407004"><ele>257.42857142857144</ele><time>2026-05-03T10:38:33.925Z</time></trkpt><trkpt lat="43.9887391" lon="11.2407197"><ele>257.2857142857143</ele><time>2026-05-03T10:38:34.923Z</time></trkpt><trkpt lat="43.9886753" lon="11.2407309"><ele>257.1428571428571</ele><time>2026-05-03T10:38:35.923Z</time></trkpt><trkpt lat="43.9886084" lon="11.240735"><ele>257.0</ele><time>2026-05-03T10:38:36.92Z</time></trkpt><trkpt lat="43.9884915" lon="11.2407237"><ele>257.0</ele><time>2026-05-03T10:38:38.917Z</time></trkpt><trkpt lat="43.9884267" lon="11.240705"><ele>257.0</ele><time>2026-05-03T10:38:40.915Z</time></trkpt><trkpt lat="43.9883851" lon="11.2407726"><ele>257.0</ele><time>2026-05-03T10:38:51.922Z</time></trkpt><trkpt lat="43.9884188" lon="11.2406681"><ele>257.0</ele><time>2026-05-03T10:39:53.927Z</time></trkpt><trkpt lat="43.9884359" lon="11.2405547"><ele>257.0</ele><time>2026-05-03T10:39:55.928Z</time></trkpt><trkpt lat="43.9884304" lon="11.2404369"><ele>257.0</ele><time>2026-05-03T10:39:57.924Z</time></trkpt><trkpt lat="43.9883876" lon="11.2402901"><ele>257.0</ele><time>2026-05-03T10:39:59.926Z</time></trkpt><trkpt lat="43.9883434" lon="11.240165"><ele>257.0</ele><time>2026-05-03T10:40:01.921Z</time></trkpt><trkpt lat="43.9882994" lon="11.2400704"><ele>257.0</ele><time>2026-05-03T10:40:03.92Z</time></trkpt><trkpt lat="43.9882504" lon="11.2399571"><ele>257.0</ele><time>2026-05-03T10:40:05.921Z</time></trkpt><trkpt lat="43.9882004" lon="11.2398313"><ele>257.0</ele><time>2026-05-03T10:40:07.923Z</time></trkpt><trkpt lat="43.9881547" lon="11.2396978"><ele>256.6</ele><time>2026-05-03T10:40:09.925Z</time></trkpt><trkpt lat="43.9881196" lon="11.2395787"><ele>256.2</ele><time>2026-05-03T10:40:11.922Z</time></trkpt><trkpt lat="43.988113" lon="11.2394915"><ele>255.8</ele><time>2026-05-03T10:40:13.917Z</time></trkpt><trkpt lat="43.9881247" lon="11.2396302"><ele>255.4</ele><time>2026-05-03T10:40:32.92Z</time></trkpt><trkpt lat="43.9881786" lon="11.239802"><ele>255.0</ele><time>2026-05-03T10:40:34.919Z</time></trkpt><trkpt lat="43.9882054" lon="11.2399003"><ele>255.0</ele><time>2026-05-03T10:40:35.924Z</time></trkpt><trkpt lat="43.9882349" lon="11.2399869"><ele>255.0</ele><time>2026-05-03T10:40:36.923Z</time></trkpt><trkpt lat="43.9882586" lon="11.2400702"><ele>255.0</ele><time>2026-05-03T10:40:37.924Z</time></trkpt><trkpt lat="43.988305" lon="11.2402295"><ele>255.0</ele><time>2026-05-03T10:40:39.923Z</time></trkpt><trkpt lat="43.9883564" lon="11.2403795"><ele>255.0</ele><time>2026-05-03T10:40:41.917Z</time></trkpt><trkpt lat="43.9884042" lon="11.2405332"><ele>255.16666666666666</ele><time>2026-05-03T10:40:43.918Z</time></trkpt><trkpt lat="43.9884384" lon="11.240658"><ele>255.33333333333331</ele><time>2026-05-03T10:40:45.918Z</time></trkpt><trkpt lat="43.9884507" lon="11.2407487"><ele>255.5</ele><time>2026-05-03T10:40:47.922Z</time></trkpt><trkpt lat="43.9884063" lon="11.2408278"><ele>255.66666666666666</ele><time>2026-05-03T10:40:52.919Z</time></trkpt><trkpt lat="43.9883337" lon="11.2408323"><ele>255.83333333333331</ele><time>2026-05-03T10:40:54.919Z</time></trkpt><trkpt lat="43.9882566" lon="11.2408362"><ele>256.0</ele><time>2026-05-03T10:40:56.919Z</time></trkpt><trkpt lat="43.9881931" lon="11.240871"><ele>256.0</ele><time>2026-05-03T10:41:14.937Z</time></trkpt><trkpt lat="43.9881684" lon="11.241008"><ele>256.0</ele><time>2026-05-03T10:41:17.95Z</time></trkpt><trkpt lat="43.9881621" lon="11.2411591"><ele>256.0</ele><time>2026-05-03T10:41:19.933Z</time></trkpt><trkpt lat="43.9881605" lon="11.2413156"><ele>256.0</ele><time>2026-05-03T10:41:21.934Z</time></trkpt><trkpt lat="43.9881551" lon="11.2414656"><ele>256.0</ele><time>2026-05-03T10:41:23.927Z</time></trkpt><trkpt lat="43.9881571" lon="11.2416209"><ele>256.25</ele><time>2026-05-03T10:41:25.924Z</time></trkpt><trkpt lat="43.9881855" lon="11.2417898"><ele>256.5</ele><time>2026-05-03T10:41:27.92Z</time></trkpt><trkpt lat="43.9882091" lon="11.2419479"><ele>256.75</ele><time>2026-05-03T10:41:29.929Z</time></trkpt><trkpt lat="43.9882325" lon="11.2421063"><ele>257.0</ele><time>2026-05-03T10:41:31.926Z</time></trkpt><trkpt lat="43.9882778" lon="11.2422524"><ele>256.83333333333337</ele><time>2026-05-03T10:41:33.921Z</time></trkpt><trkpt lat="43.9883541" lon="11.2423727"><ele>256.6666666666667</ele><time>2026-05-03T10:41:35.928Z</time></trkpt><trkpt lat="43.9883981" lon="11.2424407"><ele>256.5</ele><time>2026-05-03T10:41:36.935Z</time></trkpt><trkpt lat="43.9884477" lon="11.2425213"><ele>256.3333333333333</ele><time>2026-05-03T10:41:37.928Z</time></trkpt><trkpt lat="43.988494" lon="11.2426051"><ele>256.16666666666663</ele><time>2026-05-03T10:41:38.93Z</time></trkpt><trkpt lat="43.9885403" lon="11.2426926"><ele>256.0</ele><time>2026-05-03T10:41:39.931Z</time></trkpt><trkpt lat="43.9885909" lon="11.2427812"><ele>255.99999999999997</ele><time>2026-05-03T10:41:40.926Z</time></trkpt><trkpt lat="43.9886393" lon="11.2428728"><ele>256.0</ele><time>2026-05-03T10:41:41.923Z</time></trkpt><trkpt lat="43.988691" lon="11.2429657"><ele>256.0</ele><time>2026-05-03T10:41:42.924Z</time></trkpt><trkpt lat="43.9887393" lon="11.2430601"><ele>256.0</ele><time>2026-05-03T10:41:43.924Z</time></trkpt><trkpt lat="43.9887853" lon="11.2431528"><ele>255.99999999999997</ele><time>2026-05-03T10:41:44.927Z</time></trkpt><trkpt lat="43.9888302" lon="11.2432442"><ele>256.0</ele><time>2026-05-03T10:41:45.925Z</time></trkpt><trkpt lat="43.9888761" lon="11.2433346"><ele>255.83333333333331</ele><time>2026-05-03T10:41:46.935Z</time></trkpt><trkpt lat="43.9889169" lon="11.2434184"><ele>255.66666666666666</ele><time>2026-05-03T10:41:47.933Z</time></trkpt><trkpt lat="43.9889549" lon="11.2435"><ele>255.5</ele><time>2026-05-03T10:41:48.945Z</time></trkpt><trkpt lat="43.9889918" lon="11.2435753"><ele>255.33333333333331</ele><time>2026-05-03T10:41:49.925Z</time></trkpt><trkpt lat="43.9890422" lon="11.2437001"><ele>255.16666666666666</ele><time>2026-05-03T10:41:51.92Z</time></trkpt><trkpt lat="43.989084" lon="11.2437852"><ele>255.0</ele><time>2026-05-03T10:41:53.926Z</time></trkpt><trkpt lat="43.9891491" lon="11.2438648"><ele>254.83333333333334</ele><time>2026-05-03T10:41:56.925Z</time></trkpt><trkpt lat="43.9892179" lon="11.2439006"><ele>254.66666666666669</ele><time>2026-05-03T10:41:59.928Z</time></trkpt><trkpt lat="43.9892842" lon="11.2438824"><ele>254.5</ele><time>2026-05-03T10:42:02.924Z</time></trkpt><trkpt lat="43.9893511" lon="11.243843"><ele>254.33333333333334</ele><time>2026-05-03T10:42:04.927Z</time></trkpt><trkpt lat="43.989436" lon="11.2437709"><ele>254.16666666666669</ele><time>2026-05-03T10:42:06.923Z</time></trkpt><trkpt lat="43.9894973" lon="11.2437267"><ele>254.0</ele><time>2026-05-03T10:42:08.919Z</time></trkpt><trkpt lat="43.98955" lon="11.2436563"><ele>254.0</ele><time>2026-05-03T10:42:21.929Z</time></trkpt><trkpt lat="43.9895872" lon="11.2435738"><ele>253.99999999999997</ele><time>2026-05-03T10:42:22.923Z</time></trkpt><trkpt lat="43.9896252" lon="11.2434609"><ele>253.99999999999997</ele><time>2026-05-03T10:42:23.925Z</time></trkpt><trkpt lat="43.9896554" lon="11.2433334"><ele>254.0</ele><time>2026-05-03T10:42:24.923Z</time></trkpt><trkpt lat="43.9896818" lon="11.2431914"><ele>254.0</ele><time>2026-05-03T10:42:25.921Z</time></trkpt><trkpt lat="43.9897074" lon="11.243045"><ele>254.16666666666669</ele><time>2026-05-03T10:42:26.925Z</time></trkpt><trkpt lat="43.9897289" lon="11.2429062"><ele>254.33333333333334</ele><time>2026-05-03T10:42:27.923Z</time></trkpt><trkpt lat="43.9897461" lon="11.2427775"><ele>254.5</ele><time>2026-05-03T10:42:28.925Z</time></trkpt><trkpt lat="43.9897618" lon="11.2426658"><ele>254.66666666666669</ele><time>2026-05-03T10:42:29.924Z</time></trkpt><trkpt lat="43.98976" lon="11.2425655"><ele>254.83333333333334</ele><time>2026-05-03T10:42:30.921Z</time></trkpt><trkpt lat="43.9897448" lon="11.2424775"><ele>255.0</ele><time>2026-05-03T10:42:31.918Z</time></trkpt><trkpt lat="43.9896938" lon="11.2423529"><ele>255.0</ele><time>2026-05-03T10:42:33.923Z</time></trkpt><trkpt lat="43.9896989" lon="11.2422563"><ele>255.0</ele><time>2026-05-03T10:42:37.918Z</time></trkpt><trkpt lat="43.9897632" lon="11.2421876"><ele>255.0</ele><time>2026-05-03T10:42:39.922Z</time></trkpt><trkpt lat="43.9897806" lon="11.2420501"><ele>255.0</ele><time>2026-05-03T10:42:41.918Z</time></trkpt><trkpt lat="43.9897736" lon="11.2419569"><ele>255.0</ele><time>2026-05-03T10:42:42.916Z</time></trkpt><trkpt lat="43.9897608" lon="11.2418504"><ele>255.0</ele><time>2026-05-03T10:42:43.921Z</time></trkpt><trkpt lat="43.9897474" lon="11.2417358"><ele>255.0</ele><time>2026-05-03T10:42:44.919Z</time></trkpt><trkpt lat="43.9897351" lon="11.2416138"><ele>255.0</ele><time>2026-05-03T10:42:45.924Z</time></trkpt><trkpt lat="43.9897179" lon="11.2414889"><ele>255.0</ele><time>2026-05-03T10:42:46.922Z</time></trkpt><trkpt lat="43.9897023" lon="11.2413634"><ele>255.0</ele><time>2026-05-03T10:42:47.932Z</time></trkpt><trkpt lat="43.9896902" lon="11.2412435"><ele>255.0</ele><time>2026-05-03T10:42:48.922Z</time></trkpt><trkpt lat="43.9896816" lon="11.2411323"><ele>255.0</ele><time>2026-05-03T10:42:49.943Z</time></trkpt><trkpt lat="43.9896718" lon="11.2410311"><ele>255.2</ele><time>2026-05-03T10:42:50.925Z</time></trkpt><trkpt lat="43.9896618" lon="11.2409395"><ele>255.4</ele><time>2026-05-03T10:42:51.927Z</time></trkpt><trkpt lat="43.9896406" lon="11.2407816"><ele>255.60000000000002</ele><time>2026-05-03T10:42:53.924Z</time></trkpt><trkpt lat="43.989626" lon="11.240658"><ele>255.8</ele><time>2026-05-03T10:42:55.918Z</time></trkpt><trkpt lat="43.9896546" lon="11.240577"><ele>256.0</ele><time>2026-05-03T10:43:00.931Z</time></trkpt><trkpt lat="43.9897905" lon="11.2405596"><ele>256.5</ele><time>2026-05-03T10:43:02.91Z</time></trkpt><trkpt lat="43.9898854" lon="11.2405524"><ele>257.0</ele><time>2026-05-03T10:43:03.914Z</time></trkpt><trkpt lat="43.9900022" lon="11.2405466"><ele>257.5</ele><time>2026-05-03T10:43:04.904Z</time></trkpt><trkpt lat="43.9901461" lon="11.2405341"><ele>258.0</ele><time>2026-05-03T10:43:05.918Z</time></trkpt><trkpt lat="43.99029" lon="11.2405165"><ele>258.5</ele><time>2026-05-03T10:43:06.916Z</time></trkpt><trkpt lat="43.9904327" lon="11.240499"><ele>259.0</ele><time>2026-05-03T10:43:07.919Z</time></trkpt><trkpt lat="43.990571" lon="11.240489"><ele>259.5</ele><time>2026-05-03T10:43:08.913Z</time></trkpt><trkpt lat="43.9906867" lon="11.240492"><ele>260.0</ele><time>2026-05-03T10:43:09.913Z</time></trkpt><trkpt lat="43.9907881" lon="11.2404979"><ele>259.6666666666667</ele><time>2026-05-03T10:43:10.92Z</time></trkpt><trkpt lat="43.9908797" lon="11.2405097"><ele>259.33333333333337</ele><time>2026-05-03T10:43:11.92Z</time></trkpt><trkpt lat="43.9909599" lon="11.2405168"><ele>259.0</ele><time>2026-05-03T10:43:12.916Z</time></trkpt><trkpt lat="43.9910323" lon="11.2405259"><ele>258.6666666666667</ele><time>2026-05-03T10:43:13.916Z</time></trkpt><trkpt lat="43.9911006" lon="11.2405337"><ele>258.3333333333333</ele><time>2026-05-03T10:43:14.913Z</time></trkpt><trkpt lat="43.9911718" lon="11.240542"><ele>258.0</ele><time>2026-05-03T10:43:15.919Z</time></trkpt><trkpt lat="43.9912436" lon="11.2405527"><ele>258.0</ele><time>2026-05-03T10:43:16.916Z</time></trkpt><trkpt lat="43.9913186" lon="11.2405629"><ele>258.0</ele><time>2026-05-03T10:43:17.92Z</time></trkpt><trkpt lat="43.991389" lon="11.2405702"><ele>258.0</ele><time>2026-05-03T10:43:18.917Z</time></trkpt><trkpt lat="43.9914985" lon="11.2405885"><ele>258.0</ele><time>2026-05-03T10:43:20.938Z</time></trkpt><trkpt lat="43.9915732" lon="11.2405805"><ele>258.0</ele><time>2026-05-03T10:43:22.918Z</time></trkpt><trkpt lat="43.9916999" lon="11.2405767"><ele>258.5</ele><time>2026-05-03T10:43:24.924Z</time></trkpt><trkpt lat="43.9917859" lon="11.2405913"><ele>259.0</ele><time>2026-05-03T10:43:25.914Z</time></trkpt><trkpt lat="43.9918927" lon="11.2406153"><ele>259.5</ele><time>2026-05-03T10:43:26.927Z</time></trkpt><trkpt lat="43.9920187" lon="11.2406339"><ele>260.0</ele><time>2026-05-03T10:43:27.918Z</time></trkpt><trkpt lat="43.9921546" lon="11.2406476"><ele>260.0</ele><time>2026-05-03T10:43:28.924Z</time></trkpt><trkpt lat="43.9922879" lon="11.2406549"><ele>260.0</ele><time>2026-05-03T10:43:29.921Z</time></trkpt><trkpt lat="43.9924234" lon="11.2406582"><ele>260.0</ele><time>2026-05-03T10:43:30.923Z</time></trkpt><trkpt lat="43.9925586" lon="11.240666"><ele>260.0</ele><time>2026-05-03T10:43:31.92Z</time></trkpt><trkpt lat="43.9926885" lon="11.2406792"><ele>261.0</ele><time>2026-05-03T10:43:32.915Z</time></trkpt><trkpt lat="43.9928133" lon="11.2406929"><ele>262.0</ele><time>2026-05-03T10:43:33.913Z</time></trkpt><trkpt lat="43.9929328" lon="11.2407038"><ele>263.0</ele><time>2026-05-03T10:43:34.912Z</time></trkpt><trkpt lat="43.9930423" lon="11.24071"><ele>264.0</ele><time>2026-05-03T10:43:35.909Z</time></trkpt><trkpt lat="43.9931393" lon="11.2407078"><ele>264.0</ele><time>2026-05-03T10:43:36.91Z</time></trkpt><trkpt lat="43.99322" lon="11.2407003"><ele>264.0</ele><time>2026-05-03T10:43:37.914Z</time></trkpt><trkpt lat="43.9932807" lon="11.2406754"><ele>264.0</ele><time>2026-05-03T10:43:38.915Z</time></trkpt><trkpt lat="43.9933434" lon="11.2406349"><ele>264.0</ele><time>2026-05-03T10:43:39.911Z</time></trkpt><trkpt lat="43.9934099" lon="11.240588"><ele>264.0</ele><time>2026-05-03T10:43:40.921Z</time></trkpt><trkpt lat="43.9934695" lon="11.2405223"><ele>264.0</ele><time>2026-05-03T10:43:41.926Z</time></trkpt><trkpt lat="43.9935121" lon="11.2404369"><ele>264.0</ele><time>2026-05-03T10:43:42.925Z</time></trkpt><trkpt lat="43.9935205" lon="11.2403249"><ele>263.75</ele><time>2026-05-03T10:43:43.925Z</time></trkpt><trkpt lat="43.9934841" lon="11.2402"><ele>263.5</ele><time>2026-05-03T10:43:44.924Z</time></trkpt><trkpt lat="43.9934057" lon="11.2400869"><ele>263.25</ele><time>2026-05-03T10:43:45.914Z</time></trkpt><trkpt lat="43.9933069" lon="11.239992"><ele>263.0</ele><time>2026-05-03T10:43:46.919Z</time></trkpt><trkpt lat="43.9931896" lon="11.2398901"><ele>263.0</ele><time>2026-05-03T10:43:47.928Z</time></trkpt><trkpt lat="43.9930837" lon="11.2397538"><ele>263.0</ele><time>2026-05-03T10:43:48.921Z</time></trkpt><trkpt lat="43.9930025" lon="11.2395658"><ele>263.0</ele><time>2026-05-03T10:43:49.918Z</time></trkpt><trkpt lat="43.9929234" lon="11.2393755"><ele>263.0</ele><time>2026-05-03T10:43:50.921Z</time></trkpt><trkpt lat="43.9928395" lon="11.2391754"><ele>263.0</ele><time>2026-05-03T10:43:51.936Z</time></trkpt><trkpt lat="43.9927655" lon="11.2389856"><ele>263.0</ele><time>2026-05-03T10:43:52.92Z</time></trkpt><trkpt lat="43.9927036" lon="11.238795"><ele>263.0</ele><time>2026-05-03T10:43:53.915Z</time></trkpt><trkpt lat="43.9926447" lon="11.2386033"><ele>263.0</ele><time>2026-05-03T10:43:54.912Z</time></trkpt><trkpt lat="43.992584" lon="11.2384162"><ele>263.0</ele><time>2026-05-03T10:43:55.912Z</time></trkpt><trkpt lat="43.9925115" lon="11.2382298"><ele>263.0</ele><time>2026-05-03T10:43:56.918Z</time></trkpt><trkpt lat="43.9924383" lon="11.238041"><ele>263.0</ele><time>2026-05-03T10:43:57.914Z</time></trkpt><trkpt lat="43.9923604" lon="11.2378371"><ele>263.0</ele><time>2026-05-03T10:43:58.92Z</time></trkpt><trkpt lat="43.9922807" lon="11.2376219"><ele>263.0</ele><time>2026-05-03T10:43:59.912Z</time></trkpt><trkpt lat="43.9922121" lon="11.2374108"><ele>263.0</ele><time>2026-05-03T10:44:00.916Z</time></trkpt><trkpt lat="43.9921417" lon="11.2372057"><ele>263.0</ele><time>2026-05-03T10:44:01.92Z</time></trkpt><trkpt lat="43.9920734" lon="11.2370178"><ele>263.0</ele><time>2026-05-03T10:44:02.917Z</time></trkpt><trkpt lat="43.9920072" lon="11.2368376"><ele>263.0</ele><time>2026-05-03T10:44:03.918Z</time></trkpt><trkpt lat="43.9919427" lon="11.2366657"><ele>263.0</ele><time>2026-05-03T10:44:04.916Z</time></trkpt><trkpt lat="43.9918894" lon="11.2365065"><ele>263.0</ele><time>2026-05-03T10:44:05.914Z</time></trkpt><trkpt lat="43.991837" lon="11.2363419"><ele>263.4</ele><time>2026-05-03T10:44:06.913Z</time></trkpt><trkpt lat="43.9917916" lon="11.2361998"><ele>263.8</ele><time>2026-05-03T10:44:07.914Z</time></trkpt><trkpt lat="43.991759" lon="11.2360693"><ele>264.2</ele><time>2026-05-03T10:44:08.914Z</time></trkpt><trkpt lat="43.9917349" lon="11.2359587"><ele>264.6</ele><time>2026-05-03T10:44:09.918Z</time></trkpt><trkpt lat="43.9917736" lon="11.235799"><ele>265.0</ele><time>2026-05-03T10:44:11.92Z</time></trkpt><trkpt lat="43.991781" lon="11.2357104"><ele>264.8333333333333</ele><time>2026-05-03T10:44:12.919Z</time></trkpt><trkpt lat="43.991771" lon="11.2356211"><ele>264.66666666666663</ele><time>2026-05-03T10:44:13.92Z</time></trkpt><trkpt lat="43.9917304" lon="11.2355376"><ele>264.5</ele><time>2026-05-03T10:44:14.923Z</time></trkpt><trkpt lat="43.9916628" lon="11.2354755"><ele>264.3333333333333</ele><time>2026-05-03T10:44:15.931Z</time></trkpt><trkpt lat="43.9915618" lon="11.2354356"><ele>264.1666666666667</ele><time>2026-05-03T10:44:16.916Z</time></trkpt><trkpt lat="43.9914472" lon="11.2353887"><ele>264.0</ele><time>2026-05-03T10:44:17.916Z</time></trkpt><trkpt lat="43.9913338" lon="11.2353222"><ele>264.0</ele><time>2026-05-03T10:44:18.907Z</time></trkpt><trkpt lat="43.9912129" lon="11.2352446"><ele>264.0</ele><time>2026-05-03T10:44:19.914Z</time></trkpt><trkpt lat="43.9910841" lon="11.2351651"><ele>264.0</ele><time>2026-05-03T10:44:20.914Z</time></trkpt><trkpt lat="43.9909428" lon="11.2350775"><ele>264.0</ele><time>2026-05-03T10:44:21.917Z</time></trkpt><trkpt lat="43.9907731" lon="11.2349921"><ele>263.3333333333333</ele><time>2026-05-03T10:44:22.941Z</time></trkpt><trkpt lat="43.990591" lon="11.2349106"><ele>262.66666666666663</ele><time>2026-05-03T10:44:23.923Z</time></trkpt><trkpt lat="43.9904176" lon="11.2348406"><ele>262.0</ele><time>2026-05-03T10:44:24.928Z</time></trkpt><trkpt lat="43.990246" lon="11.2347633"><ele>262.0</ele><time>2026-05-03T10:44:25.92Z</time></trkpt><trkpt lat="43.9900761" lon="11.2346861"><ele>262.0</ele><time>2026-05-03T10:44:26.926Z</time></trkpt><trkpt lat="43.9899194" lon="11.2346171"><ele>262.0</ele><time>2026-05-03T10:44:27.921Z</time></trkpt><trkpt lat="43.9897728" lon="11.2345388"><ele>261.5</ele><time>2026-05-03T10:44:28.927Z</time></trkpt><trkpt lat="43.9896324" lon="11.2344687"><ele>261.0</ele><time>2026-05-03T10:44:29.922Z</time></trkpt><trkpt lat="43.9895093" lon="11.2344024"><ele>260.5</ele><time>2026-05-03T10:44:30.925Z</time></trkpt><trkpt lat="43.989389" lon="11.2343334"><ele>260.0</ele><time>2026-05-03T10:44:31.921Z</time></trkpt><trkpt lat="43.9892745" lon="11.2342785"><ele>259.6</ele><time>2026-05-03T10:44:32.921Z</time></trkpt><trkpt lat="43.9891699" lon="11.2342197"><ele>259.2</ele><time>2026-05-03T10:44:33.919Z</time></trkpt><trkpt lat="43.9890733" lon="11.2341612"><ele>258.8</ele><time>2026-05-03T10:44:34.921Z</time></trkpt><trkpt lat="43.9889917" lon="11.2340942"><ele>258.4</ele><time>2026-05-03T10:44:35.921Z</time></trkpt><trkpt lat="43.9889163" lon="11.2340145"><ele>258.0</ele><time>2026-05-03T10:44:36.921Z</time></trkpt><trkpt lat="43.9888608" lon="11.2339584"><ele>258.0</ele><time>2026-05-03T10:44:37.921Z</time></trkpt><trkpt lat="43.9887735" lon="11.2339278"><ele>258.0</ele><time>2026-05-03T10:44:45.916Z</time></trkpt><trkpt lat="43.9887098" lon="11.2339598"><ele>258.0</ele><time>2026-05-03T10:44:46.912Z</time></trkpt><trkpt lat="43.9886371" lon="11.234032"><ele>258.0</ele><time>2026-05-03T10:44:47.923Z</time></trkpt><trkpt lat="43.9885836" lon="11.2341409"><ele>258.0</ele><time>2026-05-03T10:44:48.91Z</time></trkpt><trkpt lat="43.9885396" lon="11.234266"><ele>258.0</ele><time>2026-05-03T10:44:49.918Z</time></trkpt><trkpt lat="43.9884883" lon="11.234395"><ele>258.0</ele><time>2026-05-03T10:44:50.914Z</time></trkpt><trkpt lat="43.9884333" lon="11.2345299"><ele>258.0</ele><time>2026-05-03T10:44:51.916Z</time></trkpt><trkpt lat="43.9883981" lon="11.2346789"><ele>258.0</ele><time>2026-05-03T10:44:52.917Z</time></trkpt><trkpt lat="43.9883845" lon="11.2348423"><ele>258.0</ele><time>2026-05-03T10:44:53.93Z</time></trkpt><trkpt lat="43.988396" lon="11.2350078"><ele>258.5</ele><time>2026-05-03T10:44:54.922Z</time></trkpt><trkpt lat="43.9884366" lon="11.2351617"><ele>259.0</ele><time>2026-05-03T10:44:55.92Z</time></trkpt><trkpt lat="43.988505" lon="11.2353033"><ele>259.5</ele><time>2026-05-03T10:44:56.916Z</time></trkpt><trkpt lat="43.9885843" lon="11.2354322"><ele>260.0</ele><time>2026-05-03T10:44:57.912Z</time></trkpt><trkpt lat="43.9886702" lon="11.2355351"><ele>260.0</ele><time>2026-05-03T10:44:58.917Z</time></trkpt><trkpt lat="43.9887534" lon="11.2356254"><ele>260.0</ele><time>2026-05-03T10:44:59.915Z</time></trkpt><trkpt lat="43.9888264" lon="11.2357255"><ele>260.0</ele><time>2026-05-03T10:45:00.922Z</time></trkpt><trkpt lat="43.9888712" lon="11.2358404"><ele>260.0</ele><time>2026-05-03T10:45:01.917Z</time></trkpt><trkpt lat="43.9888802" lon="11.2359683"><ele>260.0</ele><time>2026-05-03T10:45:02.911Z</time></trkpt><trkpt lat="43.9888731" lon="11.2361129"><ele>260.25</ele><time>2026-05-03T10:45:03.91Z</time></trkpt><trkpt lat="43.9888623" lon="11.2362714"><ele>260.5</ele><time>2026-05-03T10:45:04.925Z</time></trkpt><trkpt lat="43.988852" lon="11.2364434"><ele>260.75</ele><time>2026-05-03T10:45:05.919Z</time></trkpt><trkpt lat="43.9888449" lon="11.2366184"><ele>261.0</ele><time>2026-05-03T10:45:06.925Z</time></trkpt><trkpt lat="43.9888378" lon="11.2368007"><ele>260.5</ele><time>2026-05-03T10:45:07.923Z</time></trkpt><trkpt lat="43.9888311" lon="11.2369854"><ele>260.0</ele><time>2026-05-03T10:45:08.92Z</time></trkpt><trkpt lat="43.9888277" lon="11.2371762"><ele>259.5</ele><time>2026-05-03T10:45:09.916Z</time></trkpt><trkpt lat="43.9888378" lon="11.237365"><ele>259.0</ele><time>2026-05-03T10:45:10.918Z</time></trkpt><trkpt lat="43.9888512" lon="11.2375499"><ele>258.75</ele><time>2026-05-03T10:45:11.92Z</time></trkpt><trkpt lat="43.9888765" lon="11.2377324"><ele>258.5</ele><time>2026-05-03T10:45:12.919Z</time></trkpt><trkpt lat="43.9889087" lon="11.2379151"><ele>258.25</ele><time>2026-05-03T10:45:13.918Z</time></trkpt><trkpt lat="43.9889521" lon="11.238102"><ele>258.0</ele><time>2026-05-03T10:45:14.912Z</time></trkpt><trkpt lat="43.9889967" lon="11.2383048"><ele>257.6666666666667</ele><time>2026-05-03T10:45:15.919Z</time></trkpt><trkpt lat="43.9890642" lon="11.2385098"><ele>257.33333333333337</ele><time>2026-05-03T10:45:16.92Z</time></trkpt><trkpt lat="43.9891345" lon="11.2387185"><ele>257.0</ele><time>2026-05-03T10:45:17.934Z</time></trkpt><trkpt lat="43.9892129" lon="11.2389194"><ele>257.5</ele><time>2026-05-03T10:45:18.921Z</time></trkpt><trkpt lat="43.9892879" lon="11.2391184"><ele>258.0</ele><time>2026-05-03T10:45:19.924Z</time></trkpt><trkpt lat="43.9893612" lon="11.2392981"><ele>258.5</ele><time>2026-05-03T10:45:20.918Z</time></trkpt><trkpt lat="43.9894284" lon="11.239465"><ele>259.0</ele><time>2026-05-03T10:45:21.923Z</time></trkpt><trkpt lat="43.9895055" lon="11.2396239"><ele>259.0</ele><time>2026-05-03T10:45:22.922Z</time></trkpt><trkpt lat="43.9895844" lon="11.2397803"><ele>259.0</ele><time>2026-05-03T10:45:23.927Z</time></trkpt><trkpt lat="43.9896572" lon="11.2399396"><ele>259.0</ele><time>2026-05-03T10:45:24.936Z</time></trkpt><trkpt lat="43.9897288" lon="11.2401112"><ele>259.0</ele><time>2026-05-03T10:45:25.929Z</time></trkpt><trkpt lat="43.9897951" lon="11.2402848"><ele>258.66666666666663</ele><time>2026-05-03T10:45:26.922Z</time></trkpt><trkpt lat="43.9898723" lon="11.2404666"><ele>258.3333333333333</ele><time>2026-05-03T10:45:27.923Z</time></trkpt><trkpt lat="43.989955" lon="11.2406436"><ele>258.0</ele><time>2026-05-03T10:45:28.921Z</time></trkpt><trkpt lat="43.9900407" lon="11.2408357"><ele>258.0</ele><time>2026-05-03T10:45:29.933Z</time></trkpt><trkpt lat="43.9901253" lon="11.2410395"><ele>258.0</ele><time>2026-05-03T10:45:30.919Z</time></trkpt><trkpt lat="43.9902246" lon="11.2412583"><ele>258.0</ele><time>2026-05-03T10:45:31.926Z</time></trkpt><trkpt lat="43.9903189" lon="11.2414823"><ele>257.6666666666667</ele><time>2026-05-03T10:45:32.922Z</time></trkpt><trkpt lat="43.9904033" lon="11.2417049"><ele>257.33333333333337</ele><time>2026-05-03T10:45:33.923Z</time></trkpt><trkpt lat="43.9904865" lon="11.2419139"><ele>257.0</ele><time>2026-05-03T10:45:34.919Z</time></trkpt><trkpt lat="43.9905665" lon="11.2421075"><ele>257.0</ele><time>2026-05-03T10:45:35.918Z</time></trkpt><trkpt lat="43.9906507" lon="11.242294"><ele>257.0</ele><time>2026-05-03T10:45:36.914Z</time></trkpt><trkpt lat="43.9907304" lon="11.2424797"><ele>257.0</ele><time>2026-05-03T10:45:37.917Z</time></trkpt><trkpt lat="43.9908123" lon="11.2426643"><ele>256.6666666666667</ele><time>2026-05-03T10:45:38.922Z</time></trkpt><trkpt lat="43.9908919" lon="11.2428499"><ele>256.3333333333333</ele><time>2026-05-03T10:45:39.923Z</time></trkpt><trkpt lat="43.9909712" lon="11.2430354"><ele>256.0</ele><time>2026-05-03T10:45:40.922Z</time></trkpt><trkpt lat="43.9910527" lon="11.2432237"><ele>253.66666666666666</ele><time>2026-05-03T10:45:41.92Z</time></trkpt><trkpt lat="43.9911341" lon="11.2434152"><ele>251.33333333333331</ele><time>2026-05-03T10:45:42.922Z</time></trkpt><trkpt lat="43.99122" lon="11.2436043"><ele>249.0</ele><time>2026-05-03T10:45:43.918Z</time></trkpt><trkpt lat="43.9913083" lon="11.2437955"><ele>249.66666666666669</ele><time>2026-05-03T10:45:44.921Z</time></trkpt><trkpt lat="43.9913955" lon="11.2439915"><ele>250.33333333333334</ele><time>2026-05-03T10:45:45.915Z</time></trkpt><trkpt lat="43.991484" lon="11.2441927"><ele>251.0</ele><time>2026-05-03T10:45:46.925Z</time></trkpt><trkpt lat="43.9915747" lon="11.2443941"><ele>251.0</ele><time>2026-05-03T10:45:47.924Z</time></trkpt><trkpt lat="43.9916562" lon="11.2445917"><ele>251.0</ele><time>2026-05-03T10:45:48.917Z</time></trkpt><trkpt lat="43.9917476" lon="11.2447894"><ele>251.0</ele><time>2026-05-03T10:45:49.922Z</time></trkpt><trkpt lat="43.9918345" lon="11.244989"><ele>252.0</ele><time>2026-05-03T10:45:50.922Z</time></trkpt><trkpt lat="43.9919244" lon="11.2451927"><ele>253.0</ele><time>2026-05-03T10:45:51.916Z</time></trkpt><trkpt lat="43.992006" lon="11.2453996"><ele>254.0</ele><time>2026-05-03T10:45:52.918Z</time></trkpt><trkpt lat="43.9920889" lon="11.2456049"><ele>255.0</ele><time>2026-05-03T10:45:53.919Z</time></trkpt><trkpt lat="43.9921776" lon="11.245801"><ele>256.0</ele><time>2026-05-03T10:45:54.916Z</time></trkpt><trkpt lat="43.9922704" lon="11.2459986"><ele>257.0</ele><time>2026-05-03T10:45:55.932Z</time></trkpt><trkpt lat="43.9923562" lon="11.2462075"><ele>257.0</ele><time>2026-05-03T10:45:56.917Z</time></trkpt><trkpt lat="43.9924332" lon="11.2464192"><ele>257.0</ele><time>2026-05-03T10:45:57.916Z</time></trkpt><trkpt lat="43.9925025" lon="11.2466376"><ele>257.0</ele><time>2026-05-03T10:45:58.919Z</time></trkpt><trkpt lat="43.992563" lon="11.2468644"><ele>258.33333333333337</ele><time>2026-05-03T10:45:59.918Z</time></trkpt><trkpt lat="43.9926071" lon="11.247099"><ele>259.6666666666667</ele><time>2026-05-03T10:46:00.914Z</time></trkpt><trkpt lat="43.9926418" lon="11.2473269"><ele>261.0</ele><time>2026-05-03T10:46:01.924Z</time></trkpt><trkpt lat="43.9926628" lon="11.247564"><ele>263.0</ele><time>2026-05-03T10:46:02.916Z</time></trkpt><trkpt lat="43.9926739" lon="11.2477983"><ele>265.0</ele><time>2026-05-03T10:46:03.914Z</time></trkpt><trkpt lat="43.9926742" lon="11.2480198"><ele>267.0</ele><time>2026-05-03T10:46:04.911Z</time></trkpt><trkpt lat="43.9926625" lon="11.248239"><ele>268.3333333333333</ele><time>2026-05-03T10:46:05.912Z</time></trkpt><trkpt lat="43.9926576" lon="11.2484562"><ele>269.66666666666663</ele><time>2026-05-03T10:46:06.912Z</time></trkpt><trkpt lat="43.9926302" lon="11.2486798"><ele>271.0</ele><time>2026-05-03T10:46:07.921Z</time></trkpt><trkpt lat="43.9925911" lon="11.2489056"><ele>271.0</ele><time>2026-05-03T10:46:08.908Z</time></trkpt><trkpt lat="43.9925424" lon="11.2491318"><ele>271.0</ele><time>2026-05-03T10:46:09.911Z</time></trkpt><trkpt lat="43.9924894" lon="11.2493579"><ele>271.0</ele><time>2026-05-03T10:46:10.907Z</time></trkpt><trkpt lat="43.9924267" lon="11.2495801"><ele>272.0</ele><time>2026-05-03T10:46:11.906Z</time></trkpt><trkpt lat="43.9923565" lon="11.2497988"><ele>273.0</ele><time>2026-05-03T10:46:12.905Z</time></trkpt><trkpt lat="43.9922684" lon="11.2500044"><ele>274.0</ele><time>2026-05-03T10:46:13.907Z</time></trkpt><trkpt lat="43.9921786" lon="11.250219"><ele>274.0</ele><time>2026-05-03T10:46:14.904Z</time></trkpt><trkpt lat="43.9920647" lon="11.2504099"><ele>274.0</ele><time>2026-05-03T10:46:15.902Z</time></trkpt><trkpt lat="43.9919417" lon="11.2505978"><ele>274.0</ele><time>2026-05-03T10:46:16.902Z</time></trkpt><trkpt lat="43.9918182" lon="11.2507649"><ele>275.66666666666663</ele><time>2026-05-03T10:46:17.908Z</time></trkpt><trkpt lat="43.99169" lon="11.2509346"><ele>277.3333333333333</ele><time>2026-05-03T10:46:18.901Z</time></trkpt><trkpt lat="43.991556" lon="11.2511039"><ele>279.0</ele><time>2026-05-03T10:46:19.909Z</time></trkpt><trkpt lat="43.991415" lon="11.251256"><ele>279.0</ele><time>2026-05-03T10:46:20.904Z</time></trkpt><trkpt lat="43.9912756" lon="11.2514141"><ele>279.0</ele><time>2026-05-03T10:46:21.902Z</time></trkpt><trkpt lat="43.991144" lon="11.2515643"><ele>279.0</ele><time>2026-05-03T10:46:22.91Z</time></trkpt><trkpt lat="43.9910093" lon="11.2517206"><ele>279.3333333333333</ele><time>2026-05-03T10:46:23.904Z</time></trkpt><trkpt lat="43.9908807" lon="11.2518715"><ele>279.66666666666663</ele><time>2026-05-03T10:46:24.902Z</time></trkpt><trkpt lat="43.9907483" lon="11.2520168"><ele>280.0</ele><time>2026-05-03T10:46:25.902Z</time></trkpt><trkpt lat="43.990619" lon="11.2521689"><ele>283.0</ele><time>2026-05-03T10:46:26.916Z</time></trkpt><trkpt lat="43.9904902" lon="11.2523064"><ele>286.0</ele><time>2026-05-03T10:46:27.899Z</time></trkpt><trkpt lat="43.990366" lon="11.2524483"><ele>289.0</ele><time>2026-05-03T10:46:28.898Z</time></trkpt><trkpt lat="43.9902374" lon="11.2525974"><ele>289.0</ele><time>2026-05-03T10:46:29.902Z</time></trkpt><trkpt lat="43.9901142" lon="11.2527536"><ele>289.0</ele><time>2026-05-03T10:46:30.899Z</time></trkpt><trkpt lat="43.9899914" lon="11.2529023"><ele>289.0</ele><time>2026-05-03T10:46:31.915Z</time></trkpt><trkpt lat="43.9898672" lon="11.2530465"><ele>288.66666666666663</ele><time>2026-05-03T10:46:32.905Z</time></trkpt><trkpt lat="43.9897432" lon="11.2531829"><ele>288.3333333333333</ele><time>2026-05-03T10:46:33.907Z</time></trkpt><trkpt lat="43.9896274" lon="11.2533214"><ele>288.0</ele><time>2026-05-03T10:46:34.905Z</time></trkpt><trkpt lat="43.9895059" lon="11.2534677"><ele>288.0</ele><time>2026-05-03T10:46:35.912Z</time></trkpt><trkpt lat="43.9893847" lon="11.2536007"><ele>288.0</ele><time>2026-05-03T10:46:36.905Z</time></trkpt><trkpt lat="43.9892735" lon="11.2537224"><ele>288.0</ele><time>2026-05-03T10:46:37.906Z</time></trkpt><trkpt lat="43.9891776" lon="11.253841"><ele>288.0</ele><time>2026-05-03T10:46:38.903Z</time></trkpt><trkpt lat="43.9890854" lon="11.2539514"><ele>287.8</ele><time>2026-05-03T10:46:39.903Z</time></trkpt><trkpt lat="43.9890007" lon="11.2540439"><ele>287.6</ele><time>2026-05-03T10:46:40.902Z</time></trkpt><trkpt lat="43.9889114" lon="11.2541049"><ele>287.4</ele><time>2026-05-03T10:46:41.911Z</time></trkpt><trkpt lat="43.9888314" lon="11.2541471"><ele>287.2</ele><time>2026-05-03T10:46:42.912Z</time></trkpt><trkpt lat="43.9887681" lon="11.2541699"><ele>287.0</ele><time>2026-05-03T10:46:43.911Z</time></trkpt><trkpt lat="43.9886727" lon="11.254223"><ele>287.0</ele><time>2026-05-03T10:46:45.908Z</time></trkpt><trkpt lat="43.9886504" lon="11.2543433"><ele>287.0</ele><time>2026-05-03T10:48:08.9Z</time></trkpt><trkpt lat="43.988596" lon="11.2544258"><ele>287.0</ele><time>2026-05-03T10:48:09.905Z</time></trkpt><trkpt lat="43.9885314" lon="11.2545089"><ele>287.0</ele><time>2026-05-03T10:48:10.906Z</time></trkpt><trkpt lat="43.9884616" lon="11.254591"><ele>287.0</ele><time>2026-05-03T10:48:11.901Z</time></trkpt><trkpt lat="43.9883976" lon="11.2546616"><ele>287.0</ele><time>2026-05-03T10:48:12.901Z</time></trkpt><trkpt lat="43.988343" lon="11.2547328"><ele>286.6</ele><time>2026-05-03T10:48:13.906Z</time></trkpt><trkpt lat="43.9882989" lon="11.2547954"><ele>286.2</ele><time>2026-05-03T10:48:14.902Z</time></trkpt><trkpt lat="43.9882748" lon="11.25488"><ele>285.8</ele><time>2026-05-03T10:48:16.907Z</time></trkpt><trkpt lat="43.988284" lon="11.2549925"><ele>285.4</ele><time>2026-05-03T10:48:19.894Z</time></trkpt><trkpt lat="43.9882119" lon="11.2551618"><ele>285.0</ele><time>2026-05-03T10:48:21.91Z</time></trkpt><trkpt lat="43.9881252" lon="11.2553005"><ele>285.0</ele><time>2026-05-03T10:48:22.903Z</time></trkpt><trkpt lat="43.9880311" lon="11.2554668"><ele>285.0</ele><time>2026-05-03T10:48:23.9Z</time></trkpt><trkpt lat="43.9879332" lon="11.2556492"><ele>285.0</ele><time>2026-05-03T10:48:24.905Z</time></trkpt><trkpt lat="43.9878229" lon="11.2558891"><ele>287.0</ele><time>2026-05-03T10:48:25.899Z</time></trkpt><trkpt lat="43.9877329" lon="11.2561376"><ele>289.0</ele><time>2026-05-03T10:48:26.903Z</time></trkpt><trkpt lat="43.9876638" lon="11.2563787"><ele>291.0</ele><time>2026-05-03T10:48:27.908Z</time></trkpt><trkpt lat="43.9876128" lon="11.2566007"><ele>290.75</ele><time>2026-05-03T10:48:28.904Z</time></trkpt><trkpt lat="43.9875663" lon="11.256802"><ele>290.5</ele><time>2026-05-03T10:48:29.924Z</time></trkpt><trkpt lat="43.9875276" lon="11.2570023"><ele>290.25</ele><time>2026-05-03T10:48:30.904Z</time></trkpt><trkpt lat="43.9874982" lon="11.2572002"><ele>290.0</ele><time>2026-05-03T10:48:31.906Z</time></trkpt><trkpt lat="43.987485" lon="11.2573892"><ele>290.0</ele><time>2026-05-03T10:48:32.904Z</time></trkpt><trkpt lat="43.9874797" lon="11.2575838"><ele>290.0</ele><time>2026-05-03T10:48:33.905Z</time></trkpt><trkpt lat="43.9874793" lon="11.2577838"><ele>290.0</ele><time>2026-05-03T10:48:34.91Z</time></trkpt><trkpt lat="43.9874798" lon="11.2579845"><ele>290.0</ele><time>2026-05-03T10:48:35.908Z</time></trkpt><trkpt lat="43.9874877" lon="11.2581859"><ele>289.0</ele><time>2026-05-03T10:48:36.908Z</time></trkpt><trkpt lat="43.9874949" lon="11.2583963"><ele>288.0</ele><time>2026-05-03T10:48:37.908Z</time></trkpt><trkpt lat="43.9875155" lon="11.2586023"><ele>287.0</ele><time>2026-05-03T10:48:38.909Z</time></trkpt><trkpt lat="43.9875435" lon="11.2588136"><ele>283.6666666666667</ele><time>2026-05-03T10:48:39.91Z</time></trkpt><trkpt lat="43.9875851" lon="11.2590266"><ele>280.3333333333333</ele><time>2026-05-03T10:48:40.909Z</time></trkpt><trkpt lat="43.9876229" lon="11.2592444"><ele>277.0</ele><time>2026-05-03T10:48:41.912Z</time></trkpt><trkpt lat="43.9876646" lon="11.2594701"><ele>277.0</ele><time>2026-05-03T10:48:42.913Z</time></trkpt><trkpt lat="43.9877168" lon="11.2596926"><ele>277.0</ele><time>2026-05-03T10:48:43.92Z</time></trkpt><trkpt lat="43.9877698" lon="11.259918"><ele>277.0</ele><time>2026-05-03T10:48:44.913Z</time></trkpt><trkpt lat="43.9878309" lon="11.2601418"><ele>273.66666666666663</ele><time>2026-05-03T10:48:45.915Z</time></trkpt><trkpt lat="43.9878874" lon="11.2603644"><ele>270.3333333333333</ele><time>2026-05-03T10:48:46.912Z</time></trkpt><trkpt lat="43.9879392" lon="11.2605833"><ele>267.0</ele><time>2026-05-03T10:48:47.921Z</time></trkpt><trkpt lat="43.9879976" lon="11.2608038"><ele>266.0</ele><time>2026-05-03T10:48:48.915Z</time></trkpt><trkpt lat="43.9880535" lon="11.2610204"><ele>265.0</ele><time>2026-05-03T10:48:49.911Z</time></trkpt><trkpt lat="43.98811" lon="11.2612376"><ele>264.0</ele><time>2026-05-03T10:48:50.914Z</time></trkpt><trkpt lat="43.9881648" lon="11.2614677"><ele>261.0</ele><time>2026-05-03T10:48:51.911Z</time></trkpt><trkpt lat="43.9882268" lon="11.2617014"><ele>258.0</ele><time>2026-05-03T10:48:52.918Z</time></trkpt><trkpt lat="43.9882833" lon="11.261942"><ele>255.0</ele><time>2026-05-03T10:48:53.914Z</time></trkpt><trkpt lat="43.9883365" lon="11.2621852"><ele>251.66666666666669</ele><time>2026-05-03T10:48:54.917Z</time></trkpt><trkpt lat="43.9883838" lon="11.2624273"><ele>248.33333333333334</ele><time>2026-05-03T10:48:55.913Z</time></trkpt><trkpt lat="43.9884319" lon="11.2626683"><ele>245.0</ele><time>2026-05-03T10:48:56.915Z</time></trkpt><trkpt lat="43.9884843" lon="11.2629204"><ele>245.66666666666669</ele><time>2026-05-03T10:48:57.913Z</time></trkpt><trkpt lat="43.9885271" lon="11.2631809"><ele>246.33333333333331</ele><time>2026-05-03T10:48:58.915Z</time></trkpt><trkpt lat="43.9885638" lon="11.2634541"><ele>247.0</ele><time>2026-05-03T10:48:59.916Z</time></trkpt><trkpt lat="43.9885986" lon="11.2637278"><ele>252.66666666666666</ele><time>2026-05-03T10:49:00.929Z</time></trkpt><trkpt lat="43.9886262" lon="11.2640091"><ele>258.3333333333333</ele><time>2026-05-03T10:49:01.91Z</time></trkpt><trkpt lat="43.9886481" lon="11.2642785"><ele>264.0</ele><time>2026-05-03T10:49:02.909Z</time></trkpt><trkpt lat="43.9886609" lon="11.2645448"><ele>267.3333333333333</ele><time>2026-05-03T10:49:03.913Z</time></trkpt><trkpt lat="43.9886756" lon="11.2648136"><ele>270.66666666666663</ele><time>2026-05-03T10:49:04.912Z</time></trkpt><trkpt lat="43.9886823" lon="11.2650829"><ele>274.0</ele><time>2026-05-03T10:49:05.913Z</time></trkpt><trkpt lat="43.9886935" lon="11.2653682"><ele>276.3333333333333</ele><time>2026-05-03T10:49:06.904Z</time></trkpt><trkpt lat="43.9887009" lon="11.2656668"><ele>278.6666666666667</ele><time>2026-05-03T10:49:07.911Z</time></trkpt><trkpt lat="43.9887006" lon="11.2659926"><ele>281.0</ele><time>2026-05-03T10:49:08.899Z</time></trkpt><trkpt lat="43.9886924" lon="11.2663421"><ele>282.0</ele><time>2026-05-03T10:49:09.9Z</time></trkpt><trkpt lat="43.9886855" lon="11.2667155"><ele>283.0</ele><time>2026-05-03T10:49:10.898Z</time></trkpt><trkpt lat="43.9886839" lon="11.2670879"><ele>283.5</ele><time>2026-05-03T10:49:11.898Z</time></trkpt><trkpt lat="43.988674" lon="11.2674497"><ele>284.0</ele><time>2026-05-03T10:49:12.898Z</time></trkpt><trkpt lat="43.988663" lon="11.2678037"><ele>282.5</ele><time>2026-05-03T10:49:13.897Z</time></trkpt><trkpt lat="43.9886422" lon="11.2681514"><ele>281.0</ele><time>2026-05-03T10:49:14.892Z</time></trkpt><trkpt lat="43.9886066" lon="11.2685016"><ele>281.0</ele><time>2026-05-03T10:49:15.895Z</time></trkpt><trkpt lat="43.9885461" lon="11.2688493"><ele>281.0</ele><time>2026-05-03T10:49:16.9Z</time></trkpt><trkpt lat="43.988477" lon="11.2691854"><ele>277.5</ele><time>2026-05-03T10:49:17.907Z</time></trkpt><trkpt lat="43.9883931" lon="11.2695144"><ele>274.0</ele><time>2026-05-03T10:49:18.905Z</time></trkpt><trkpt lat="43.9882981" lon="11.2698284"><ele>270.5</ele><time>2026-05-03T10:49:19.9Z</time></trkpt><trkpt lat="43.9882024" lon="11.2701277"><ele>267.0</ele><time>2026-05-03T10:49:20.904Z</time></trkpt><trkpt lat="43.9880925" lon="11.2704097"><ele>269.0</ele><time>2026-05-03T10:49:21.907Z</time></trkpt><trkpt lat="43.9879699" lon="11.2706876"><ele>271.0</ele><time>2026-05-03T10:49:22.91Z</time></trkpt><trkpt lat="43.9878457" lon="11.2709357"><ele>271.0</ele><time>2026-05-03T10:49:23.908Z</time></trkpt><trkpt lat="43.987708" lon="11.2711834"><ele>271.0</ele><time>2026-05-03T10:49:24.908Z</time></trkpt><trkpt lat="43.9875611" lon="11.271418"><ele>271.0</ele><time>2026-05-03T10:49:25.907Z</time></trkpt><trkpt lat="43.9874053" lon="11.2716445"><ele>272.66666666666663</ele><time>2026-05-03T10:49:26.904Z</time></trkpt><trkpt lat="43.9872461" lon="11.2718548"><ele>274.3333333333333</ele><time>2026-05-03T10:49:27.909Z</time></trkpt><trkpt lat="43.9870708" lon="11.272055"><ele>276.0</ele><time>2026-05-03T10:49:28.91Z</time></trkpt><trkpt lat="43.9868875" lon="11.27224"><ele>277.3333333333333</ele><time>2026-05-03T10:49:29.91Z</time></trkpt><trkpt lat="43.9866936" lon="11.2724006"><ele>278.66666666666663</ele><time>2026-05-03T10:49:30.91Z</time></trkpt><trkpt lat="43.9865043" lon="11.272525"><ele>280.0</ele><time>2026-05-03T10:49:31.922Z</time></trkpt><trkpt lat="43.986348" lon="11.2726097"><ele>280.0</ele><time>2026-05-03T10:49:32.899Z</time></trkpt><trkpt lat="43.9862118" lon="11.2726719"><ele>280.0</ele><time>2026-05-03T10:49:33.904Z</time></trkpt><trkpt lat="43.9860878" lon="11.2727242"><ele>280.0</ele><time>2026-05-03T10:49:34.897Z</time></trkpt><trkpt lat="43.9859566" lon="11.2727506"><ele>280.0</ele><time>2026-05-03T10:49:35.894Z</time></trkpt><trkpt lat="43.9858328" lon="11.2727579"><ele>279.25</ele><time>2026-05-03T10:49:36.893Z</time></trkpt><trkpt lat="43.9857139" lon="11.2727456"><ele>278.5</ele><time>2026-05-03T10:49:37.899Z</time></trkpt><trkpt lat="43.985598" lon="11.2727452"><ele>277.75</ele><time>2026-05-03T10:49:38.894Z</time></trkpt><trkpt lat="43.9854829" lon="11.2727822"><ele>277.0</ele><time>2026-05-03T10:49:39.905Z</time></trkpt><trkpt lat="43.9853723" lon="11.2728588"><ele>277.0</ele><time>2026-05-03T10:49:40.904Z</time></trkpt><trkpt lat="43.9852621" lon="11.2729829"><ele>277.0</ele><time>2026-05-03T10:49:41.892Z</time></trkpt><trkpt lat="43.9851549" lon="11.2731285"><ele>277.0</ele><time>2026-05-03T10:49:42.897Z</time></trkpt><trkpt lat="43.9850605" lon="11.2733328"><ele>276.66666666666663</ele><time>2026-05-03T10:49:43.892Z</time></trkpt><trkpt lat="43.9849726" lon="11.2735415"><ele>276.3333333333333</ele><time>2026-05-03T10:49:44.898Z</time></trkpt><trkpt lat="43.9848628" lon="11.2737451"><ele>276.0</ele><time>2026-05-03T10:49:45.898Z</time></trkpt><trkpt lat="43.9847149" lon="11.2739238"><ele>278.3333333333333</ele><time>2026-05-03T10:49:46.897Z</time></trkpt><trkpt lat="43.9845576" lon="11.2740731"><ele>280.66666666666663</ele><time>2026-05-03T10:49:47.898Z</time></trkpt><trkpt lat="43.9843984" lon="11.2742225"><ele>283.0</ele><time>2026-05-03T10:49:48.895Z</time></trkpt><trkpt lat="43.9842444" lon="11.2744112"><ele>280.0</ele><time>2026-05-03T10:49:49.901Z</time></trkpt><trkpt lat="43.9841005" lon="11.2746189"><ele>277.0</ele><time>2026-05-03T10:49:50.894Z</time></trkpt><trkpt lat="43.9839691" lon="11.2748577"><ele>274.0</ele><time>2026-05-03T10:49:51.899Z</time></trkpt><trkpt lat="43.9838536" lon="11.2751092"><ele>274.0</ele><time>2026-05-03T10:49:52.896Z</time></trkpt><trkpt lat="43.9837587" lon="11.2753773"><ele>274.0</ele><time>2026-05-03T10:49:53.898Z</time></trkpt><trkpt lat="43.9836849" lon="11.2756653"><ele>274.0</ele><time>2026-05-03T10:49:54.899Z</time></trkpt><trkpt lat="43.9836234" lon="11.2759648"><ele>273.0</ele><time>2026-05-03T10:49:55.907Z</time></trkpt><trkpt lat="43.9835645" lon="11.2762618"><ele>272.0</ele><time>2026-05-03T10:49:56.909Z</time></trkpt><trkpt lat="43.9835113" lon="11.2765714"><ele>261.0</ele><time>2026-05-03T10:49:57.913Z</time></trkpt><trkpt lat="43.983456" lon="11.2768805"><ele>250.0</ele><time>2026-05-03T10:49:58.917Z</time></trkpt><trkpt lat="43.9833906" lon="11.2771929"><ele>245.5</ele><time>2026-05-03T10:49:59.917Z</time></trkpt><trkpt lat="43.9833241" lon="11.2775011"><ele>241.0</ele><time>2026-05-03T10:50:00.916Z</time></trkpt><trkpt lat="43.9832602" lon="11.2778184"><ele>241.0</ele><time>2026-05-03T10:50:01.914Z</time></trkpt><trkpt lat="43.9831919" lon="11.2781359"><ele>241.0</ele><time>2026-05-03T10:50:02.927Z</time></trkpt><trkpt lat="43.983117" lon="11.2784559"><ele>241.0</ele><time>2026-05-03T10:50:03.91Z</time></trkpt><trkpt lat="43.9830466" lon="11.2787952"><ele>241.0</ele><time>2026-05-03T10:50:04.917Z</time></trkpt><trkpt lat="43.9829707" lon="11.2791379"><ele>242.5</ele><time>2026-05-03T10:50:05.912Z</time></trkpt><trkpt lat="43.9828989" lon="11.2794725"><ele>244.0</ele><time>2026-05-03T10:50:06.912Z</time></trkpt><trkpt lat="43.9828235" lon="11.2797921"><ele>248.5</ele><time>2026-05-03T10:50:07.911Z</time></trkpt><trkpt lat="43.9827647" lon="11.2800995"><ele>253.0</ele><time>2026-05-03T10:50:08.911Z</time></trkpt><trkpt lat="43.982704" lon="11.2803992"><ele>260.66666666666663</ele><time>2026-05-03T10:50:09.908Z</time></trkpt><trkpt lat="43.9826769" lon="11.2807078"><ele>268.3333333333333</ele><time>2026-05-03T10:50:10.907Z</time></trkpt><trkpt lat="43.9826553" lon="11.2810164"><ele>276.0</ele><time>2026-05-03T10:50:11.902Z</time></trkpt><trkpt lat="43.9826529" lon="11.2813398"><ele>276.5</ele><time>2026-05-03T10:50:12.908Z</time></trkpt><trkpt lat="43.982668" lon="11.2816656"><ele>277.0</ele><time>2026-05-03T10:50:13.906Z</time></trkpt><trkpt lat="43.9826772" lon="11.2819872"><ele>275.0</ele><time>2026-05-03T10:50:14.906Z</time></trkpt><trkpt lat="43.9826744" lon="11.2823101"><ele>273.0</ele><time>2026-05-03T10:50:15.908Z</time></trkpt><trkpt lat="43.9826657" lon="11.2826367"><ele>273.0</ele><time>2026-05-03T10:50:16.911Z</time></trkpt><trkpt lat="43.9826547" lon="11.2829685"><ele>273.0</ele><time>2026-05-03T10:50:17.9Z</time></trkpt><trkpt lat="43.9826456" lon="11.2833068"><ele>272.5</ele><time>2026-05-03T10:50:18.902Z</time></trkpt><trkpt lat="43.9826211" lon="11.283648"><ele>272.0</ele><time>2026-05-03T10:50:19.893Z</time></trkpt><trkpt lat="43.9825831" lon="11.2839956"><ele>271.0</ele><time>2026-05-03T10:50:20.902Z</time></trkpt><trkpt lat="43.9825268" lon="11.2843496"><ele>270.0</ele><time>2026-05-03T10:50:21.894Z</time></trkpt><trkpt lat="43.98246" lon="11.2846971"><ele>262.5</ele><time>2026-05-03T10:50:22.905Z</time></trkpt><trkpt lat="43.9823796" lon="11.2850438"><ele>255.0</ele><time>2026-05-03T10:50:23.897Z</time></trkpt><trkpt lat="43.9822898" lon="11.2853807"><ele>253.0</ele><time>2026-05-03T10:50:24.897Z</time></trkpt><trkpt lat="43.9821828" lon="11.2856999"><ele>251.0</ele><time>2026-05-03T10:50:25.895Z</time></trkpt><trkpt lat="43.9820669" lon="11.285992"><ele>251.0</ele><time>2026-05-03T10:50:26.907Z</time></trkpt><trkpt lat="43.9819374" lon="11.2862665"><ele>251.0</ele><time>2026-05-03T10:50:27.904Z</time></trkpt><trkpt lat="43.981796" lon="11.2865355"><ele>247.0</ele><time>2026-05-03T10:50:28.904Z</time></trkpt><trkpt lat="43.9816457" lon="11.2867949"><ele>243.0</ele><time>2026-05-03T10:50:29.904Z</time></trkpt><trkpt lat="43.9814781" lon="11.2870146"><ele>243.0</ele><time>2026-05-03T10:50:30.901Z</time></trkpt><trkpt lat="43.981309" lon="11.2872273"><ele>243.0</ele><time>2026-05-03T10:50:31.904Z</time></trkpt><trkpt lat="43.981137" lon="11.2874064"><ele>243.0</ele><time>2026-05-03T10:50:32.902Z</time></trkpt><trkpt lat="43.98096" lon="11.2875831"><ele>243.33333333333331</ele><time>2026-05-03T10:50:33.916Z</time></trkpt><trkpt lat="43.9807779" lon="11.2877501"><ele>243.66666666666666</ele><time>2026-05-03T10:50:34.901Z</time></trkpt><trkpt lat="43.9805904" lon="11.2878916"><ele>244.0</ele><time>2026-05-03T10:50:35.912Z</time></trkpt><trkpt lat="43.9803885" lon="11.2880187"><ele>244.33333333333331</ele><time>2026-05-03T10:50:36.904Z</time></trkpt><trkpt lat="43.9801909" lon="11.2881399"><ele>244.66666666666669</ele><time>2026-05-03T10:50:37.908Z</time></trkpt><trkpt lat="43.9799759" lon="11.2882457"><ele>245.0</ele><time>2026-05-03T10:50:38.906Z</time></trkpt><trkpt lat="43.9797519" lon="11.2883188"><ele>242.0</ele><time>2026-05-03T10:50:39.908Z</time></trkpt><trkpt lat="43.9795239" lon="11.2883695"><ele>239.0</ele><time>2026-05-03T10:50:40.908Z</time></trkpt><trkpt lat="43.9792841" lon="11.2884117"><ele>238.0</ele><time>2026-05-03T10:50:41.907Z</time></trkpt><trkpt lat="43.9790478" lon="11.2884547"><ele>237.0</ele><time>2026-05-03T10:50:42.906Z</time></trkpt><trkpt lat="43.9788033" lon="11.2884649"><ele>237.0</ele><time>2026-05-03T10:50:43.911Z</time></trkpt><trkpt lat="43.9785653" lon="11.2884636"><ele>237.0</ele><time>2026-05-03T10:50:44.91Z</time></trkpt><trkpt lat="43.9783364" lon="11.2884508"><ele>234.5</ele><time>2026-05-03T10:50:45.91Z</time></trkpt><trkpt lat="43.9781095" lon="11.2884332"><ele>232.0</ele><time>2026-05-03T10:50:46.914Z</time></trkpt><trkpt lat="43.9778771" lon="11.288391"><ele>232.0</ele><time>2026-05-03T10:50:47.92Z</time></trkpt><trkpt lat="43.977644" lon="11.2883506"><ele>232.0</ele><time>2026-05-03T10:50:48.911Z</time></trkpt><trkpt lat="43.9774022" lon="11.2883032"><ele>230.0</ele><time>2026-05-03T10:50:49.912Z</time></trkpt><trkpt lat="43.9771553" lon="11.2882539"><ele>228.0</ele><time>2026-05-03T10:50:50.92Z</time></trkpt><trkpt lat="43.9769034" lon="11.2882058"><ele>225.0</ele><time>2026-05-03T10:50:51.911Z</time></trkpt><trkpt lat="43.976655" lon="11.2881579"><ele>222.0</ele><time>2026-05-03T10:50:52.912Z</time></trkpt><trkpt lat="43.9764023" lon="11.2881096"><ele>222.5</ele><time>2026-05-03T10:50:53.913Z</time></trkpt><trkpt lat="43.9761497" lon="11.2880632"><ele>223.0</ele><time>2026-05-03T10:50:54.911Z</time></trkpt><trkpt lat="43.9758955" lon="11.2880255"><ele>224.0</ele><time>2026-05-03T10:50:55.913Z</time></trkpt><trkpt lat="43.9756384" lon="11.2879875"><ele>225.0</ele><time>2026-05-03T10:50:56.911Z</time></trkpt><trkpt lat="43.9753801" lon="11.2879739"><ele>225.0</ele><time>2026-05-03T10:50:57.901Z</time></trkpt><trkpt lat="43.9751219" lon="11.2879889"><ele>225.0</ele><time>2026-05-03T10:50:58.907Z</time></trkpt><trkpt lat="43.9748665" lon="11.2880079"><ele>225.33333333333331</ele><time>2026-05-03T10:50:59.906Z</time></trkpt><trkpt lat="43.9746361" lon="11.2880492"><ele>225.66666666666666</ele><time>2026-05-03T10:51:00.912Z</time></trkpt><trkpt lat="43.9744248" lon="11.2881098"><ele>226.0</ele><time>2026-05-03T10:51:01.91Z</time></trkpt><trkpt lat="43.9742274" lon="11.2881666"><ele>224.66666666666666</ele><time>2026-05-03T10:51:02.903Z</time></trkpt><trkpt lat="43.9740463" lon="11.2882239"><ele>223.33333333333331</ele><time>2026-05-03T10:51:03.899Z</time></trkpt><trkpt lat="43.9738979" lon="11.2882942"><ele>222.0</ele><time>2026-05-03T10:51:04.912Z</time></trkpt><trkpt lat="43.9737607" lon="11.2883443"><ele>222.0</ele><time>2026-05-03T10:51:05.899Z</time></trkpt><trkpt lat="43.9736534" lon="11.2884018"><ele>222.0</ele><time>2026-05-03T10:51:06.904Z</time></trkpt><trkpt lat="43.9735556" lon="11.2884477"><ele>222.0</ele><time>2026-05-03T10:51:07.905Z</time></trkpt><trkpt lat="43.9734806" lon="11.2884807"><ele>222.0</ele><time>2026-05-03T10:51:08.904Z</time></trkpt><trkpt lat="43.9733953" lon="11.2885037"><ele>222.0</ele><time>2026-05-03T10:51:09.907Z</time></trkpt><trkpt lat="43.9733143" lon="11.2884966"><ele>222.6</ele><time>2026-05-03T10:51:10.901Z</time></trkpt><trkpt lat="43.9732216" lon="11.2884467"><ele>223.2</ele><time>2026-05-03T10:51:11.901Z</time></trkpt><trkpt lat="43.9731172" lon="11.2883868"><ele>223.8</ele><time>2026-05-03T10:51:12.907Z</time></trkpt><trkpt lat="43.9730197" lon="11.2883521"><ele>224.4</ele><time>2026-05-03T10:51:13.908Z</time></trkpt><trkpt lat="43.9729362" lon="11.2883035"><ele>225.0</ele><time>2026-05-03T10:51:14.914Z</time></trkpt><trkpt lat="43.9728685" lon="11.2882276"><ele>225.0</ele><time>2026-05-03T10:51:15.91Z</time></trkpt><trkpt lat="43.9728315" lon="11.2881126"><ele>225.0</ele><time>2026-05-03T10:51:16.91Z</time></trkpt><trkpt lat="43.9728305" lon="11.2879645"><ele>225.0</ele><time>2026-05-03T10:51:17.917Z</time></trkpt><trkpt lat="43.9728581" lon="11.2878177"><ele>225.0</ele><time>2026-05-03T10:51:18.912Z</time></trkpt><trkpt lat="43.9729247" lon="11.2876816"><ele>225.0</ele><time>2026-05-03T10:51:19.909Z</time></trkpt><trkpt lat="43.9729959" lon="11.2875382"><ele>226.0</ele><time>2026-05-03T10:51:20.912Z</time></trkpt><trkpt lat="43.9730572" lon="11.2873796"><ele>227.0</ele><time>2026-05-03T10:51:21.912Z</time></trkpt><trkpt lat="43.9730876" lon="11.2872041"><ele>228.0</ele><time>2026-05-03T10:51:22.916Z</time></trkpt><trkpt lat="43.9730701" lon="11.287028"><ele>229.0</ele><time>2026-05-03T10:51:23.914Z</time></trkpt><trkpt lat="43.9730229" lon="11.2868487"><ele>231.5</ele><time>2026-05-03T10:51:24.907Z</time></trkpt><trkpt lat="43.9729602" lon="11.2866757"><ele>234.0</ele><time>2026-05-03T10:51:25.911Z</time></trkpt><trkpt lat="43.972885" lon="11.2865073"><ele>236.5</ele><time>2026-05-03T10:51:26.914Z</time></trkpt><trkpt lat="43.9727966" lon="11.2863551"><ele>239.0</ele><time>2026-05-03T10:51:27.921Z</time></trkpt><trkpt lat="43.9726921" lon="11.2862291"><ele>241.75</ele><time>2026-05-03T10:51:28.924Z</time></trkpt><trkpt lat="43.9725862" lon="11.2861144"><ele>244.5</ele><time>2026-05-03T10:51:29.922Z</time></trkpt><trkpt lat="43.9724951" lon="11.2859959"><ele>247.25</ele><time>2026-05-03T10:51:30.92Z</time></trkpt><trkpt lat="43.9724224" lon="11.285862"><ele>250.0</ele><time>2026-05-03T10:51:31.919Z</time></trkpt><trkpt lat="43.9723745" lon="11.2857088"><ele>255.25</ele><time>2026-05-03T10:51:32.918Z</time></trkpt><trkpt lat="43.972333" lon="11.2855384"><ele>260.5</ele><time>2026-05-03T10:51:33.909Z</time></trkpt><trkpt lat="43.9722844" lon="11.2853682"><ele>265.75</ele><time>2026-05-03T10:51:34.908Z</time></trkpt><trkpt lat="43.9722344" lon="11.2851971"><ele>271.0</ele><time>2026-05-03T10:51:35.932Z</time></trkpt><trkpt lat="43.9721836" lon="11.2850251"><ele>271.0</ele><time>2026-05-03T10:51:36.895Z</time></trkpt><trkpt lat="43.9721331" lon="11.2848528"><ele>271.0</ele><time>2026-05-03T10:51:37.872Z</time></trkpt><trkpt lat="43.9720815" lon="11.2846819"><ele>271.0</ele><time>2026-05-03T10:51:38.854Z</time></trkpt><trkpt lat="43.9720302" lon="11.2845105"><ele>271.0</ele><time>2026-05-03T10:51:39.84Z</time></trkpt><trkpt lat="43.9719793" lon="11.2843398"><ele>281.0</ele><time>2026-05-03T10:51:40.815Z</time></trkpt><trkpt lat="43.9719284" lon="11.2841691"><ele>291.0</ele><time>2026-05-03T10:51:41.797Z</time></trkpt><trkpt lat="43.9709898" lon="11.281255"><ele>281.3333333333333</ele><time>2026-05-03T10:51:52.896Z</time></trkpt><trkpt lat="43.9708671" lon="11.2810741"><ele>271.66666666666663</ele><time>2026-05-03T10:51:53.893Z</time></trkpt><trkpt lat="43.9707735" lon="11.2808665"><ele>262.0</ele><time>2026-05-03T10:51:54.889Z</time></trkpt><trkpt lat="43.9706727" lon="11.2806636"><ele>257.0</ele><time>2026-05-03T10:51:55.886Z</time></trkpt><trkpt lat="43.9705702" lon="11.2805202"><ele>252.0</ele><time>2026-05-03T10:51:56.885Z</time></trkpt><trkpt lat="43.97047" lon="11.2802936"><ele>247.0</ele><time>2026-05-03T10:51:57.874Z</time></trkpt><trkpt lat="43.9703315" lon="11.2800602"><ele>247.0</ele><time>2026-05-03T10:51:58.888Z</time></trkpt><trkpt lat="43.9702235" lon="11.2798094"><ele>247.0</ele><time>2026-05-03T10:51:59.899Z</time></trkpt><trkpt lat="43.9701323" lon="11.2795817"><ele>247.0</ele><time>2026-05-03T10:52:00.908Z</time></trkpt><trkpt lat="43.9700528" lon="11.2793629"><ele>249.25</ele><time>2026-05-03T10:52:01.898Z</time></trkpt><trkpt lat="43.9699779" lon="11.2791596"><ele>251.5</ele><time>2026-05-03T10:52:02.905Z</time></trkpt><trkpt lat="43.9699228" lon="11.2789684"><ele>253.75</ele><time>2026-05-03T10:52:03.908Z</time></trkpt><trkpt lat="43.9698742" lon="11.2788069"><ele>256.0</ele><time>2026-05-03T10:52:04.907Z</time></trkpt><trkpt lat="43.9698207" lon="11.2786547"><ele>257.25</ele><time>2026-05-03T10:52:05.923Z</time></trkpt><trkpt lat="43.9697866" lon="11.2785096"><ele>258.5</ele><time>2026-05-03T10:52:06.902Z</time></trkpt><trkpt lat="43.969781" lon="11.2783607"><ele>259.75</ele><time>2026-05-03T10:52:07.913Z</time></trkpt><trkpt lat="43.9698379" lon="11.2782085"><ele>261.0</ele><time>2026-05-03T10:52:08.909Z</time></trkpt><trkpt lat="43.9699293" lon="11.2780584"><ele>264.0</ele><time>2026-05-03T10:52:09.901Z</time></trkpt><trkpt lat="43.9699957" lon="11.2778957"><ele>267.0</ele><time>2026-05-03T10:52:10.903Z</time></trkpt><trkpt lat="43.9700563" lon="11.2777312"><ele>270.0</ele><time>2026-05-03T10:52:11.903Z</time></trkpt><trkpt lat="43.9701119" lon="11.2775654"><ele>273.0</ele><time>2026-05-03T10:52:12.901Z</time></trkpt><trkpt lat="43.9701638" lon="11.2774115"><ele>273.0</ele><time>2026-05-03T10:52:13.902Z</time></trkpt><trkpt lat="43.9702149" lon="11.2772761"><ele>273.0</ele><time>2026-05-03T10:52:14.912Z</time></trkpt><trkpt lat="43.9702958" lon="11.2771734"><ele>273.0</ele><time>2026-05-03T10:52:15.907Z</time></trkpt><trkpt lat="43.9703997" lon="11.2771219"><ele>273.0</ele><time>2026-05-03T10:52:16.91Z</time></trkpt><trkpt lat="43.9705174" lon="11.27712"><ele>273.0</ele><time>2026-05-03T10:52:17.914Z</time></trkpt><trkpt lat="43.9706521" lon="11.2771526"><ele>274.0</ele><time>2026-05-03T10:52:18.914Z</time></trkpt><trkpt lat="43.9707853" lon="11.2772176"><ele>275.0</ele><time>2026-05-03T10:52:19.913Z</time></trkpt><trkpt lat="43.9709105" lon="11.2773291"><ele>276.0</ele><time>2026-05-03T10:52:20.915Z</time></trkpt><trkpt lat="43.9710157" lon="11.2774878"><ele>277.0</ele><time>2026-05-03T10:52:21.91Z</time></trkpt><trkpt lat="43.9711112" lon="11.2776661"><ele>277.0</ele><time>2026-05-03T10:52:22.913Z</time></trkpt><trkpt lat="43.9712087" lon="11.2778253"><ele>277.0</ele><time>2026-05-03T10:52:23.904Z</time></trkpt><trkpt lat="43.9713196" lon="11.2779302"><ele>277.0</ele><time>2026-05-03T10:52:24.905Z</time></trkpt><trkpt lat="43.9714354" lon="11.277957"><ele>277.0</ele><time>2026-05-03T10:52:25.911Z</time></trkpt><trkpt lat="43.9715444" lon="11.2779273"><ele>277.0</ele><time>2026-05-03T10:52:26.906Z</time></trkpt><trkpt lat="43.971663" lon="11.277827"><ele>277.0</ele><time>2026-05-03T10:52:27.911Z</time></trkpt><trkpt lat="43.9717858" lon="11.2777305"><ele>277.0</ele><time>2026-05-03T10:52:28.905Z</time></trkpt><trkpt lat="43.9719152" lon="11.2776226"><ele>277.0</ele><time>2026-05-03T10:52:29.908Z</time></trkpt><trkpt lat="43.9720308" lon="11.2775108"><ele>274.25</ele><time>2026-05-03T10:52:30.897Z</time></trkpt><trkpt lat="43.9721224" lon="11.2773779"><ele>271.5</ele><time>2026-05-03T10:52:31.907Z</time></trkpt><trkpt lat="43.9721678" lon="11.2772069"><ele>268.75</ele><time>2026-05-03T10:52:32.906Z</time></trkpt><trkpt lat="43.972167" lon="11.2770009"><ele>266.0</ele><time>2026-05-03T10:52:33.9Z</time></trkpt><trkpt lat="43.9721512" lon="11.2767691"><ele>266.0</ele><time>2026-05-03T10:52:34.894Z</time></trkpt><trkpt lat="43.9721483" lon="11.2765472"><ele>266.0</ele><time>2026-05-03T10:52:35.888Z</time></trkpt><trkpt lat="43.9721202" lon="11.2763588"><ele>266.0</ele><time>2026-05-03T10:52:36.918Z</time></trkpt><trkpt lat="43.9720513" lon="11.2762196"><ele>266.0</ele><time>2026-05-03T10:52:37.896Z</time></trkpt><trkpt lat="43.9719789" lon="11.2761056"><ele>265.0</ele><time>2026-05-03T10:52:38.894Z</time></trkpt><trkpt lat="43.971905" lon="11.2760062"><ele>264.0</ele><time>2026-05-03T10:52:39.891Z</time></trkpt><trkpt lat="43.971824" lon="11.2759183"><ele>263.0</ele><time>2026-05-03T10:52:40.9Z</time></trkpt><trkpt lat="43.971725" lon="11.2758423"><ele>262.0</ele><time>2026-05-03T10:52:41.908Z</time></trkpt><trkpt lat="43.9716018" lon="11.2757882"><ele>261.0</ele><time>2026-05-03T10:52:42.896Z</time></trkpt><trkpt lat="43.9714582" lon="11.2757473"><ele>265.3333333333333</ele><time>2026-05-03T10:52:43.907Z</time></trkpt><trkpt lat="43.9713135" lon="11.2757022"><ele>269.66666666666663</ele><time>2026-05-03T10:52:44.897Z</time></trkpt><trkpt lat="43.971166" lon="11.2756568"><ele>274.0</ele><time>2026-05-03T10:52:45.906Z</time></trkpt><trkpt lat="43.9710158" lon="11.2756055"><ele>273.5</ele><time>2026-05-03T10:52:46.903Z</time></trkpt><trkpt lat="43.9708863" lon="11.2755364"><ele>273.0</ele><time>2026-05-03T10:52:47.901Z</time></trkpt><trkpt lat="43.9707847" lon="11.2754353"><ele>272.5</ele><time>2026-05-03T10:52:48.892Z</time></trkpt><trkpt lat="43.9707128" lon="11.2752859"><ele>272.0</ele><time>2026-05-03T10:52:49.903Z</time></trkpt><trkpt lat="43.9706726" lon="11.2750948"><ele>272.0</ele><time>2026-05-03T10:52:50.902Z</time></trkpt><trkpt lat="43.9706729" lon="11.2748989"><ele>272.0</ele><time>2026-05-03T10:52:51.895Z</time></trkpt><trkpt lat="43.9706742" lon="11.2746846"><ele>272.0</ele><time>2026-05-03T10:52:52.899Z</time></trkpt><trkpt lat="43.9706788" lon="11.2744653"><ele>272.25</ele><time>2026-05-03T10:52:53.895Z</time></trkpt><trkpt lat="43.9706743" lon="11.274255"><ele>272.5</ele><time>2026-05-03T10:52:54.904Z</time></trkpt><trkpt lat="43.9706743" lon="11.2740779"><ele>272.75</ele><time>2026-05-03T10:52:55.904Z</time></trkpt><trkpt lat="43.9706947" lon="11.2739306"><ele>273.0</ele><time>2026-05-03T10:52:56.907Z</time></trkpt><trkpt lat="43.9707597" lon="11.2738086"><ele>274.0</ele><time>2026-05-03T10:52:57.912Z</time></trkpt><trkpt lat="43.970856" lon="11.2737033"><ele>275.0</ele><time>2026-05-03T10:52:58.904Z</time></trkpt><trkpt lat="43.9709483" lon="11.2736028"><ele>276.0</ele><time>2026-05-03T10:52:59.909Z</time></trkpt><trkpt lat="43.9710373" lon="11.2734835"><ele>277.0</ele><time>2026-05-03T10:53:00.912Z</time></trkpt><trkpt lat="43.9711238" lon="11.2733535"><ele>276.5</ele><time>2026-05-03T10:53:01.911Z</time></trkpt><trkpt lat="43.9711958" lon="11.2732039"><ele>276.0</ele><time>2026-05-03T10:53:02.905Z</time></trkpt><trkpt lat="43.9712638" lon="11.2730426"><ele>275.5</ele><time>2026-05-03T10:53:03.908Z</time></trkpt><trkpt lat="43.971324" lon="11.2728554"><ele>275.0</ele><time>2026-05-03T10:53:04.905Z</time></trkpt><trkpt lat="43.971396" lon="11.2726774"><ele>275.0</ele><time>2026-05-03T10:53:05.907Z</time></trkpt><trkpt lat="43.9714721" lon="11.2725081"><ele>275.0</ele><time>2026-05-03T10:53:06.907Z</time></trkpt><trkpt lat="43.9715474" lon="11.2723477"><ele>275.0</ele><time>2026-05-03T10:53:07.92Z</time></trkpt><trkpt lat="43.9716011" lon="11.2721934"><ele>275.0</ele><time>2026-05-03T10:53:08.907Z</time></trkpt><trkpt lat="43.9716104" lon="11.2720365"><ele>275.2</ele><time>2026-05-03T10:53:09.906Z</time></trkpt><trkpt lat="43.9715961" lon="11.2718885"><ele>275.4</ele><time>2026-05-03T10:53:10.902Z</time></trkpt><trkpt lat="43.9715777" lon="11.2717527"><ele>275.6</ele><time>2026-05-03T10:53:11.906Z</time></trkpt><trkpt lat="43.9715683" lon="11.2716183"><ele>275.8</ele><time>2026-05-03T10:53:12.904Z</time></trkpt><trkpt lat="43.9715588" lon="11.2714882"><ele>276.0</ele><time>2026-05-03T10:53:13.906Z</time></trkpt><trkpt lat="43.9715524" lon="11.2713409"><ele>275.2</ele><time>2026-05-03T10:53:14.905Z</time></trkpt><trkpt lat="43.9715453" lon="11.2712027"><ele>274.40000000000003</ele><time>2026-05-03T10:53:15.908Z</time></trkpt><trkpt lat="43.9715381" lon="11.2710624"><ele>273.6</ele><time>2026-05-03T10:53:16.903Z</time></trkpt><trkpt lat="43.9715305" lon="11.2709281"><ele>272.8</ele><time>2026-05-03T10:53:17.906Z</time></trkpt><trkpt lat="43.9715254" lon="11.2708043"><ele>272.0</ele><time>2026-05-03T10:53:18.908Z</time></trkpt><trkpt lat="43.9715229" lon="11.2707019"><ele>272.0</ele><time>2026-05-03T10:53:19.906Z</time></trkpt><trkpt lat="43.9715272" lon="11.2706118"><ele>272.0</ele><time>2026-05-03T10:53:21.911Z</time></trkpt><trkpt lat="43.9715658" lon="11.2707012"><ele>272.0</ele><time>2026-05-03T10:53:27.915Z</time></trkpt><trkpt lat="43.971601" lon="11.2707828"><ele>272.0</ele><time>2026-05-03T10:53:30.919Z</time></trkpt><trkpt lat="43.9716403" lon="11.2709159"><ele>272.0</ele><time>2026-05-03T10:53:32.904Z</time></trkpt><trkpt lat="43.9716518" lon="11.271059"><ele>272.0</ele><time>2026-05-03T10:53:34.903Z</time></trkpt><trkpt lat="43.9716422" lon="11.2711746"><ele>272.0</ele><time>2026-05-03T10:53:36.902Z</time></trkpt><trkpt lat="43.9715783" lon="11.2712076"><ele>272.0</ele><time>2026-05-03T10:53:42.899Z</time></trkpt></trkseg></trk></gpx>